<?xml version="1.0" encoding="UTF-8" standalone="no" ?>
<gpx xmlns="http://www.topografix.com/GPX/1/1" xmlns:xsi="http://www.w3.org/2001/XMLSchema-instance" xsi:schemaLocation="http://www.topografix.com/GPX/1/1 http://www.topografix.com/GPX/1/1/gpx.xsd" version="1.1" creator="VisuGPX - https://www.visugpx.com">
  <metadata>
    <name>8 - &amp;quot;Via Garona&amp;quot; - Saint-Martory à Saint-Gaudens</name>
    <desc><![CDATA[Parcours réalisé.

]]></desc>
  </metadata>
  <trk>
    <name><![CDATA[14 sept. 2022 à 07:26:53]]></name>
    <cmt><![CDATA[14 sept. 2022 à 07:26:53]]></cmt>
    <trkseg>
      <trkpt lat="43.13867" lon="0.93348">
        <ele>293</ele>
        <time>2022-09-14T05:26:54Z</time>
      </trkpt>
      <trkpt lat="43.13863" lon="0.93349">
        <ele>291</ele>
        <time>2022-09-14T05:27:19Z</time>
      </trkpt>
      <trkpt lat="43.13863" lon="0.93345">
        <ele>291</ele>
        <time>2022-09-14T05:27:49Z</time>
      </trkpt>
      <trkpt lat="43.13867" lon="0.93343">
        <ele>291</ele>
        <time>2022-09-14T05:27:52Z</time>
      </trkpt>
      <trkpt lat="43.1387" lon="0.93339">
        <ele>290</ele>
        <time>2022-09-14T05:27:55Z</time>
      </trkpt>
      <trkpt lat="43.13865" lon="0.93309">
        <ele>290</ele>
        <time>2022-09-14T05:28:17Z</time>
      </trkpt>
      <trkpt lat="43.13863" lon="0.93303">
        <ele>290</ele>
        <time>2022-09-14T05:28:21Z</time>
      </trkpt>
      <trkpt lat="43.1386" lon="0.93276">
        <ele>291</ele>
        <time>2022-09-14T05:28:37Z</time>
      </trkpt>
      <trkpt lat="43.13857" lon="0.9327">
        <ele>291</ele>
        <time>2022-09-14T05:28:42Z</time>
      </trkpt>
      <trkpt lat="43.13855" lon="0.93251">
        <ele>291</ele>
        <time>2022-09-14T05:28:55Z</time>
      </trkpt>
      <trkpt lat="43.1385" lon="0.93232">
        <ele>291</ele>
        <time>2022-09-14T05:29:07Z</time>
      </trkpt>
      <trkpt lat="43.13847" lon="0.93222">
        <ele>291</ele>
        <time>2022-09-14T05:29:14Z</time>
      </trkpt>
      <trkpt lat="43.13842" lon="0.93204">
        <ele>291</ele>
        <time>2022-09-14T05:29:26Z</time>
      </trkpt>
      <trkpt lat="43.13833" lon="0.93167">
        <ele>290</ele>
        <time>2022-09-14T05:29:47Z</time>
      </trkpt>
      <trkpt lat="43.13831" lon="0.93161">
        <ele>290</ele>
        <time>2022-09-14T05:29:51Z</time>
      </trkpt>
      <trkpt lat="43.13831" lon="0.93149">
        <ele>290</ele>
        <time>2022-09-14T05:29:57Z</time>
      </trkpt>
      <trkpt lat="43.13834" lon="0.93145">
        <ele>290</ele>
        <time>2022-09-14T05:30:00Z</time>
      </trkpt>
      <trkpt lat="43.13839" lon="0.93133">
        <ele>290</ele>
        <time>2022-09-14T05:30:06Z</time>
      </trkpt>
      <trkpt lat="43.13843" lon="0.93129">
        <ele>290</ele>
        <time>2022-09-14T05:30:10Z</time>
      </trkpt>
      <trkpt lat="43.13851" lon="0.93126">
        <ele>290</ele>
        <time>2022-09-14T05:30:18Z</time>
      </trkpt>
      <trkpt lat="43.13862" lon="0.93126">
        <ele>290</ele>
        <time>2022-09-14T05:30:26Z</time>
      </trkpt>
      <trkpt lat="43.13866" lon="0.93123">
        <ele>290</ele>
        <time>2022-09-14T05:30:29Z</time>
      </trkpt>
      <trkpt lat="43.1388" lon="0.93123">
        <ele>290</ele>
        <time>2022-09-14T05:30:40Z</time>
      </trkpt>
      <trkpt lat="43.13885" lon="0.9312">
        <ele>290</ele>
        <time>2022-09-14T05:30:44Z</time>
      </trkpt>
      <trkpt lat="43.13889" lon="0.93116">
        <ele>290</ele>
        <time>2022-09-14T05:30:48Z</time>
      </trkpt>
      <trkpt lat="43.13899" lon="0.93115">
        <ele>290</ele>
        <time>2022-09-14T05:30:55Z</time>
      </trkpt>
      <trkpt lat="43.13924" lon="0.9312">
        <ele>290</ele>
        <time>2022-09-14T05:31:16Z</time>
      </trkpt>
      <trkpt lat="43.13929" lon="0.93118">
        <ele>290</ele>
        <time>2022-09-14T05:31:21Z</time>
      </trkpt>
      <trkpt lat="43.13936" lon="0.93118">
        <ele>290</ele>
        <time>2022-09-14T05:31:27Z</time>
      </trkpt>
      <trkpt lat="43.13942" lon="0.93121">
        <ele>289</ele>
        <time>2022-09-14T05:31:32Z</time>
      </trkpt>
      <trkpt lat="43.13949" lon="0.93123">
        <ele>289</ele>
        <time>2022-09-14T05:31:37Z</time>
      </trkpt>
      <trkpt lat="43.13956" lon="0.93119">
        <ele>289</ele>
        <time>2022-09-14T05:31:44Z</time>
      </trkpt>
      <trkpt lat="43.13964" lon="0.93119">
        <ele>289</ele>
        <time>2022-09-14T05:31:52Z</time>
      </trkpt>
      <trkpt lat="43.13976" lon="0.93108">
        <ele>289</ele>
        <time>2022-09-14T05:32:01Z</time>
      </trkpt>
      <trkpt lat="43.13982" lon="0.9311">
        <ele>289</ele>
        <time>2022-09-14T05:32:06Z</time>
      </trkpt>
      <trkpt lat="43.13989" lon="0.93105">
        <ele>289</ele>
        <time>2022-09-14T05:32:11Z</time>
      </trkpt>
      <trkpt lat="43.13995" lon="0.93105">
        <ele>289</ele>
        <time>2022-09-14T05:32:17Z</time>
      </trkpt>
      <trkpt lat="43.14" lon="0.93108">
        <ele>289</ele>
        <time>2022-09-14T05:32:20Z</time>
      </trkpt>
      <trkpt lat="43.14006" lon="0.93108">
        <ele>289</ele>
        <time>2022-09-14T05:32:24Z</time>
      </trkpt>
      <trkpt lat="43.14019" lon="0.93103">
        <ele>289</ele>
        <time>2022-09-14T05:32:37Z</time>
      </trkpt>
      <trkpt lat="43.14034" lon="0.931">
        <ele>289</ele>
        <time>2022-09-14T05:32:50Z</time>
      </trkpt>
      <trkpt lat="43.14039" lon="0.93092">
        <ele>289</ele>
        <time>2022-09-14T05:32:53Z</time>
      </trkpt>
      <trkpt lat="43.14046" lon="0.93089">
        <ele>289</ele>
        <time>2022-09-14T05:33:00Z</time>
      </trkpt>
      <trkpt lat="43.14062" lon="0.93086">
        <ele>289</ele>
        <time>2022-09-14T05:33:11Z</time>
      </trkpt>
      <trkpt lat="43.14076" lon="0.93075">
        <ele>289</ele>
        <time>2022-09-14T05:33:26Z</time>
      </trkpt>
      <trkpt lat="43.14094" lon="0.93069">
        <ele>289</ele>
        <time>2022-09-14T05:33:38Z</time>
      </trkpt>
      <trkpt lat="43.14109" lon="0.93052">
        <ele>288</ele>
        <time>2022-09-14T05:33:52Z</time>
      </trkpt>
      <trkpt lat="43.14151" lon="0.93035">
        <ele>288</ele>
        <time>2022-09-14T05:34:23Z</time>
      </trkpt>
      <trkpt lat="43.14181" lon="0.93026">
        <ele>289</ele>
        <time>2022-09-14T05:34:51Z</time>
      </trkpt>
      <trkpt lat="43.14209" lon="0.9301">
        <ele>289</ele>
        <time>2022-09-14T05:35:16Z</time>
      </trkpt>
      <trkpt lat="43.14212" lon="0.93003">
        <ele>289</ele>
        <time>2022-09-14T05:35:20Z</time>
      </trkpt>
      <trkpt lat="43.14224" lon="0.92998">
        <ele>289</ele>
        <time>2022-09-14T05:35:33Z</time>
      </trkpt>
      <trkpt lat="43.14239" lon="0.92999">
        <ele>290</ele>
        <time>2022-09-14T05:35:47Z</time>
      </trkpt>
      <trkpt lat="43.14246" lon="0.92998">
        <ele>290</ele>
        <time>2022-09-14T05:35:53Z</time>
      </trkpt>
      <trkpt lat="43.1425" lon="0.92992">
        <ele>290</ele>
        <time>2022-09-14T05:35:59Z</time>
      </trkpt>
      <trkpt lat="43.14267" lon="0.9299">
        <ele>291</ele>
        <time>2022-09-14T05:36:16Z</time>
      </trkpt>
      <trkpt lat="43.14277" lon="0.92978">
        <ele>292</ele>
        <time>2022-09-14T05:36:26Z</time>
      </trkpt>
      <trkpt lat="43.14283" lon="0.92979">
        <ele>292</ele>
        <time>2022-09-14T05:36:32Z</time>
      </trkpt>
      <trkpt lat="43.14286" lon="0.9297">
        <ele>293</ele>
        <time>2022-09-14T05:36:36Z</time>
      </trkpt>
      <trkpt lat="43.14291" lon="0.92967">
        <ele>293</ele>
        <time>2022-09-14T05:36:41Z</time>
      </trkpt>
      <trkpt lat="43.14308" lon="0.92956">
        <ele>295</ele>
        <time>2022-09-14T05:37:00Z</time>
      </trkpt>
      <trkpt lat="43.14312" lon="0.92956">
        <ele>295</ele>
        <time>2022-09-14T05:37:05Z</time>
      </trkpt>
      <trkpt lat="43.1432" lon="0.92947">
        <ele>296</ele>
        <time>2022-09-14T05:37:15Z</time>
      </trkpt>
      <trkpt lat="43.14325" lon="0.92935">
        <ele>297</ele>
        <time>2022-09-14T05:37:31Z</time>
      </trkpt>
      <trkpt lat="43.1433" lon="0.92934">
        <ele>297</ele>
        <time>2022-09-14T05:38:13Z</time>
      </trkpt>
      <trkpt lat="43.14334" lon="0.92931">
        <ele>297</ele>
        <time>2022-09-14T05:38:17Z</time>
      </trkpt>
      <trkpt lat="43.14357" lon="0.92903">
        <ele>300</ele>
        <time>2022-09-14T05:38:49Z</time>
      </trkpt>
      <trkpt lat="43.1436" lon="0.92892">
        <ele>301</ele>
        <time>2022-09-14T05:38:58Z</time>
      </trkpt>
      <trkpt lat="43.14364" lon="0.92888">
        <ele>301</ele>
        <time>2022-09-14T05:39:03Z</time>
      </trkpt>
      <trkpt lat="43.14367" lon="0.9288">
        <ele>302</ele>
        <time>2022-09-14T05:39:11Z</time>
      </trkpt>
      <trkpt lat="43.14377" lon="0.92861">
        <ele>304</ele>
        <time>2022-09-14T05:39:32Z</time>
      </trkpt>
      <trkpt lat="43.14392" lon="0.92849">
        <ele>306</ele>
        <time>2022-09-14T05:39:50Z</time>
      </trkpt>
      <trkpt lat="43.14403" lon="0.92839">
        <ele>307</ele>
        <time>2022-09-14T05:40:02Z</time>
      </trkpt>
      <trkpt lat="43.14418" lon="0.92831">
        <ele>308</ele>
        <time>2022-09-14T05:40:19Z</time>
      </trkpt>
      <trkpt lat="43.14446" lon="0.92808">
        <ele>310</ele>
        <time>2022-09-14T05:40:54Z</time>
      </trkpt>
      <trkpt lat="43.14463" lon="0.92795">
        <ele>311</ele>
        <time>2022-09-14T05:41:13Z</time>
      </trkpt>
      <trkpt lat="43.14468" lon="0.92794">
        <ele>312</ele>
        <time>2022-09-14T05:41:19Z</time>
      </trkpt>
      <trkpt lat="43.1448" lon="0.92785">
        <ele>313</ele>
        <time>2022-09-14T05:41:35Z</time>
      </trkpt>
      <trkpt lat="43.1451" lon="0.92764">
        <ele>315</ele>
        <time>2022-09-14T05:42:08Z</time>
      </trkpt>
      <trkpt lat="43.14517" lon="0.92761">
        <ele>315</ele>
        <time>2022-09-14T05:42:15Z</time>
      </trkpt>
      <trkpt lat="43.14522" lon="0.9276">
        <ele>316</ele>
        <time>2022-09-14T05:42:20Z</time>
      </trkpt>
      <trkpt lat="43.14546" lon="0.92733">
        <ele>318</ele>
        <time>2022-09-14T05:42:53Z</time>
      </trkpt>
      <trkpt lat="43.14551" lon="0.92729">
        <ele>319</ele>
        <time>2022-09-14T05:42:58Z</time>
      </trkpt>
      <trkpt lat="43.14563" lon="0.92712">
        <ele>320</ele>
        <time>2022-09-14T05:43:17Z</time>
      </trkpt>
      <trkpt lat="43.14568" lon="0.92695">
        <ele>321</ele>
        <time>2022-09-14T05:43:31Z</time>
      </trkpt>
      <trkpt lat="43.14569" lon="0.92688">
        <ele>322</ele>
        <time>2022-09-14T05:43:38Z</time>
      </trkpt>
      <trkpt lat="43.14578" lon="0.92672">
        <ele>322</ele>
        <time>2022-09-14T05:43:50Z</time>
      </trkpt>
      <trkpt lat="43.14579" lon="0.92667">
        <ele>322</ele>
        <time>2022-09-14T05:43:53Z</time>
      </trkpt>
      <trkpt lat="43.1459" lon="0.92643">
        <ele>322</ele>
        <time>2022-09-14T05:44:11Z</time>
      </trkpt>
      <trkpt lat="43.14591" lon="0.92637">
        <ele>322</ele>
        <time>2022-09-14T05:44:15Z</time>
      </trkpt>
      <trkpt lat="43.14597" lon="0.92624">
        <ele>322</ele>
        <time>2022-09-14T05:44:25Z</time>
      </trkpt>
      <trkpt lat="43.14596" lon="0.92617">
        <ele>322</ele>
        <time>2022-09-14T05:44:33Z</time>
      </trkpt>
      <trkpt lat="43.14604" lon="0.92589">
        <ele>321</ele>
        <time>2022-09-14T05:44:52Z</time>
      </trkpt>
      <trkpt lat="43.14612" lon="0.92567">
        <ele>321</ele>
        <time>2022-09-14T05:45:08Z</time>
      </trkpt>
      <trkpt lat="43.14612" lon="0.92561">
        <ele>321</ele>
        <time>2022-09-14T05:45:12Z</time>
      </trkpt>
      <trkpt lat="43.1461" lon="0.92556">
        <ele>321</ele>
        <time>2022-09-14T05:45:16Z</time>
      </trkpt>
      <trkpt lat="43.14593" lon="0.92538">
        <ele>320</ele>
        <time>2022-09-14T05:45:34Z</time>
      </trkpt>
      <trkpt lat="43.14584" lon="0.92519">
        <ele>319</ele>
        <time>2022-09-14T05:45:48Z</time>
      </trkpt>
      <trkpt lat="43.14579" lon="0.92514">
        <ele>319</ele>
        <time>2022-09-14T05:45:52Z</time>
      </trkpt>
      <trkpt lat="43.14576" lon="0.92508">
        <ele>319</ele>
        <time>2022-09-14T05:45:56Z</time>
      </trkpt>
      <trkpt lat="43.14573" lon="0.92505">
        <ele>319</ele>
        <time>2022-09-14T05:45:59Z</time>
      </trkpt>
      <trkpt lat="43.14567" lon="0.9249">
        <ele>319</ele>
        <time>2022-09-14T05:46:09Z</time>
      </trkpt>
      <trkpt lat="43.14554" lon="0.92441">
        <ele>319</ele>
        <time>2022-09-14T05:46:41Z</time>
      </trkpt>
      <trkpt lat="43.14549" lon="0.92426">
        <ele>319</ele>
        <time>2022-09-14T05:46:50Z</time>
      </trkpt>
      <trkpt lat="43.14547" lon="0.92422">
        <ele>319</ele>
        <time>2022-09-14T05:46:54Z</time>
      </trkpt>
      <trkpt lat="43.14543" lon="0.92421">
        <ele>319</ele>
        <time>2022-09-14T05:46:57Z</time>
      </trkpt>
      <trkpt lat="43.14538" lon="0.92418">
        <ele>319</ele>
        <time>2022-09-14T05:47:01Z</time>
      </trkpt>
      <trkpt lat="43.14531" lon="0.92417">
        <ele>319</ele>
        <time>2022-09-14T05:47:09Z</time>
      </trkpt>
      <trkpt lat="43.14522" lon="0.9241">
        <ele>319</ele>
        <time>2022-09-14T05:47:21Z</time>
      </trkpt>
      <trkpt lat="43.14518" lon="0.92404">
        <ele>319</ele>
        <time>2022-09-14T05:47:26Z</time>
      </trkpt>
      <trkpt lat="43.14509" lon="0.92383">
        <ele>320</ele>
        <time>2022-09-14T05:47:41Z</time>
      </trkpt>
      <trkpt lat="43.14507" lon="0.92377">
        <ele>320</ele>
        <time>2022-09-14T05:47:47Z</time>
      </trkpt>
      <trkpt lat="43.14504" lon="0.92357">
        <ele>319</ele>
        <time>2022-09-14T05:48:00Z</time>
      </trkpt>
      <trkpt lat="43.14489" lon="0.92313">
        <ele>319</ele>
        <time>2022-09-14T05:48:30Z</time>
      </trkpt>
      <trkpt lat="43.14464" lon="0.92277">
        <ele>318</ele>
        <time>2022-09-14T05:49:01Z</time>
      </trkpt>
      <trkpt lat="43.14461" lon="0.92272">
        <ele>318</ele>
        <time>2022-09-14T05:49:05Z</time>
      </trkpt>
      <trkpt lat="43.14453" lon="0.92262">
        <ele>318</ele>
        <time>2022-09-14T05:49:15Z</time>
      </trkpt>
      <trkpt lat="43.14434" lon="0.92221">
        <ele>317</ele>
        <time>2022-09-14T05:49:47Z</time>
      </trkpt>
      <trkpt lat="43.14432" lon="0.92213">
        <ele>317</ele>
        <time>2022-09-14T05:49:52Z</time>
      </trkpt>
      <trkpt lat="43.14431" lon="0.92165">
        <ele>317</ele>
        <time>2022-09-14T05:50:19Z</time>
      </trkpt>
      <trkpt lat="43.14431" lon="0.92159">
        <ele>317</ele>
        <time>2022-09-14T05:50:24Z</time>
      </trkpt>
      <trkpt lat="43.14431" lon="0.92147">
        <ele>317</ele>
        <time>2022-09-14T05:50:32Z</time>
      </trkpt>
      <trkpt lat="43.1443" lon="0.92141">
        <ele>317</ele>
        <time>2022-09-14T05:50:36Z</time>
      </trkpt>
      <trkpt lat="43.14429" lon="0.92089">
        <ele>315</ele>
        <time>2022-09-14T05:51:11Z</time>
      </trkpt>
      <trkpt lat="43.14417" lon="0.92049">
        <ele>314</ele>
        <time>2022-09-14T05:51:44Z</time>
      </trkpt>
      <trkpt lat="43.14413" lon="0.92043">
        <ele>315</ele>
        <time>2022-09-14T05:51:49Z</time>
      </trkpt>
      <trkpt lat="43.14411" lon="0.92028">
        <ele>315</ele>
        <time>2022-09-14T05:51:58Z</time>
      </trkpt>
      <trkpt lat="43.14407" lon="0.9202">
        <ele>315</ele>
        <time>2022-09-14T05:52:07Z</time>
      </trkpt>
      <trkpt lat="43.14403" lon="0.92016">
        <ele>315</ele>
        <time>2022-09-14T05:52:13Z</time>
      </trkpt>
      <trkpt lat="43.14404" lon="0.92017">
        <ele>314</ele>
        <time>2022-09-14T05:54:43Z</time>
      </trkpt>
      <trkpt lat="43.14401" lon="0.92009">
        <ele>314</ele>
        <time>2022-09-14T05:54:59Z</time>
      </trkpt>
      <trkpt lat="43.14393" lon="0.91994">
        <ele>314</ele>
        <time>2022-09-14T05:55:11Z</time>
      </trkpt>
      <trkpt lat="43.14391" lon="0.91987">
        <ele>314</ele>
        <time>2022-09-14T05:55:14Z</time>
      </trkpt>
      <trkpt lat="43.14382" lon="0.91972">
        <ele>313</ele>
        <time>2022-09-14T05:55:32Z</time>
      </trkpt>
      <trkpt lat="43.14379" lon="0.91959">
        <ele>312</ele>
        <time>2022-09-14T05:55:50Z</time>
      </trkpt>
      <trkpt lat="43.14368" lon="0.91941">
        <ele>309</ele>
        <time>2022-09-14T05:56:09Z</time>
      </trkpt>
      <trkpt lat="43.14363" lon="0.91922">
        <ele>309</ele>
        <time>2022-09-14T05:56:23Z</time>
      </trkpt>
      <trkpt lat="43.14355" lon="0.91902">
        <ele>308</ele>
        <time>2022-09-14T05:56:39Z</time>
      </trkpt>
      <trkpt lat="43.14352" lon="0.91891">
        <ele>308</ele>
        <time>2022-09-14T05:56:53Z</time>
      </trkpt>
      <trkpt lat="43.14353" lon="0.91876">
        <ele>307</ele>
        <time>2022-09-14T05:57:07Z</time>
      </trkpt>
      <trkpt lat="43.14347" lon="0.91869">
        <ele>308</ele>
        <time>2022-09-14T05:57:28Z</time>
      </trkpt>
      <trkpt lat="43.1434" lon="0.91856">
        <ele>308</ele>
        <time>2022-09-14T05:57:41Z</time>
      </trkpt>
      <trkpt lat="43.14336" lon="0.91836">
        <ele>308</ele>
        <time>2022-09-14T05:57:57Z</time>
      </trkpt>
      <trkpt lat="43.14333" lon="0.91827">
        <ele>308</ele>
        <time>2022-09-14T05:58:06Z</time>
      </trkpt>
      <trkpt lat="43.14334" lon="0.91819">
        <ele>308</ele>
        <time>2022-09-14T05:58:18Z</time>
      </trkpt>
      <trkpt lat="43.14334" lon="0.9181">
        <ele>308</ele>
        <time>2022-09-14T05:58:29Z</time>
      </trkpt>
      <trkpt lat="43.14333" lon="0.91802">
        <ele>308</ele>
        <time>2022-09-14T05:58:33Z</time>
      </trkpt>
      <trkpt lat="43.14326" lon="0.91781">
        <ele>308</ele>
        <time>2022-09-14T05:58:52Z</time>
      </trkpt>
      <trkpt lat="43.1432" lon="0.91777">
        <ele>308</ele>
        <time>2022-09-14T05:59:05Z</time>
      </trkpt>
      <trkpt lat="43.14313" lon="0.91779">
        <ele>308</ele>
        <time>2022-09-14T05:59:59Z</time>
      </trkpt>
      <trkpt lat="43.14303" lon="0.91781">
        <ele>308</ele>
        <time>2022-09-14T06:00:14Z</time>
      </trkpt>
      <trkpt lat="43.14296" lon="0.91784">
        <ele>308</ele>
        <time>2022-09-14T06:00:26Z</time>
      </trkpt>
      <trkpt lat="43.14281" lon="0.91786">
        <ele>308</ele>
        <time>2022-09-14T06:00:40Z</time>
      </trkpt>
      <trkpt lat="43.14275" lon="0.91794">
        <ele>307</ele>
        <time>2022-09-14T06:00:53Z</time>
      </trkpt>
      <trkpt lat="43.14266" lon="0.91804">
        <ele>306</ele>
        <time>2022-09-14T06:01:06Z</time>
      </trkpt>
      <trkpt lat="43.14256" lon="0.91817">
        <ele>307</ele>
        <time>2022-09-14T06:01:18Z</time>
      </trkpt>
      <trkpt lat="43.14246" lon="0.91823">
        <ele>307</ele>
        <time>2022-09-14T06:01:31Z</time>
      </trkpt>
      <trkpt lat="43.14238" lon="0.91829">
        <ele>308</ele>
        <time>2022-09-14T06:01:39Z</time>
      </trkpt>
      <trkpt lat="43.14231" lon="0.91833">
        <ele>308</ele>
        <time>2022-09-14T06:01:48Z</time>
      </trkpt>
      <trkpt lat="43.14222" lon="0.91837">
        <ele>308</ele>
        <time>2022-09-14T06:01:58Z</time>
      </trkpt>
      <trkpt lat="43.14216" lon="0.91838">
        <ele>307</ele>
        <time>2022-09-14T06:02:04Z</time>
      </trkpt>
      <trkpt lat="43.14211" lon="0.91836">
        <ele>306</ele>
        <time>2022-09-14T06:02:17Z</time>
      </trkpt>
      <trkpt lat="43.14201" lon="0.91829">
        <ele>304</ele>
        <time>2022-09-14T06:02:29Z</time>
      </trkpt>
      <trkpt lat="43.14194" lon="0.91833">
        <ele>304</ele>
        <time>2022-09-14T06:02:53Z</time>
      </trkpt>
      <trkpt lat="43.14189" lon="0.91841">
        <ele>303</ele>
        <time>2022-09-14T06:03:36Z</time>
      </trkpt>
      <trkpt lat="43.14184" lon="0.91848">
        <ele>303</ele>
        <time>2022-09-14T06:03:48Z</time>
      </trkpt>
      <trkpt lat="43.14177" lon="0.9185">
        <ele>303</ele>
        <time>2022-09-14T06:03:55Z</time>
      </trkpt>
      <trkpt lat="43.14171" lon="0.91851">
        <ele>303</ele>
        <time>2022-09-14T06:04:01Z</time>
      </trkpt>
      <trkpt lat="43.14165" lon="0.91856">
        <ele>303</ele>
        <time>2022-09-14T06:04:11Z</time>
      </trkpt>
      <trkpt lat="43.14158" lon="0.91863">
        <ele>303</ele>
        <time>2022-09-14T06:04:18Z</time>
      </trkpt>
      <trkpt lat="43.14151" lon="0.91865">
        <ele>304</ele>
        <time>2022-09-14T06:04:24Z</time>
      </trkpt>
      <trkpt lat="43.14143" lon="0.91866">
        <ele>304</ele>
        <time>2022-09-14T06:04:33Z</time>
      </trkpt>
      <trkpt lat="43.14141" lon="0.91877">
        <ele>306</ele>
        <time>2022-09-14T06:04:53Z</time>
      </trkpt>
      <trkpt lat="43.14147" lon="0.91881">
        <ele>311</ele>
        <time>2022-09-14T06:05:29Z</time>
      </trkpt>
      <trkpt lat="43.14148" lon="0.91889">
        <ele>312</ele>
        <time>2022-09-14T06:05:41Z</time>
      </trkpt>
      <trkpt lat="43.14146" lon="0.91899">
        <ele>313</ele>
        <time>2022-09-14T06:05:59Z</time>
      </trkpt>
      <trkpt lat="43.14138" lon="0.91897">
        <ele>311</ele>
        <time>2022-09-14T06:07:53Z</time>
      </trkpt>
      <trkpt lat="43.14127" lon="0.91899">
        <ele>310</ele>
        <time>2022-09-14T06:08:05Z</time>
      </trkpt>
      <trkpt lat="43.14118" lon="0.91899">
        <ele>309</ele>
        <time>2022-09-14T06:08:18Z</time>
      </trkpt>
      <trkpt lat="43.14099" lon="0.91902">
        <ele>301</ele>
        <time>2022-09-14T06:09:28Z</time>
      </trkpt>
      <trkpt lat="43.14093" lon="0.91902">
        <ele>300</ele>
        <time>2022-09-14T06:10:04Z</time>
      </trkpt>
      <trkpt lat="43.14091" lon="0.91911">
        <ele>300</ele>
        <time>2022-09-14T06:10:16Z</time>
      </trkpt>
      <trkpt lat="43.14093" lon="0.91927">
        <ele>300</ele>
        <time>2022-09-14T06:10:29Z</time>
      </trkpt>
      <trkpt lat="43.14084" lon="0.91956">
        <ele>300</ele>
        <time>2022-09-14T06:10:53Z</time>
      </trkpt>
      <trkpt lat="43.14075" lon="0.91964">
        <ele>300</ele>
        <time>2022-09-14T06:11:05Z</time>
      </trkpt>
      <trkpt lat="43.14071" lon="0.91977">
        <ele>299</ele>
        <time>2022-09-14T06:11:18Z</time>
      </trkpt>
      <trkpt lat="43.1407" lon="0.91985">
        <ele>299</ele>
        <time>2022-09-14T06:11:25Z</time>
      </trkpt>
      <trkpt lat="43.14069" lon="0.91993">
        <ele>299</ele>
        <time>2022-09-14T06:11:37Z</time>
      </trkpt>
      <trkpt lat="43.14063" lon="0.92001">
        <ele>299</ele>
        <time>2022-09-14T06:11:55Z</time>
      </trkpt>
      <trkpt lat="43.14059" lon="0.92007">
        <ele>297</ele>
        <time>2022-09-14T06:12:07Z</time>
      </trkpt>
      <trkpt lat="43.14055" lon="0.92013">
        <ele>295</ele>
        <time>2022-09-14T06:12:31Z</time>
      </trkpt>
      <trkpt lat="43.14051" lon="0.92019">
        <ele>293</ele>
        <time>2022-09-14T06:12:49Z</time>
      </trkpt>
      <trkpt lat="43.14046" lon="0.92023">
        <ele>292</ele>
        <time>2022-09-14T06:12:56Z</time>
      </trkpt>
      <trkpt lat="43.14047" lon="0.92013">
        <ele>291</ele>
        <time>2022-09-14T06:13:14Z</time>
      </trkpt>
      <trkpt lat="43.1405" lon="0.91996">
        <ele>291</ele>
        <time>2022-09-14T06:13:24Z</time>
      </trkpt>
      <trkpt lat="43.14054" lon="0.91986">
        <ele>291</ele>
        <time>2022-09-14T06:13:38Z</time>
      </trkpt>
      <trkpt lat="43.14049" lon="0.91987">
        <ele>287</ele>
        <time>2022-09-14T06:14:26Z</time>
      </trkpt>
      <trkpt lat="43.14042" lon="0.91997">
        <ele>286</ele>
        <time>2022-09-14T06:14:39Z</time>
      </trkpt>
      <trkpt lat="43.14029" lon="0.91998">
        <ele>286</ele>
        <time>2022-09-14T06:14:55Z</time>
      </trkpt>
      <trkpt lat="43.14023" lon="0.91991">
        <ele>288</ele>
        <time>2022-09-14T06:15:12Z</time>
      </trkpt>
      <trkpt lat="43.14018" lon="0.91984">
        <ele>291</ele>
        <time>2022-09-14T06:15:30Z</time>
      </trkpt>
      <trkpt lat="43.14016" lon="0.91972">
        <ele>292</ele>
        <time>2022-09-14T06:15:43Z</time>
      </trkpt>
      <trkpt lat="43.14008" lon="0.91968">
        <ele>296</ele>
        <time>2022-09-14T06:16:25Z</time>
      </trkpt>
      <trkpt lat="43.13993" lon="0.91962">
        <ele>301</ele>
        <time>2022-09-14T06:17:43Z</time>
      </trkpt>
      <trkpt lat="43.13977" lon="0.91958">
        <ele>304</ele>
        <time>2022-09-14T06:18:13Z</time>
      </trkpt>
      <trkpt lat="43.13969" lon="0.91954">
        <ele>305</ele>
        <time>2022-09-14T06:18:26Z</time>
      </trkpt>
      <trkpt lat="43.13964" lon="0.91951">
        <ele>307</ele>
        <time>2022-09-14T06:18:44Z</time>
      </trkpt>
      <trkpt lat="43.13956" lon="0.91949">
        <ele>309</ele>
        <time>2022-09-14T06:18:56Z</time>
      </trkpt>
      <trkpt lat="43.13949" lon="0.91948">
        <ele>311</ele>
        <time>2022-09-14T06:19:14Z</time>
      </trkpt>
      <trkpt lat="43.13944" lon="0.9195">
        <ele>312</ele>
        <time>2022-09-14T06:19:32Z</time>
      </trkpt>
      <trkpt lat="43.13938" lon="0.91944">
        <ele>314</ele>
        <time>2022-09-14T06:19:44Z</time>
      </trkpt>
      <trkpt lat="43.13932" lon="0.91943">
        <ele>314</ele>
        <time>2022-09-14T06:19:50Z</time>
      </trkpt>
      <trkpt lat="43.13926" lon="0.91942">
        <ele>315</ele>
        <time>2022-09-14T06:20:22Z</time>
      </trkpt>
      <trkpt lat="43.13921" lon="0.9194">
        <ele>315</ele>
        <time>2022-09-14T06:20:28Z</time>
      </trkpt>
      <trkpt lat="43.13912" lon="0.91934">
        <ele>316</ele>
        <time>2022-09-14T06:20:39Z</time>
      </trkpt>
      <trkpt lat="43.13905" lon="0.91933">
        <ele>315</ele>
        <time>2022-09-14T06:20:46Z</time>
      </trkpt>
      <trkpt lat="43.1389" lon="0.91937">
        <ele>315</ele>
        <time>2022-09-14T06:21:02Z</time>
      </trkpt>
      <trkpt lat="43.13858" lon="0.91934">
        <ele>316</ele>
        <time>2022-09-14T06:21:34Z</time>
      </trkpt>
      <trkpt lat="43.13851" lon="0.91933">
        <ele>316</ele>
        <time>2022-09-14T06:21:39Z</time>
      </trkpt>
      <trkpt lat="43.13846" lon="0.91929">
        <ele>316</ele>
        <time>2022-09-14T06:21:43Z</time>
      </trkpt>
      <trkpt lat="43.13842" lon="0.91927">
        <ele>315</ele>
        <time>2022-09-14T06:21:48Z</time>
      </trkpt>
      <trkpt lat="43.13825" lon="0.91929">
        <ele>311</ele>
        <time>2022-09-14T06:22:20Z</time>
      </trkpt>
      <trkpt lat="43.13809" lon="0.91937">
        <ele>307</ele>
        <time>2022-09-14T06:22:50Z</time>
      </trkpt>
      <trkpt lat="43.13805" lon="0.91937">
        <ele>307</ele>
        <time>2022-09-14T06:22:55Z</time>
      </trkpt>
      <trkpt lat="43.13794" lon="0.91931">
        <ele>306</ele>
        <time>2022-09-14T06:23:06Z</time>
      </trkpt>
      <trkpt lat="43.13788" lon="0.91926">
        <ele>307</ele>
        <time>2022-09-14T06:23:15Z</time>
      </trkpt>
      <trkpt lat="43.13771" lon="0.91915">
        <ele>310</ele>
        <time>2022-09-14T06:23:40Z</time>
      </trkpt>
      <trkpt lat="43.13765" lon="0.91912">
        <ele>311</ele>
        <time>2022-09-14T06:23:52Z</time>
      </trkpt>
      <trkpt lat="43.1376" lon="0.9191">
        <ele>311</ele>
        <time>2022-09-14T06:23:57Z</time>
      </trkpt>
      <trkpt lat="43.13755" lon="0.91905">
        <ele>312</ele>
        <time>2022-09-14T06:24:06Z</time>
      </trkpt>
      <trkpt lat="43.13753" lon="0.91893">
        <ele>314</ele>
        <time>2022-09-14T06:24:18Z</time>
      </trkpt>
      <trkpt lat="43.13756" lon="0.91883">
        <ele>315</ele>
        <time>2022-09-14T06:24:30Z</time>
      </trkpt>
      <trkpt lat="43.13757" lon="0.91875">
        <ele>316</ele>
        <time>2022-09-14T06:24:42Z</time>
      </trkpt>
      <trkpt lat="43.13761" lon="0.9187">
        <ele>316</ele>
        <time>2022-09-14T06:24:54Z</time>
      </trkpt>
      <trkpt lat="43.1376" lon="0.91863">
        <ele>318</ele>
        <time>2022-09-14T06:25:12Z</time>
      </trkpt>
      <trkpt lat="43.13757" lon="0.91855">
        <ele>319</ele>
        <time>2022-09-14T06:25:24Z</time>
      </trkpt>
      <trkpt lat="43.13752" lon="0.91854">
        <ele>320</ele>
        <time>2022-09-14T06:25:36Z</time>
      </trkpt>
      <trkpt lat="43.13747" lon="0.91849">
        <ele>321</ele>
        <time>2022-09-14T06:25:48Z</time>
      </trkpt>
      <trkpt lat="43.13742" lon="0.9185">
        <ele>321</ele>
        <time>2022-09-14T06:25:54Z</time>
      </trkpt>
      <trkpt lat="43.13736" lon="0.91845">
        <ele>322</ele>
        <time>2022-09-14T06:26:03Z</time>
      </trkpt>
      <trkpt lat="43.13729" lon="0.91846">
        <ele>322</ele>
        <time>2022-09-14T06:26:17Z</time>
      </trkpt>
      <trkpt lat="43.1372" lon="0.91844">
        <ele>321</ele>
        <time>2022-09-14T06:26:30Z</time>
      </trkpt>
      <trkpt lat="43.13706" lon="0.91846">
        <ele>320</ele>
        <time>2022-09-14T06:26:48Z</time>
      </trkpt>
      <trkpt lat="43.13702" lon="0.91843">
        <ele>320</ele>
        <time>2022-09-14T06:26:54Z</time>
      </trkpt>
      <trkpt lat="43.13697" lon="0.91843">
        <ele>319</ele>
        <time>2022-09-14T06:27:06Z</time>
      </trkpt>
      <trkpt lat="43.13692" lon="0.91838">
        <ele>318</ele>
        <time>2022-09-14T06:27:17Z</time>
      </trkpt>
      <trkpt lat="43.13691" lon="0.91832">
        <ele>318</ele>
        <time>2022-09-14T06:27:22Z</time>
      </trkpt>
      <trkpt lat="43.13691" lon="0.91827">
        <ele>318</ele>
        <time>2022-09-14T06:27:26Z</time>
      </trkpt>
      <trkpt lat="43.13691" lon="0.91821">
        <ele>319</ele>
        <time>2022-09-14T06:27:33Z</time>
      </trkpt>
      <trkpt lat="43.13693" lon="0.91815">
        <ele>320</ele>
        <time>2022-09-14T06:27:38Z</time>
      </trkpt>
      <trkpt lat="43.13694" lon="0.91802">
        <ele>321</ele>
        <time>2022-09-14T06:27:51Z</time>
      </trkpt>
      <trkpt lat="43.13699" lon="0.91789">
        <ele>323</ele>
        <time>2022-09-14T06:28:10Z</time>
      </trkpt>
      <trkpt lat="43.13695" lon="0.91784">
        <ele>323</ele>
        <time>2022-09-14T06:28:22Z</time>
      </trkpt>
      <trkpt lat="43.13695" lon="0.91777">
        <ele>323</ele>
        <time>2022-09-14T06:28:27Z</time>
      </trkpt>
      <trkpt lat="43.13692" lon="0.9177">
        <ele>324</ele>
        <time>2022-09-14T06:28:34Z</time>
      </trkpt>
      <trkpt lat="43.13695" lon="0.91761">
        <ele>324</ele>
        <time>2022-09-14T06:28:41Z</time>
      </trkpt>
      <trkpt lat="43.13695" lon="0.91754">
        <ele>325</ele>
        <time>2022-09-14T06:28:49Z</time>
      </trkpt>
      <trkpt lat="43.13696" lon="0.91747">
        <ele>326</ele>
        <time>2022-09-14T06:28:54Z</time>
      </trkpt>
      <trkpt lat="43.13691" lon="0.91741">
        <ele>325</ele>
        <time>2022-09-14T06:29:08Z</time>
      </trkpt>
      <trkpt lat="43.13689" lon="0.91735">
        <ele>325</ele>
        <time>2022-09-14T06:29:14Z</time>
      </trkpt>
      <trkpt lat="43.13686" lon="0.91726">
        <ele>323</ele>
        <time>2022-09-14T06:29:28Z</time>
      </trkpt>
      <trkpt lat="43.13684" lon="0.9172">
        <ele>324</ele>
        <time>2022-09-14T06:29:34Z</time>
      </trkpt>
      <trkpt lat="43.13682" lon="0.9171">
        <ele>324</ele>
        <time>2022-09-14T06:29:46Z</time>
      </trkpt>
      <trkpt lat="43.1368" lon="0.91704">
        <ele>326</ele>
        <time>2022-09-14T06:29:58Z</time>
      </trkpt>
      <trkpt lat="43.13686" lon="0.91696">
        <ele>326</ele>
        <time>2022-09-14T06:30:27Z</time>
      </trkpt>
      <trkpt lat="43.13682" lon="0.91689">
        <ele>326</ele>
        <time>2022-09-14T06:31:20Z</time>
      </trkpt>
      <trkpt lat="43.13683" lon="0.91675">
        <ele>326</ele>
        <time>2022-09-14T06:31:31Z</time>
      </trkpt>
      <trkpt lat="43.13683" lon="0.91658">
        <ele>327</ele>
        <time>2022-09-14T06:31:45Z</time>
      </trkpt>
      <trkpt lat="43.13681" lon="0.91649">
        <ele>328</ele>
        <time>2022-09-14T06:31:53Z</time>
      </trkpt>
      <trkpt lat="43.13681" lon="0.91642">
        <ele>328</ele>
        <time>2022-09-14T06:31:58Z</time>
      </trkpt>
      <trkpt lat="43.13679" lon="0.91628">
        <ele>328</ele>
        <time>2022-09-14T06:32:06Z</time>
      </trkpt>
      <trkpt lat="43.13684" lon="0.91624">
        <ele>329</ele>
        <time>2022-09-14T06:32:12Z</time>
      </trkpt>
      <trkpt lat="43.13689" lon="0.91621">
        <ele>329</ele>
        <time>2022-09-14T06:32:30Z</time>
      </trkpt>
      <trkpt lat="43.13695" lon="0.91625">
        <ele>330</ele>
        <time>2022-09-14T06:32:42Z</time>
      </trkpt>
      <trkpt lat="43.13721" lon="0.91631">
        <ele>333</ele>
        <time>2022-09-14T06:33:14Z</time>
      </trkpt>
      <trkpt lat="43.1375" lon="0.91632">
        <ele>335</ele>
        <time>2022-09-14T06:33:49Z</time>
      </trkpt>
      <trkpt lat="43.13754" lon="0.91631">
        <ele>336</ele>
        <time>2022-09-14T06:33:55Z</time>
      </trkpt>
      <trkpt lat="43.13765" lon="0.91627">
        <ele>337</ele>
        <time>2022-09-14T06:34:09Z</time>
      </trkpt>
      <trkpt lat="43.13769" lon="0.91627">
        <ele>337</ele>
        <time>2022-09-14T06:34:15Z</time>
      </trkpt>
      <trkpt lat="43.13773" lon="0.91624">
        <ele>337</ele>
        <time>2022-09-14T06:34:20Z</time>
      </trkpt>
      <trkpt lat="43.13779" lon="0.91624">
        <ele>338</ele>
        <time>2022-09-14T06:34:28Z</time>
      </trkpt>
      <trkpt lat="43.13798" lon="0.91617">
        <ele>340</ele>
        <time>2022-09-14T06:34:58Z</time>
      </trkpt>
      <trkpt lat="43.138" lon="0.9161">
        <ele>341</ele>
        <time>2022-09-14T06:35:14Z</time>
      </trkpt>
      <trkpt lat="43.13789" lon="0.91576">
        <ele>341</ele>
        <time>2022-09-14T06:35:38Z</time>
      </trkpt>
      <trkpt lat="43.13787" lon="0.9156">
        <ele>341</ele>
        <time>2022-09-14T06:35:49Z</time>
      </trkpt>
      <trkpt lat="43.13781" lon="0.91538">
        <ele>340</ele>
        <time>2022-09-14T06:36:05Z</time>
      </trkpt>
      <trkpt lat="43.1378" lon="0.91532">
        <ele>340</ele>
        <time>2022-09-14T06:36:09Z</time>
      </trkpt>
      <trkpt lat="43.13778" lon="0.9152">
        <ele>340</ele>
        <time>2022-09-14T06:36:17Z</time>
      </trkpt>
      <trkpt lat="43.13771" lon="0.91475">
        <ele>337</ele>
        <time>2022-09-14T06:36:50Z</time>
      </trkpt>
      <trkpt lat="43.13764" lon="0.91435">
        <ele>334</ele>
        <time>2022-09-14T06:37:20Z</time>
      </trkpt>
      <trkpt lat="43.13756" lon="0.9141">
        <ele>332</ele>
        <time>2022-09-14T06:37:41Z</time>
      </trkpt>
      <trkpt lat="43.13752" lon="0.91388">
        <ele>330</ele>
        <time>2022-09-14T06:37:57Z</time>
      </trkpt>
      <trkpt lat="43.13752" lon="0.91372">
        <ele>329</ele>
        <time>2022-09-14T06:38:09Z</time>
      </trkpt>
      <trkpt lat="43.1375" lon="0.91365">
        <ele>329</ele>
        <time>2022-09-14T06:38:14Z</time>
      </trkpt>
      <trkpt lat="43.13749" lon="0.91343">
        <ele>327</ele>
        <time>2022-09-14T06:38:30Z</time>
      </trkpt>
      <trkpt lat="43.13744" lon="0.91319">
        <ele>326</ele>
        <time>2022-09-14T06:38:46Z</time>
      </trkpt>
      <trkpt lat="43.13743" lon="0.91311">
        <ele>326</ele>
        <time>2022-09-14T06:38:52Z</time>
      </trkpt>
      <trkpt lat="43.13741" lon="0.91297">
        <ele>325</ele>
        <time>2022-09-14T06:39:02Z</time>
      </trkpt>
      <trkpt lat="43.13735" lon="0.91254">
        <ele>321</ele>
        <time>2022-09-14T06:39:34Z</time>
      </trkpt>
      <trkpt lat="43.13731" lon="0.91239">
        <ele>319</ele>
        <time>2022-09-14T06:39:47Z</time>
      </trkpt>
      <trkpt lat="43.13726" lon="0.91229">
        <ele>317</ele>
        <time>2022-09-14T06:39:57Z</time>
      </trkpt>
      <trkpt lat="43.13721" lon="0.91211">
        <ele>315</ele>
        <time>2022-09-14T06:40:40Z</time>
      </trkpt>
      <trkpt lat="43.13703" lon="0.91175">
        <ele>311</ele>
        <time>2022-09-14T06:41:12Z</time>
      </trkpt>
      <trkpt lat="43.13701" lon="0.91168">
        <ele>310</ele>
        <time>2022-09-14T06:41:17Z</time>
      </trkpt>
      <trkpt lat="43.13683" lon="0.91175">
        <ele>310</ele>
        <time>2022-09-14T06:41:39Z</time>
      </trkpt>
      <trkpt lat="43.13679" lon="0.91176">
        <ele>310</ele>
        <time>2022-09-14T06:41:42Z</time>
      </trkpt>
      <trkpt lat="43.13674" lon="0.91171">
        <ele>309</ele>
        <time>2022-09-14T06:41:46Z</time>
      </trkpt>
      <trkpt lat="43.13672" lon="0.9116">
        <ele>309</ele>
        <time>2022-09-14T06:41:54Z</time>
      </trkpt>
      <trkpt lat="43.13674" lon="0.91147">
        <ele>309</ele>
        <time>2022-09-14T06:42:03Z</time>
      </trkpt>
      <trkpt lat="43.13677" lon="0.91142">
        <ele>309</ele>
        <time>2022-09-14T06:42:14Z</time>
      </trkpt>
      <trkpt lat="43.13675" lon="0.91136">
        <ele>309</ele>
        <time>2022-09-14T06:42:26Z</time>
      </trkpt>
      <trkpt lat="43.13676" lon="0.9113">
        <ele>309</ele>
        <time>2022-09-14T06:42:31Z</time>
      </trkpt>
      <trkpt lat="43.1367" lon="0.9113">
        <ele>307</ele>
        <time>2022-09-14T06:43:25Z</time>
      </trkpt>
      <trkpt lat="43.1366" lon="0.91129">
        <ele>307</ele>
        <time>2022-09-14T06:43:35Z</time>
      </trkpt>
      <trkpt lat="43.13655" lon="0.91124">
        <ele>307</ele>
        <time>2022-09-14T06:43:41Z</time>
      </trkpt>
      <trkpt lat="43.13648" lon="0.91113">
        <ele>307</ele>
        <time>2022-09-14T06:43:48Z</time>
      </trkpt>
      <trkpt lat="43.13647" lon="0.91107">
        <ele>307</ele>
        <time>2022-09-14T06:43:51Z</time>
      </trkpt>
      <trkpt lat="43.13645" lon="0.91092">
        <ele>307</ele>
        <time>2022-09-14T06:44:00Z</time>
      </trkpt>
      <trkpt lat="43.13646" lon="0.91077">
        <ele>307</ele>
        <time>2022-09-14T06:44:09Z</time>
      </trkpt>
      <trkpt lat="43.13648" lon="0.91071">
        <ele>307</ele>
        <time>2022-09-14T06:44:14Z</time>
      </trkpt>
      <trkpt lat="43.13655" lon="0.91033">
        <ele>307</ele>
        <time>2022-09-14T06:44:37Z</time>
      </trkpt>
      <trkpt lat="43.13654" lon="0.91015">
        <ele>307</ele>
        <time>2022-09-14T06:44:48Z</time>
      </trkpt>
      <trkpt lat="43.13658" lon="0.91">
        <ele>307</ele>
        <time>2022-09-14T06:44:57Z</time>
      </trkpt>
      <trkpt lat="43.13658" lon="0.90992">
        <ele>307</ele>
        <time>2022-09-14T06:45:01Z</time>
      </trkpt>
      <trkpt lat="43.13665" lon="0.90968">
        <ele>307</ele>
        <time>2022-09-14T06:45:20Z</time>
      </trkpt>
      <trkpt lat="43.13676" lon="0.90949">
        <ele>307</ele>
        <time>2022-09-14T06:45:35Z</time>
      </trkpt>
      <trkpt lat="43.13677" lon="0.90941">
        <ele>307</ele>
        <time>2022-09-14T06:45:39Z</time>
      </trkpt>
      <trkpt lat="43.13681" lon="0.90936">
        <ele>307</ele>
        <time>2022-09-14T06:45:42Z</time>
      </trkpt>
      <trkpt lat="43.13683" lon="0.9093">
        <ele>307</ele>
        <time>2022-09-14T06:45:46Z</time>
      </trkpt>
      <trkpt lat="43.13686" lon="0.90925">
        <ele>307</ele>
        <time>2022-09-14T06:45:49Z</time>
      </trkpt>
      <trkpt lat="43.13696" lon="0.90913">
        <ele>308</ele>
        <time>2022-09-14T06:46:03Z</time>
      </trkpt>
      <trkpt lat="43.13698" lon="0.90907">
        <ele>308</ele>
        <time>2022-09-14T06:46:07Z</time>
      </trkpt>
      <trkpt lat="43.13702" lon="0.90903">
        <ele>308</ele>
        <time>2022-09-14T06:46:12Z</time>
      </trkpt>
      <trkpt lat="43.13708" lon="0.90885">
        <ele>308</ele>
        <time>2022-09-14T06:46:27Z</time>
      </trkpt>
      <trkpt lat="43.1371" lon="0.90869">
        <ele>309</ele>
        <time>2022-09-14T06:46:40Z</time>
      </trkpt>
      <trkpt lat="43.1371" lon="0.90862">
        <ele>309</ele>
        <time>2022-09-14T06:46:45Z</time>
      </trkpt>
      <trkpt lat="43.13709" lon="0.90855">
        <ele>309</ele>
        <time>2022-09-14T06:46:49Z</time>
      </trkpt>
      <trkpt lat="43.1371" lon="0.90838">
        <ele>309</ele>
        <time>2022-09-14T06:47:04Z</time>
      </trkpt>
      <trkpt lat="43.13708" lon="0.9083">
        <ele>309</ele>
        <time>2022-09-14T06:47:15Z</time>
      </trkpt>
      <trkpt lat="43.13708" lon="0.90823">
        <ele>309</ele>
        <time>2022-09-14T06:47:20Z</time>
      </trkpt>
      <trkpt lat="43.13705" lon="0.9081">
        <ele>309</ele>
        <time>2022-09-14T06:47:29Z</time>
      </trkpt>
      <trkpt lat="43.13701" lon="0.90759">
        <ele>309</ele>
        <time>2022-09-14T06:48:04Z</time>
      </trkpt>
      <trkpt lat="43.13702" lon="0.90728">
        <ele>309</ele>
        <time>2022-09-14T06:48:24Z</time>
      </trkpt>
      <trkpt lat="43.13709" lon="0.90694">
        <ele>309</ele>
        <time>2022-09-14T06:48:46Z</time>
      </trkpt>
      <trkpt lat="43.13711" lon="0.90661">
        <ele>309</ele>
        <time>2022-09-14T06:49:08Z</time>
      </trkpt>
      <trkpt lat="43.1371" lon="0.90654">
        <ele>309</ele>
        <time>2022-09-14T06:49:13Z</time>
      </trkpt>
      <trkpt lat="43.13712" lon="0.90637">
        <ele>310</ele>
        <time>2022-09-14T06:49:26Z</time>
      </trkpt>
      <trkpt lat="43.1371" lon="0.90628">
        <ele>310</ele>
        <time>2022-09-14T06:49:32Z</time>
      </trkpt>
      <trkpt lat="43.13709" lon="0.9061">
        <ele>310</ele>
        <time>2022-09-14T06:49:46Z</time>
      </trkpt>
      <trkpt lat="43.1371" lon="0.90602">
        <ele>309</ele>
        <time>2022-09-14T06:49:52Z</time>
      </trkpt>
      <trkpt lat="43.13714" lon="0.90591">
        <ele>309</ele>
        <time>2022-09-14T06:50:02Z</time>
      </trkpt>
      <trkpt lat="43.13726" lon="0.90568">
        <ele>310</ele>
        <time>2022-09-14T06:50:21Z</time>
      </trkpt>
      <trkpt lat="43.13734" lon="0.9055">
        <ele>309</ele>
        <time>2022-09-14T06:50:35Z</time>
      </trkpt>
      <trkpt lat="43.13738" lon="0.90543">
        <ele>309</ele>
        <time>2022-09-14T06:50:41Z</time>
      </trkpt>
      <trkpt lat="43.13763" lon="0.90517">
        <ele>310</ele>
        <time>2022-09-14T06:51:08Z</time>
      </trkpt>
      <trkpt lat="43.13768" lon="0.90516">
        <ele>310</ele>
        <time>2022-09-14T06:51:13Z</time>
      </trkpt>
      <trkpt lat="43.13782" lon="0.90503">
        <ele>311</ele>
        <time>2022-09-14T06:51:35Z</time>
      </trkpt>
      <trkpt lat="43.13785" lon="0.90496">
        <ele>312</ele>
        <time>2022-09-14T06:51:39Z</time>
      </trkpt>
      <trkpt lat="43.13792" lon="0.90469">
        <ele>313</ele>
        <time>2022-09-14T06:52:00Z</time>
      </trkpt>
      <trkpt lat="43.13792" lon="0.90462">
        <ele>313</ele>
        <time>2022-09-14T06:52:06Z</time>
      </trkpt>
      <trkpt lat="43.13795" lon="0.90456">
        <ele>314</ele>
        <time>2022-09-14T06:52:11Z</time>
      </trkpt>
      <trkpt lat="43.13797" lon="0.90446">
        <ele>314</ele>
        <time>2022-09-14T06:52:18Z</time>
      </trkpt>
      <trkpt lat="43.13801" lon="0.90433">
        <ele>314</ele>
        <time>2022-09-14T06:52:29Z</time>
      </trkpt>
      <trkpt lat="43.13803" lon="0.90415">
        <ele>315</ele>
        <time>2022-09-14T06:52:43Z</time>
      </trkpt>
      <trkpt lat="43.13805" lon="0.90408">
        <ele>315</ele>
        <time>2022-09-14T06:52:48Z</time>
      </trkpt>
      <trkpt lat="43.13806" lon="0.90393">
        <ele>316</ele>
        <time>2022-09-14T06:52:58Z</time>
      </trkpt>
      <trkpt lat="43.13809" lon="0.90386">
        <ele>316</ele>
        <time>2022-09-14T06:53:03Z</time>
      </trkpt>
      <trkpt lat="43.13814" lon="0.90362">
        <ele>316</ele>
        <time>2022-09-14T06:53:21Z</time>
      </trkpt>
      <trkpt lat="43.13816" lon="0.90355">
        <ele>316</ele>
        <time>2022-09-14T06:53:32Z</time>
      </trkpt>
      <trkpt lat="43.13827" lon="0.90329">
        <ele>317</ele>
        <time>2022-09-14T06:53:56Z</time>
      </trkpt>
      <trkpt lat="43.13834" lon="0.90283">
        <ele>319</ele>
        <time>2022-09-14T06:54:33Z</time>
      </trkpt>
      <trkpt lat="43.13837" lon="0.90266">
        <ele>320</ele>
        <time>2022-09-14T06:54:46Z</time>
      </trkpt>
      <trkpt lat="43.13836" lon="0.90259">
        <ele>320</ele>
        <time>2022-09-14T06:54:51Z</time>
      </trkpt>
      <trkpt lat="43.13837" lon="0.90252">
        <ele>320</ele>
        <time>2022-09-14T06:54:57Z</time>
      </trkpt>
      <trkpt lat="43.1384" lon="0.90214">
        <ele>321</ele>
        <time>2022-09-14T06:55:26Z</time>
      </trkpt>
      <trkpt lat="43.13843" lon="0.902">
        <ele>321</ele>
        <time>2022-09-14T06:55:37Z</time>
      </trkpt>
      <trkpt lat="43.13848" lon="0.90188">
        <ele>322</ele>
        <time>2022-09-14T06:55:49Z</time>
      </trkpt>
      <trkpt lat="43.13852" lon="0.9017">
        <ele>323</ele>
        <time>2022-09-14T06:56:05Z</time>
      </trkpt>
      <trkpt lat="43.13853" lon="0.90156">
        <ele>324</ele>
        <time>2022-09-14T06:56:16Z</time>
      </trkpt>
      <trkpt lat="43.13852" lon="0.9015">
        <ele>324</ele>
        <time>2022-09-14T06:56:24Z</time>
      </trkpt>
      <trkpt lat="43.13835" lon="0.9013">
        <ele>326</ele>
        <time>2022-09-14T06:56:55Z</time>
      </trkpt>
      <trkpt lat="43.1383" lon="0.90123">
        <ele>327</ele>
        <time>2022-09-14T06:57:03Z</time>
      </trkpt>
      <trkpt lat="43.13825" lon="0.9012">
        <ele>327</ele>
        <time>2022-09-14T06:57:09Z</time>
      </trkpt>
      <trkpt lat="43.13825" lon="0.90112">
        <ele>328</ele>
        <time>2022-09-14T06:57:14Z</time>
      </trkpt>
      <trkpt lat="43.13827" lon="0.90105">
        <ele>328</ele>
        <time>2022-09-14T06:57:35Z</time>
      </trkpt>
      <trkpt lat="43.13822" lon="0.90104">
        <ele>328</ele>
        <time>2022-09-14T06:58:23Z</time>
      </trkpt>
      <trkpt lat="43.13827" lon="0.90091">
        <ele>329</ele>
        <time>2022-09-14T06:58:38Z</time>
      </trkpt>
      <trkpt lat="43.1383" lon="0.9007">
        <ele>332</ele>
        <time>2022-09-14T06:59:01Z</time>
      </trkpt>
      <trkpt lat="43.13834" lon="0.90061">
        <ele>333</ele>
        <time>2022-09-14T06:59:13Z</time>
      </trkpt>
      <trkpt lat="43.13837" lon="0.90044">
        <ele>335</ele>
        <time>2022-09-14T06:59:29Z</time>
      </trkpt>
      <trkpt lat="43.13843" lon="0.9003">
        <ele>337</ele>
        <time>2022-09-14T06:59:51Z</time>
      </trkpt>
      <trkpt lat="43.13849" lon="0.9001">
        <ele>340</ele>
        <time>2022-09-14T07:00:21Z</time>
      </trkpt>
      <trkpt lat="43.13853" lon="0.9">
        <ele>342</ele>
        <time>2022-09-14T07:00:33Z</time>
      </trkpt>
      <trkpt lat="43.13858" lon="0.89981">
        <ele>344</ele>
        <time>2022-09-14T07:00:57Z</time>
      </trkpt>
      <trkpt lat="43.13867" lon="0.89953">
        <ele>349</ele>
        <time>2022-09-14T07:01:32Z</time>
      </trkpt>
      <trkpt lat="43.13869" lon="0.89948">
        <ele>349</ele>
        <time>2022-09-14T07:01:39Z</time>
      </trkpt>
      <trkpt lat="43.13872" lon="0.89926">
        <ele>352</ele>
        <time>2022-09-14T07:02:04Z</time>
      </trkpt>
      <trkpt lat="43.13873" lon="0.89916">
        <ele>353</ele>
        <time>2022-09-14T07:02:16Z</time>
      </trkpt>
      <trkpt lat="43.13875" lon="0.8991">
        <ele>353</ele>
        <time>2022-09-14T07:02:22Z</time>
      </trkpt>
      <trkpt lat="43.13878" lon="0.89879">
        <ele>354</ele>
        <time>2022-09-14T07:02:49Z</time>
      </trkpt>
      <trkpt lat="43.13883" lon="0.89859">
        <ele>355</ele>
        <time>2022-09-14T07:03:03Z</time>
      </trkpt>
      <trkpt lat="43.13886" lon="0.89833">
        <ele>356</ele>
        <time>2022-09-14T07:03:22Z</time>
      </trkpt>
      <trkpt lat="43.13887" lon="0.89827">
        <ele>356</ele>
        <time>2022-09-14T07:03:26Z</time>
      </trkpt>
      <trkpt lat="43.13887" lon="0.89821">
        <ele>356</ele>
        <time>2022-09-14T07:03:30Z</time>
      </trkpt>
      <trkpt lat="43.13885" lon="0.89808">
        <ele>356</ele>
        <time>2022-09-14T07:03:38Z</time>
      </trkpt>
      <trkpt lat="43.13886" lon="0.89801">
        <ele>356</ele>
        <time>2022-09-14T07:03:42Z</time>
      </trkpt>
      <trkpt lat="43.13886" lon="0.89795">
        <ele>356</ele>
        <time>2022-09-14T07:03:46Z</time>
      </trkpt>
      <trkpt lat="43.13885" lon="0.89763">
        <ele>355</ele>
        <time>2022-09-14T07:04:12Z</time>
      </trkpt>
      <trkpt lat="43.13883" lon="0.8974">
        <ele>354</ele>
        <time>2022-09-14T07:04:27Z</time>
      </trkpt>
      <trkpt lat="43.13882" lon="0.89707">
        <ele>353</ele>
        <time>2022-09-14T07:04:54Z</time>
      </trkpt>
      <trkpt lat="43.13884" lon="0.897">
        <ele>353</ele>
        <time>2022-09-14T07:04:59Z</time>
      </trkpt>
      <trkpt lat="43.13891" lon="0.89665">
        <ele>353</ele>
        <time>2022-09-14T07:05:21Z</time>
      </trkpt>
      <trkpt lat="43.13894" lon="0.8966">
        <ele>353</ele>
        <time>2022-09-14T07:05:25Z</time>
      </trkpt>
      <trkpt lat="43.139" lon="0.89641">
        <ele>354</ele>
        <time>2022-09-14T07:05:38Z</time>
      </trkpt>
      <trkpt lat="43.13903" lon="0.89636">
        <ele>354</ele>
        <time>2022-09-14T07:05:42Z</time>
      </trkpt>
      <trkpt lat="43.13906" lon="0.89633">
        <ele>354</ele>
        <time>2022-09-14T07:05:46Z</time>
      </trkpt>
      <trkpt lat="43.1391" lon="0.89625">
        <ele>354</ele>
        <time>2022-09-14T07:05:54Z</time>
      </trkpt>
      <trkpt lat="43.13913" lon="0.89623">
        <ele>354</ele>
        <time>2022-09-14T07:06:07Z</time>
      </trkpt>
      <trkpt lat="43.13915" lon="0.89616">
        <ele>354</ele>
        <time>2022-09-14T07:06:24Z</time>
      </trkpt>
      <trkpt lat="43.13917" lon="0.89592">
        <ele>355</ele>
        <time>2022-09-14T07:06:38Z</time>
      </trkpt>
      <trkpt lat="43.13915" lon="0.8958">
        <ele>355</ele>
        <time>2022-09-14T07:06:46Z</time>
      </trkpt>
      <trkpt lat="43.1392" lon="0.89551">
        <ele>357</ele>
        <time>2022-09-14T07:07:08Z</time>
      </trkpt>
      <trkpt lat="43.13922" lon="0.89545">
        <ele>358</ele>
        <time>2022-09-14T07:07:12Z</time>
      </trkpt>
      <trkpt lat="43.13923" lon="0.8954">
        <ele>358</ele>
        <time>2022-09-14T07:07:16Z</time>
      </trkpt>
      <trkpt lat="43.1393" lon="0.89522">
        <ele>358</ele>
        <time>2022-09-14T07:07:31Z</time>
      </trkpt>
      <trkpt lat="43.1393" lon="0.89517">
        <ele>358</ele>
        <time>2022-09-14T07:07:34Z</time>
      </trkpt>
      <trkpt lat="43.13938" lon="0.89491">
        <ele>359</ele>
        <time>2022-09-14T07:07:52Z</time>
      </trkpt>
      <trkpt lat="43.13941" lon="0.89475">
        <ele>360</ele>
        <time>2022-09-14T07:08:04Z</time>
      </trkpt>
      <trkpt lat="43.13954" lon="0.89445">
        <ele>360</ele>
        <time>2022-09-14T07:08:28Z</time>
      </trkpt>
      <trkpt lat="43.13956" lon="0.89437">
        <ele>361</ele>
        <time>2022-09-14T07:08:34Z</time>
      </trkpt>
      <trkpt lat="43.1396" lon="0.89427">
        <ele>361</ele>
        <time>2022-09-14T07:08:42Z</time>
      </trkpt>
      <trkpt lat="43.13964" lon="0.89424">
        <ele>361</ele>
        <time>2022-09-14T07:08:45Z</time>
      </trkpt>
      <trkpt lat="43.13965" lon="0.89419">
        <ele>361</ele>
        <time>2022-09-14T07:08:49Z</time>
      </trkpt>
      <trkpt lat="43.13968" lon="0.89415">
        <ele>361</ele>
        <time>2022-09-14T07:08:52Z</time>
      </trkpt>
      <trkpt lat="43.13973" lon="0.89401">
        <ele>361</ele>
        <time>2022-09-14T07:09:02Z</time>
      </trkpt>
      <trkpt lat="43.13975" lon="0.89398">
        <ele>362</ele>
        <time>2022-09-14T07:09:06Z</time>
      </trkpt>
      <trkpt lat="43.13976" lon="0.89391">
        <ele>362</ele>
        <time>2022-09-14T07:09:12Z</time>
      </trkpt>
      <trkpt lat="43.13991" lon="0.89357">
        <ele>362</ele>
        <time>2022-09-14T07:09:39Z</time>
      </trkpt>
      <trkpt lat="43.14018" lon="0.89313">
        <ele>361</ele>
        <time>2022-09-14T07:10:14Z</time>
      </trkpt>
      <trkpt lat="43.14021" lon="0.89309">
        <ele>361</ele>
        <time>2022-09-14T07:10:18Z</time>
      </trkpt>
      <trkpt lat="43.14027" lon="0.89299">
        <ele>361</ele>
        <time>2022-09-14T07:10:27Z</time>
      </trkpt>
      <trkpt lat="43.14027" lon="0.89293">
        <ele>361</ele>
        <time>2022-09-14T07:10:31Z</time>
      </trkpt>
      <trkpt lat="43.14035" lon="0.89277">
        <ele>361</ele>
        <time>2022-09-14T07:10:42Z</time>
      </trkpt>
      <trkpt lat="43.14047" lon="0.89225">
        <ele>361</ele>
        <time>2022-09-14T07:11:15Z</time>
      </trkpt>
      <trkpt lat="43.14051" lon="0.89171">
        <ele>361</ele>
        <time>2022-09-14T07:11:48Z</time>
      </trkpt>
      <trkpt lat="43.14052" lon="0.89165">
        <ele>362</ele>
        <time>2022-09-14T07:11:52Z</time>
      </trkpt>
      <trkpt lat="43.14053" lon="0.89151">
        <ele>362</ele>
        <time>2022-09-14T07:12:02Z</time>
      </trkpt>
      <trkpt lat="43.14054" lon="0.89145">
        <ele>362</ele>
        <time>2022-09-14T07:12:06Z</time>
      </trkpt>
      <trkpt lat="43.14054" lon="0.89138">
        <ele>362</ele>
        <time>2022-09-14T07:12:10Z</time>
      </trkpt>
      <trkpt lat="43.14059" lon="0.89117">
        <ele>363</ele>
        <time>2022-09-14T07:12:27Z</time>
      </trkpt>
      <trkpt lat="43.14059" lon="0.89112">
        <ele>363</ele>
        <time>2022-09-14T07:12:30Z</time>
      </trkpt>
      <trkpt lat="43.14061" lon="0.89106">
        <ele>363</ele>
        <time>2022-09-14T07:12:34Z</time>
      </trkpt>
      <trkpt lat="43.14063" lon="0.89101">
        <ele>363</ele>
        <time>2022-09-14T07:12:38Z</time>
      </trkpt>
      <trkpt lat="43.1407" lon="0.89087">
        <ele>363</ele>
        <time>2022-09-14T07:12:52Z</time>
      </trkpt>
      <trkpt lat="43.14075" lon="0.89064">
        <ele>363</ele>
        <time>2022-09-14T07:13:07Z</time>
      </trkpt>
      <trkpt lat="43.14075" lon="0.89059">
        <ele>363</ele>
        <time>2022-09-14T07:13:10Z</time>
      </trkpt>
      <trkpt lat="43.14086" lon="0.89026">
        <ele>364</ele>
        <time>2022-09-14T07:13:33Z</time>
      </trkpt>
      <trkpt lat="43.14096" lon="0.8901">
        <ele>365</ele>
        <time>2022-09-14T07:13:47Z</time>
      </trkpt>
      <trkpt lat="43.141" lon="0.89006">
        <ele>365</ele>
        <time>2022-09-14T07:13:53Z</time>
      </trkpt>
      <trkpt lat="43.14103" lon="0.89002">
        <ele>365</ele>
        <time>2022-09-14T07:13:57Z</time>
      </trkpt>
      <trkpt lat="43.14125" lon="0.88988">
        <ele>368</ele>
        <time>2022-09-14T07:14:26Z</time>
      </trkpt>
      <trkpt lat="43.14129" lon="0.88988">
        <ele>369</ele>
        <time>2022-09-14T07:14:30Z</time>
      </trkpt>
      <trkpt lat="43.14129" lon="0.8898">
        <ele>371</ele>
        <time>2022-09-14T07:15:19Z</time>
      </trkpt>
      <trkpt lat="43.14127" lon="0.88978">
        <ele>370</ele>
        <time>2022-09-14T07:15:29Z</time>
      </trkpt>
      <trkpt lat="43.14122" lon="0.8895">
        <ele>370</ele>
        <time>2022-09-14T07:15:48Z</time>
      </trkpt>
      <trkpt lat="43.14121" lon="0.88946">
        <ele>370</ele>
        <time>2022-09-14T07:15:51Z</time>
      </trkpt>
      <trkpt lat="43.14115" lon="0.88919">
        <ele>370</ele>
        <time>2022-09-14T07:16:07Z</time>
      </trkpt>
      <trkpt lat="43.14113" lon="0.88876">
        <ele>370</ele>
        <time>2022-09-14T07:16:32Z</time>
      </trkpt>
      <trkpt lat="43.14114" lon="0.8887">
        <ele>370</ele>
        <time>2022-09-14T07:16:35Z</time>
      </trkpt>
      <trkpt lat="43.14115" lon="0.88866">
        <ele>370</ele>
        <time>2022-09-14T07:16:38Z</time>
      </trkpt>
      <trkpt lat="43.14115" lon="0.8886">
        <ele>370</ele>
        <time>2022-09-14T07:16:42Z</time>
      </trkpt>
      <trkpt lat="43.14115" lon="0.88855">
        <ele>370</ele>
        <time>2022-09-14T07:16:45Z</time>
      </trkpt>
      <trkpt lat="43.14115" lon="0.88849">
        <ele>370</ele>
        <time>2022-09-14T07:16:48Z</time>
      </trkpt>
      <trkpt lat="43.14117" lon="0.88844">
        <ele>370</ele>
        <time>2022-09-14T07:16:51Z</time>
      </trkpt>
      <trkpt lat="43.14119" lon="0.88839">
        <ele>369</ele>
        <time>2022-09-14T07:16:55Z</time>
      </trkpt>
      <trkpt lat="43.14124" lon="0.88818">
        <ele>369</ele>
        <time>2022-09-14T07:17:07Z</time>
      </trkpt>
      <trkpt lat="43.14124" lon="0.88811">
        <ele>369</ele>
        <time>2022-09-14T07:17:11Z</time>
      </trkpt>
      <trkpt lat="43.1413" lon="0.88792">
        <ele>369</ele>
        <time>2022-09-14T07:17:24Z</time>
      </trkpt>
      <trkpt lat="43.14134" lon="0.88767">
        <ele>368</ele>
        <time>2022-09-14T07:17:40Z</time>
      </trkpt>
      <trkpt lat="43.14147" lon="0.88718">
        <ele>366</ele>
        <time>2022-09-14T07:18:11Z</time>
      </trkpt>
      <trkpt lat="43.14152" lon="0.88692">
        <ele>366</ele>
        <time>2022-09-14T07:18:26Z</time>
      </trkpt>
      <trkpt lat="43.14154" lon="0.88666">
        <ele>366</ele>
        <time>2022-09-14T07:18:42Z</time>
      </trkpt>
      <trkpt lat="43.14156" lon="0.88655">
        <ele>366</ele>
        <time>2022-09-14T07:18:49Z</time>
      </trkpt>
      <trkpt lat="43.14156" lon="0.8865">
        <ele>366</ele>
        <time>2022-09-14T07:18:52Z</time>
      </trkpt>
      <trkpt lat="43.1416" lon="0.88636">
        <ele>366</ele>
        <time>2022-09-14T07:19:04Z</time>
      </trkpt>
      <trkpt lat="43.14161" lon="0.88612">
        <ele>367</ele>
        <time>2022-09-14T07:19:18Z</time>
      </trkpt>
      <trkpt lat="43.14166" lon="0.88571">
        <ele>368</ele>
        <time>2022-09-14T07:19:42Z</time>
      </trkpt>
      <trkpt lat="43.14168" lon="0.88558">
        <ele>368</ele>
        <time>2022-09-14T07:19:50Z</time>
      </trkpt>
      <trkpt lat="43.14169" lon="0.88553">
        <ele>368</ele>
        <time>2022-09-14T07:19:53Z</time>
      </trkpt>
      <trkpt lat="43.1417" lon="0.88542">
        <ele>368</ele>
        <time>2022-09-14T07:19:59Z</time>
      </trkpt>
      <trkpt lat="43.14179" lon="0.88497">
        <ele>369</ele>
        <time>2022-09-14T07:20:28Z</time>
      </trkpt>
      <trkpt lat="43.14181" lon="0.88494">
        <ele>369</ele>
        <time>2022-09-14T07:20:31Z</time>
      </trkpt>
      <trkpt lat="43.14195" lon="0.88443">
        <ele>371</ele>
        <time>2022-09-14T07:21:03Z</time>
      </trkpt>
      <trkpt lat="43.14197" lon="0.88438">
        <ele>371</ele>
        <time>2022-09-14T07:21:06Z</time>
      </trkpt>
      <trkpt lat="43.14199" lon="0.88421">
        <ele>371</ele>
        <time>2022-09-14T07:21:17Z</time>
      </trkpt>
      <trkpt lat="43.14207" lon="0.88379">
        <ele>373</ele>
        <time>2022-09-14T07:21:46Z</time>
      </trkpt>
      <trkpt lat="43.1421" lon="0.88357">
        <ele>374</ele>
        <time>2022-09-14T07:22:00Z</time>
      </trkpt>
      <trkpt lat="43.14212" lon="0.88345">
        <ele>375</ele>
        <time>2022-09-14T07:22:09Z</time>
      </trkpt>
      <trkpt lat="43.14212" lon="0.8834">
        <ele>375</ele>
        <time>2022-09-14T07:22:12Z</time>
      </trkpt>
      <trkpt lat="43.14217" lon="0.88323">
        <ele>376</ele>
        <time>2022-09-14T07:22:25Z</time>
      </trkpt>
      <trkpt lat="43.14223" lon="0.88274">
        <ele>379</ele>
        <time>2022-09-14T07:22:58Z</time>
      </trkpt>
      <trkpt lat="43.14227" lon="0.88221">
        <ele>380</ele>
        <time>2022-09-14T07:23:30Z</time>
      </trkpt>
      <trkpt lat="43.1423" lon="0.88188">
        <ele>380</ele>
        <time>2022-09-14T07:24:11Z</time>
      </trkpt>
      <trkpt lat="43.14231" lon="0.88179">
        <ele>379</ele>
        <time>2022-09-14T07:24:23Z</time>
      </trkpt>
      <trkpt lat="43.14235" lon="0.88131">
        <ele>377</ele>
        <time>2022-09-14T07:24:56Z</time>
      </trkpt>
      <trkpt lat="43.14237" lon="0.88103">
        <ele>375</ele>
        <time>2022-09-14T07:25:15Z</time>
      </trkpt>
      <trkpt lat="43.14238" lon="0.88095">
        <ele>375</ele>
        <time>2022-09-14T07:26:45Z</time>
      </trkpt>
      <trkpt lat="43.14238" lon="0.88084">
        <ele>375</ele>
        <time>2022-09-14T07:26:56Z</time>
      </trkpt>
      <trkpt lat="43.14241" lon="0.88066">
        <ele>374</ele>
        <time>2022-09-14T07:27:09Z</time>
      </trkpt>
      <trkpt lat="43.1424" lon="0.88016">
        <ele>371</ele>
        <time>2022-09-14T07:27:41Z</time>
      </trkpt>
      <trkpt lat="43.14235" lon="0.87997">
        <ele>370</ele>
        <time>2022-09-14T07:27:53Z</time>
      </trkpt>
      <trkpt lat="43.14233" lon="0.87993">
        <ele>369</ele>
        <time>2022-09-14T07:27:56Z</time>
      </trkpt>
      <trkpt lat="43.14228" lon="0.87983">
        <ele>368</ele>
        <time>2022-09-14T07:28:04Z</time>
      </trkpt>
      <trkpt lat="43.1421" lon="0.87954">
        <ele>366</ele>
        <time>2022-09-14T07:28:29Z</time>
      </trkpt>
      <trkpt lat="43.14179" lon="0.87928">
        <ele>364</ele>
        <time>2022-09-14T07:29:01Z</time>
      </trkpt>
      <trkpt lat="43.14147" lon="0.87892">
        <ele>361</ele>
        <time>2022-09-14T07:29:32Z</time>
      </trkpt>
      <trkpt lat="43.14138" lon="0.8788">
        <ele>360</ele>
        <time>2022-09-14T07:29:43Z</time>
      </trkpt>
      <trkpt lat="43.14136" lon="0.87873">
        <ele>360</ele>
        <time>2022-09-14T07:29:47Z</time>
      </trkpt>
      <trkpt lat="43.14136" lon="0.87867">
        <ele>360</ele>
        <time>2022-09-14T07:29:49Z</time>
      </trkpt>
      <trkpt lat="43.14134" lon="0.87862">
        <ele>360</ele>
        <time>2022-09-14T07:29:53Z</time>
      </trkpt>
      <trkpt lat="43.14131" lon="0.87833">
        <ele>360</ele>
        <time>2022-09-14T07:30:10Z</time>
      </trkpt>
      <trkpt lat="43.14132" lon="0.87809">
        <ele>360</ele>
        <time>2022-09-14T07:30:23Z</time>
      </trkpt>
      <trkpt lat="43.14136" lon="0.87798">
        <ele>361</ele>
        <time>2022-09-14T07:30:30Z</time>
      </trkpt>
      <trkpt lat="43.14138" lon="0.87781">
        <ele>362</ele>
        <time>2022-09-14T07:30:40Z</time>
      </trkpt>
      <trkpt lat="43.1414" lon="0.87776">
        <ele>362</ele>
        <time>2022-09-14T07:30:44Z</time>
      </trkpt>
      <trkpt lat="43.1414" lon="0.87771">
        <ele>362</ele>
        <time>2022-09-14T07:30:48Z</time>
      </trkpt>
      <trkpt lat="43.14142" lon="0.87763">
        <ele>363</ele>
        <time>2022-09-14T07:30:55Z</time>
      </trkpt>
      <trkpt lat="43.14143" lon="0.87742">
        <ele>364</ele>
        <time>2022-09-14T07:31:11Z</time>
      </trkpt>
      <trkpt lat="43.14141" lon="0.87735">
        <ele>364</ele>
        <time>2022-09-14T07:31:15Z</time>
      </trkpt>
      <trkpt lat="43.14144" lon="0.87706">
        <ele>365</ele>
        <time>2022-09-14T07:31:36Z</time>
      </trkpt>
      <trkpt lat="43.14146" lon="0.87701">
        <ele>365</ele>
        <time>2022-09-14T07:31:40Z</time>
      </trkpt>
      <trkpt lat="43.14157" lon="0.87661">
        <ele>365</ele>
        <time>2022-09-14T07:32:11Z</time>
      </trkpt>
      <trkpt lat="43.1416" lon="0.87656">
        <ele>365</ele>
        <time>2022-09-14T07:32:14Z</time>
      </trkpt>
      <trkpt lat="43.14162" lon="0.87644">
        <ele>365</ele>
        <time>2022-09-14T07:32:22Z</time>
      </trkpt>
      <trkpt lat="43.14162" lon="0.87638">
        <ele>365</ele>
        <time>2022-09-14T07:32:26Z</time>
      </trkpt>
      <trkpt lat="43.14168" lon="0.87614">
        <ele>365</ele>
        <time>2022-09-14T07:32:42Z</time>
      </trkpt>
      <trkpt lat="43.14174" lon="0.87608">
        <ele>365</ele>
        <time>2022-09-14T07:33:02Z</time>
      </trkpt>
      <trkpt lat="43.14177" lon="0.87604">
        <ele>365</ele>
        <time>2022-09-14T07:33:05Z</time>
      </trkpt>
      <trkpt lat="43.14203" lon="0.87582">
        <ele>366</ele>
        <time>2022-09-14T07:33:32Z</time>
      </trkpt>
      <trkpt lat="43.14206" lon="0.87577">
        <ele>366</ele>
        <time>2022-09-14T07:33:36Z</time>
      </trkpt>
      <trkpt lat="43.14214" lon="0.8756">
        <ele>366</ele>
        <time>2022-09-14T07:33:48Z</time>
      </trkpt>
      <trkpt lat="43.14217" lon="0.87548">
        <ele>366</ele>
        <time>2022-09-14T07:33:56Z</time>
      </trkpt>
      <trkpt lat="43.14237" lon="0.87502">
        <ele>366</ele>
        <time>2022-09-14T07:34:29Z</time>
      </trkpt>
      <trkpt lat="43.14239" lon="0.87496">
        <ele>366</ele>
        <time>2022-09-14T07:34:33Z</time>
      </trkpt>
      <trkpt lat="43.14243" lon="0.87493">
        <ele>366</ele>
        <time>2022-09-14T07:34:37Z</time>
      </trkpt>
      <trkpt lat="43.14246" lon="0.87489">
        <ele>365</ele>
        <time>2022-09-14T07:34:45Z</time>
      </trkpt>
      <trkpt lat="43.14246" lon="0.87477">
        <ele>366</ele>
        <time>2022-09-14T07:34:58Z</time>
      </trkpt>
      <trkpt lat="43.14243" lon="0.87475">
        <ele>366</ele>
        <time>2022-09-14T07:35:29Z</time>
      </trkpt>
      <trkpt lat="43.14247" lon="0.87451">
        <ele>366</ele>
        <time>2022-09-14T07:35:53Z</time>
      </trkpt>
      <trkpt lat="43.14247" lon="0.87436">
        <ele>366</ele>
        <time>2022-09-14T07:36:04Z</time>
      </trkpt>
      <trkpt lat="43.14241" lon="0.87426">
        <ele>366</ele>
        <time>2022-09-14T07:36:28Z</time>
      </trkpt>
      <trkpt lat="43.1424" lon="0.8742">
        <ele>365</ele>
        <time>2022-09-14T07:36:36Z</time>
      </trkpt>
      <trkpt lat="43.14238" lon="0.87414">
        <ele>365</ele>
        <time>2022-09-14T07:37:08Z</time>
      </trkpt>
      <trkpt lat="43.14235" lon="0.8741">
        <ele>364</ele>
        <time>2022-09-14T07:37:20Z</time>
      </trkpt>
      <trkpt lat="43.14233" lon="0.87408">
        <ele>363</ele>
        <time>2022-09-14T07:38:07Z</time>
      </trkpt>
      <trkpt lat="43.14224" lon="0.87409">
        <ele>363</ele>
        <time>2022-09-14T07:38:14Z</time>
      </trkpt>
      <trkpt lat="43.14193" lon="0.874">
        <ele>361</ele>
        <time>2022-09-14T07:38:46Z</time>
      </trkpt>
      <trkpt lat="43.14179" lon="0.87397">
        <ele>360</ele>
        <time>2022-09-14T07:38:58Z</time>
      </trkpt>
      <trkpt lat="43.14175" lon="0.87395">
        <ele>360</ele>
        <time>2022-09-14T07:39:02Z</time>
      </trkpt>
      <trkpt lat="43.14171" lon="0.87395">
        <ele>360</ele>
        <time>2022-09-14T07:39:05Z</time>
      </trkpt>
      <trkpt lat="43.14156" lon="0.8739">
        <ele>359</ele>
        <time>2022-09-14T07:39:21Z</time>
      </trkpt>
      <trkpt lat="43.14137" lon="0.87389">
        <ele>358</ele>
        <time>2022-09-14T07:39:40Z</time>
      </trkpt>
      <trkpt lat="43.14127" lon="0.87385">
        <ele>357</ele>
        <time>2022-09-14T07:39:48Z</time>
      </trkpt>
      <trkpt lat="43.14125" lon="0.87376">
        <ele>357</ele>
        <time>2022-09-14T07:39:55Z</time>
      </trkpt>
      <trkpt lat="43.14126" lon="0.87379">
        <ele>357</ele>
        <time>2022-09-14T07:40:33Z</time>
      </trkpt>
      <trkpt lat="43.1412" lon="0.87405">
        <ele>357</ele>
        <time>2022-09-14T07:40:58Z</time>
      </trkpt>
      <trkpt lat="43.14121" lon="0.87411">
        <ele>357</ele>
        <time>2022-09-14T07:41:10Z</time>
      </trkpt>
      <trkpt lat="43.14126" lon="0.87416">
        <ele>357</ele>
        <time>2022-09-14T07:41:27Z</time>
      </trkpt>
      <trkpt lat="43.14125" lon="0.87435">
        <ele>357</ele>
        <time>2022-09-14T07:41:53Z</time>
      </trkpt>
      <trkpt lat="43.14129" lon="0.87434">
        <ele>357</ele>
        <time>2022-09-14T07:42:17Z</time>
      </trkpt>
      <trkpt lat="43.14134" lon="0.87434">
        <ele>358</ele>
        <time>2022-09-14T07:42:37Z</time>
      </trkpt>
      <trkpt lat="43.14138" lon="0.87438">
        <ele>358</ele>
        <time>2022-09-14T07:43:18Z</time>
      </trkpt>
      <trkpt lat="43.14141" lon="0.87442">
        <ele>358</ele>
        <time>2022-09-14T07:43:22Z</time>
      </trkpt>
      <trkpt lat="43.14144" lon="0.87436">
        <ele>359</ele>
        <time>2022-09-14T07:43:48Z</time>
      </trkpt>
      <trkpt lat="43.14145" lon="0.87429">
        <ele>359</ele>
        <time>2022-09-14T07:44:18Z</time>
      </trkpt>
      <trkpt lat="43.14147" lon="0.87423">
        <ele>359</ele>
        <time>2022-09-14T07:44:24Z</time>
      </trkpt>
      <trkpt lat="43.14144" lon="0.87419">
        <ele>359</ele>
        <time>2022-09-14T07:44:30Z</time>
      </trkpt>
      <trkpt lat="43.1412" lon="0.87412">
        <ele>359</ele>
        <time>2022-09-14T07:44:56Z</time>
      </trkpt>
      <trkpt lat="43.14118" lon="0.87389">
        <ele>360</ele>
        <time>2022-09-14T07:45:14Z</time>
      </trkpt>
      <trkpt lat="43.1412" lon="0.87381">
        <ele>360</ele>
        <time>2022-09-14T07:45:19Z</time>
      </trkpt>
      <trkpt lat="43.14125" lon="0.8737">
        <ele>360</ele>
        <time>2022-09-14T07:45:32Z</time>
      </trkpt>
      <trkpt lat="43.14131" lon="0.87366">
        <ele>360</ele>
        <time>2022-09-14T07:45:43Z</time>
      </trkpt>
      <trkpt lat="43.14134" lon="0.87353">
        <ele>359</ele>
        <time>2022-09-14T07:45:56Z</time>
      </trkpt>
      <trkpt lat="43.14136" lon="0.87348">
        <ele>357</ele>
        <time>2022-09-14T07:49:01Z</time>
      </trkpt>
      <trkpt lat="43.14139" lon="0.87355">
        <ele>360</ele>
        <time>2022-09-14T07:58:30Z</time>
      </trkpt>
      <trkpt lat="43.14138" lon="0.87361">
        <ele>360</ele>
        <time>2022-09-14T07:58:35Z</time>
      </trkpt>
      <trkpt lat="43.14133" lon="0.87373">
        <ele>360</ele>
        <time>2022-09-14T07:58:44Z</time>
      </trkpt>
      <trkpt lat="43.14132" lon="0.87369">
        <ele>361</ele>
        <time>2022-09-14T07:59:29Z</time>
      </trkpt>
      <trkpt lat="43.14138" lon="0.87368">
        <ele>361</ele>
        <time>2022-09-14T07:59:37Z</time>
      </trkpt>
      <trkpt lat="43.14174" lon="0.8739">
        <ele>363</ele>
        <time>2022-09-14T08:00:09Z</time>
      </trkpt>
      <trkpt lat="43.14183" lon="0.87394">
        <ele>363</ele>
        <time>2022-09-14T08:00:16Z</time>
      </trkpt>
      <trkpt lat="43.14206" lon="0.87399">
        <ele>364</ele>
        <time>2022-09-14T08:00:36Z</time>
      </trkpt>
      <trkpt lat="43.14211" lon="0.87403">
        <ele>364</ele>
        <time>2022-09-14T08:00:45Z</time>
      </trkpt>
      <trkpt lat="43.14226" lon="0.87404">
        <ele>365</ele>
        <time>2022-09-14T08:01:04Z</time>
      </trkpt>
      <trkpt lat="43.14236" lon="0.87407">
        <ele>365</ele>
        <time>2022-09-14T08:01:12Z</time>
      </trkpt>
      <trkpt lat="43.14242" lon="0.87411">
        <ele>365</ele>
        <time>2022-09-14T08:01:19Z</time>
      </trkpt>
      <trkpt lat="43.14251" lon="0.87445">
        <ele>367</ele>
        <time>2022-09-14T08:01:43Z</time>
      </trkpt>
      <trkpt lat="43.14252" lon="0.87452">
        <ele>367</ele>
        <time>2022-09-14T08:01:47Z</time>
      </trkpt>
      <trkpt lat="43.14251" lon="0.8746">
        <ele>367</ele>
        <time>2022-09-14T08:01:52Z</time>
      </trkpt>
      <trkpt lat="43.14249" lon="0.87466">
        <ele>367</ele>
        <time>2022-09-14T08:01:56Z</time>
      </trkpt>
      <trkpt lat="43.14246" lon="0.8747">
        <ele>367</ele>
        <time>2022-09-14T08:02:01Z</time>
      </trkpt>
      <trkpt lat="43.14244" lon="0.87479">
        <ele>367</ele>
        <time>2022-09-14T08:02:19Z</time>
      </trkpt>
      <trkpt lat="43.14245" lon="0.87485">
        <ele>367</ele>
        <time>2022-09-14T08:02:24Z</time>
      </trkpt>
      <trkpt lat="43.14244" lon="0.87491">
        <ele>367</ele>
        <time>2022-09-14T08:02:28Z</time>
      </trkpt>
      <trkpt lat="43.14242" lon="0.87497">
        <ele>367</ele>
        <time>2022-09-14T08:02:31Z</time>
      </trkpt>
      <trkpt lat="43.14241" lon="0.87502">
        <ele>367</ele>
        <time>2022-09-14T08:02:36Z</time>
      </trkpt>
      <trkpt lat="43.14235" lon="0.87514">
        <ele>367</ele>
        <time>2022-09-14T08:02:44Z</time>
      </trkpt>
      <trkpt lat="43.14224" lon="0.87541">
        <ele>367</ele>
        <time>2022-09-14T08:03:02Z</time>
      </trkpt>
      <trkpt lat="43.14221" lon="0.87545">
        <ele>367</ele>
        <time>2022-09-14T08:03:06Z</time>
      </trkpt>
      <trkpt lat="43.14211" lon="0.87576">
        <ele>367</ele>
        <time>2022-09-14T08:03:25Z</time>
      </trkpt>
      <trkpt lat="43.14209" lon="0.8758">
        <ele>367</ele>
        <time>2022-09-14T08:03:28Z</time>
      </trkpt>
      <trkpt lat="43.14196" lon="0.8759">
        <ele>367</ele>
        <time>2022-09-14T08:03:38Z</time>
      </trkpt>
      <trkpt lat="43.14191" lon="0.87593">
        <ele>367</ele>
        <time>2022-09-14T08:03:41Z</time>
      </trkpt>
      <trkpt lat="43.14188" lon="0.87596">
        <ele>367</ele>
        <time>2022-09-14T08:03:44Z</time>
      </trkpt>
      <trkpt lat="43.14185" lon="0.87597">
        <ele>366</ele>
        <time>2022-09-14T08:03:47Z</time>
      </trkpt>
      <trkpt lat="43.14182" lon="0.87601">
        <ele>366</ele>
        <time>2022-09-14T08:03:51Z</time>
      </trkpt>
      <trkpt lat="43.14178" lon="0.87604">
        <ele>366</ele>
        <time>2022-09-14T08:03:54Z</time>
      </trkpt>
      <trkpt lat="43.14173" lon="0.87613">
        <ele>366</ele>
        <time>2022-09-14T08:04:01Z</time>
      </trkpt>
      <trkpt lat="43.14168" lon="0.87628">
        <ele>365</ele>
        <time>2022-09-14T08:04:11Z</time>
      </trkpt>
      <trkpt lat="43.14165" lon="0.87654">
        <ele>365</ele>
        <time>2022-09-14T08:04:27Z</time>
      </trkpt>
      <trkpt lat="43.1415" lon="0.8769">
        <ele>364</ele>
        <time>2022-09-14T08:04:51Z</time>
      </trkpt>
      <trkpt lat="43.14146" lon="0.87693">
        <ele>364</ele>
        <time>2022-09-14T08:04:54Z</time>
      </trkpt>
      <trkpt lat="43.14142" lon="0.87694">
        <ele>364</ele>
        <time>2022-09-14T08:04:57Z</time>
      </trkpt>
      <trkpt lat="43.14138" lon="0.87694">
        <ele>363</ele>
        <time>2022-09-14T08:05:01Z</time>
      </trkpt>
      <trkpt lat="43.14132" lon="0.87691">
        <ele>363</ele>
        <time>2022-09-14T08:05:15Z</time>
      </trkpt>
      <trkpt lat="43.14128" lon="0.87689">
        <ele>363</ele>
        <time>2022-09-14T08:05:18Z</time>
      </trkpt>
      <trkpt lat="43.14118" lon="0.87687">
        <ele>363</ele>
        <time>2022-09-14T08:05:26Z</time>
      </trkpt>
      <trkpt lat="43.14113" lon="0.87684">
        <ele>362</ele>
        <time>2022-09-14T08:05:30Z</time>
      </trkpt>
      <trkpt lat="43.14091" lon="0.87676">
        <ele>361</ele>
        <time>2022-09-14T08:05:51Z</time>
      </trkpt>
      <trkpt lat="43.14084" lon="0.87679">
        <ele>361</ele>
        <time>2022-09-14T08:05:58Z</time>
      </trkpt>
      <trkpt lat="43.14074" lon="0.87677">
        <ele>360</ele>
        <time>2022-09-14T08:06:06Z</time>
      </trkpt>
      <trkpt lat="43.14069" lon="0.87674">
        <ele>360</ele>
        <time>2022-09-14T08:06:10Z</time>
      </trkpt>
      <trkpt lat="43.14056" lon="0.87669">
        <ele>359</ele>
        <time>2022-09-14T08:06:44Z</time>
      </trkpt>
      <trkpt lat="43.14052" lon="0.87668">
        <ele>358</ele>
        <time>2022-09-14T08:06:48Z</time>
      </trkpt>
      <trkpt lat="43.14042" lon="0.87668">
        <ele>357</ele>
        <time>2022-09-14T08:06:56Z</time>
      </trkpt>
      <trkpt lat="43.14008" lon="0.87657">
        <ele>355</ele>
        <time>2022-09-14T08:07:23Z</time>
      </trkpt>
      <trkpt lat="43.13992" lon="0.87645">
        <ele>355</ele>
        <time>2022-09-14T08:07:36Z</time>
      </trkpt>
      <trkpt lat="43.13985" lon="0.87633">
        <ele>353</ele>
        <time>2022-09-14T08:07:44Z</time>
      </trkpt>
      <trkpt lat="43.1398" lon="0.87614">
        <ele>352</ele>
        <time>2022-09-14T08:07:57Z</time>
      </trkpt>
      <trkpt lat="43.13979" lon="0.87605">
        <ele>352</ele>
        <time>2022-09-14T08:08:03Z</time>
      </trkpt>
      <trkpt lat="43.13978" lon="0.876">
        <ele>352</ele>
        <time>2022-09-14T08:08:07Z</time>
      </trkpt>
      <trkpt lat="43.13973" lon="0.87597">
        <ele>352</ele>
        <time>2022-09-14T08:08:13Z</time>
      </trkpt>
      <trkpt lat="43.13962" lon="0.87598">
        <ele>352</ele>
        <time>2022-09-14T08:08:21Z</time>
      </trkpt>
      <trkpt lat="43.13958" lon="0.87599">
        <ele>352</ele>
        <time>2022-09-14T08:08:25Z</time>
      </trkpt>
      <trkpt lat="43.13943" lon="0.87609">
        <ele>353</ele>
        <time>2022-09-14T08:08:39Z</time>
      </trkpt>
      <trkpt lat="43.13932" lon="0.87633">
        <ele>353</ele>
        <time>2022-09-14T08:08:59Z</time>
      </trkpt>
      <trkpt lat="43.13921" lon="0.87651">
        <ele>353</ele>
        <time>2022-09-14T08:09:13Z</time>
      </trkpt>
      <trkpt lat="43.13903" lon="0.87693">
        <ele>353</ele>
        <time>2022-09-14T08:09:44Z</time>
      </trkpt>
      <trkpt lat="43.13896" lon="0.87702">
        <ele>353</ele>
        <time>2022-09-14T08:09:51Z</time>
      </trkpt>
      <trkpt lat="43.13886" lon="0.87718">
        <ele>354</ele>
        <time>2022-09-14T08:10:03Z</time>
      </trkpt>
      <trkpt lat="43.13873" lon="0.87725">
        <ele>354</ele>
        <time>2022-09-14T08:10:13Z</time>
      </trkpt>
      <trkpt lat="43.13868" lon="0.87725">
        <ele>354</ele>
        <time>2022-09-14T08:10:17Z</time>
      </trkpt>
      <trkpt lat="43.13831" lon="0.87711">
        <ele>356</ele>
        <time>2022-09-14T08:10:48Z</time>
      </trkpt>
      <trkpt lat="43.13823" lon="0.87708">
        <ele>356</ele>
        <time>2022-09-14T08:10:55Z</time>
      </trkpt>
      <trkpt lat="43.13807" lon="0.87697">
        <ele>357</ele>
        <time>2022-09-14T08:11:11Z</time>
      </trkpt>
      <trkpt lat="43.13803" lon="0.87696">
        <ele>358</ele>
        <time>2022-09-14T08:11:15Z</time>
      </trkpt>
      <trkpt lat="43.138" lon="0.87692">
        <ele>358</ele>
        <time>2022-09-14T08:11:19Z</time>
      </trkpt>
      <trkpt lat="43.13768" lon="0.87676">
        <ele>361</ele>
        <time>2022-09-14T08:11:55Z</time>
      </trkpt>
      <trkpt lat="43.13744" lon="0.87666">
        <ele>365</ele>
        <time>2022-09-14T08:12:26Z</time>
      </trkpt>
      <trkpt lat="43.13721" lon="0.87652">
        <ele>369</ele>
        <time>2022-09-14T08:13:02Z</time>
      </trkpt>
      <trkpt lat="43.13713" lon="0.87651">
        <ele>371</ele>
        <time>2022-09-14T08:13:14Z</time>
      </trkpt>
      <trkpt lat="43.13699" lon="0.87644">
        <ele>373</ele>
        <time>2022-09-14T08:13:34Z</time>
      </trkpt>
      <trkpt lat="43.1369" lon="0.87641">
        <ele>374</ele>
        <time>2022-09-14T08:13:45Z</time>
      </trkpt>
      <trkpt lat="43.13687" lon="0.87638">
        <ele>375</ele>
        <time>2022-09-14T08:13:51Z</time>
      </trkpt>
      <trkpt lat="43.13684" lon="0.87636">
        <ele>375</ele>
        <time>2022-09-14T08:13:56Z</time>
      </trkpt>
      <trkpt lat="43.1368" lon="0.87635">
        <ele>376</ele>
        <time>2022-09-14T08:14:01Z</time>
      </trkpt>
      <trkpt lat="43.13676" lon="0.87632">
        <ele>376</ele>
        <time>2022-09-14T08:14:07Z</time>
      </trkpt>
      <trkpt lat="43.13653" lon="0.87619">
        <ele>381</ele>
        <time>2022-09-14T08:14:41Z</time>
      </trkpt>
      <trkpt lat="43.13625" lon="0.876">
        <ele>384</ele>
        <time>2022-09-14T08:15:16Z</time>
      </trkpt>
      <trkpt lat="43.13621" lon="0.87598">
        <ele>385</ele>
        <time>2022-09-14T08:15:20Z</time>
      </trkpt>
      <trkpt lat="43.13613" lon="0.87593">
        <ele>385</ele>
        <time>2022-09-14T08:15:31Z</time>
      </trkpt>
      <trkpt lat="43.13608" lon="0.87587">
        <ele>386</ele>
        <time>2022-09-14T08:15:41Z</time>
      </trkpt>
      <trkpt lat="43.13601" lon="0.87582">
        <ele>387</ele>
        <time>2022-09-14T08:15:50Z</time>
      </trkpt>
      <trkpt lat="43.13596" lon="0.87581">
        <ele>388</ele>
        <time>2022-09-14T08:15:58Z</time>
      </trkpt>
      <trkpt lat="43.13591" lon="0.87579">
        <ele>388</ele>
        <time>2022-09-14T08:16:02Z</time>
      </trkpt>
      <trkpt lat="43.13585" lon="0.87574">
        <ele>389</ele>
        <time>2022-09-14T08:16:12Z</time>
      </trkpt>
      <trkpt lat="43.13582" lon="0.87572">
        <ele>390</ele>
        <time>2022-09-14T08:16:16Z</time>
      </trkpt>
      <trkpt lat="43.13578" lon="0.87568">
        <ele>391</ele>
        <time>2022-09-14T08:16:24Z</time>
      </trkpt>
      <trkpt lat="43.13571" lon="0.87562">
        <ele>392</ele>
        <time>2022-09-14T08:16:32Z</time>
      </trkpt>
      <trkpt lat="43.13567" lon="0.87557">
        <ele>392</ele>
        <time>2022-09-14T08:16:39Z</time>
      </trkpt>
      <trkpt lat="43.13558" lon="0.87547">
        <ele>394</ele>
        <time>2022-09-14T08:16:55Z</time>
      </trkpt>
      <trkpt lat="43.13554" lon="0.87545">
        <ele>394</ele>
        <time>2022-09-14T08:17:00Z</time>
      </trkpt>
      <trkpt lat="43.13551" lon="0.87545">
        <ele>394</ele>
        <time>2022-09-14T08:17:05Z</time>
      </trkpt>
      <trkpt lat="43.13546" lon="0.87544">
        <ele>394</ele>
        <time>2022-09-14T08:18:45Z</time>
      </trkpt>
      <trkpt lat="43.13528" lon="0.87543">
        <ele>393</ele>
        <time>2022-09-14T08:19:01Z</time>
      </trkpt>
      <trkpt lat="43.13524" lon="0.87544">
        <ele>392</ele>
        <time>2022-09-14T08:19:05Z</time>
      </trkpt>
      <trkpt lat="43.13496" lon="0.87542">
        <ele>388</ele>
        <time>2022-09-14T08:19:31Z</time>
      </trkpt>
      <trkpt lat="43.13491" lon="0.87544">
        <ele>388</ele>
        <time>2022-09-14T08:19:35Z</time>
      </trkpt>
      <trkpt lat="43.13458" lon="0.87533">
        <ele>384</ele>
        <time>2022-09-14T08:20:05Z</time>
      </trkpt>
      <trkpt lat="43.1345" lon="0.87527">
        <ele>384</ele>
        <time>2022-09-14T08:20:13Z</time>
      </trkpt>
      <trkpt lat="43.13414" lon="0.8751">
        <ele>381</ele>
        <time>2022-09-14T08:20:46Z</time>
      </trkpt>
      <trkpt lat="43.1338" lon="0.87493">
        <ele>379</ele>
        <time>2022-09-14T08:21:17Z</time>
      </trkpt>
      <trkpt lat="43.13366" lon="0.87488">
        <ele>378</ele>
        <time>2022-09-14T08:21:30Z</time>
      </trkpt>
      <trkpt lat="43.1335" lon="0.87477">
        <ele>376</ele>
        <time>2022-09-14T08:21:46Z</time>
      </trkpt>
      <trkpt lat="43.13335" lon="0.87471">
        <ele>375</ele>
        <time>2022-09-14T08:22:01Z</time>
      </trkpt>
      <trkpt lat="43.13321" lon="0.87463">
        <ele>374</ele>
        <time>2022-09-14T08:22:13Z</time>
      </trkpt>
      <trkpt lat="43.13314" lon="0.8746">
        <ele>373</ele>
        <time>2022-09-14T08:22:21Z</time>
      </trkpt>
      <trkpt lat="43.13301" lon="0.87447">
        <ele>373</ele>
        <time>2022-09-14T08:22:34Z</time>
      </trkpt>
      <trkpt lat="43.13284" lon="0.87414">
        <ele>373</ele>
        <time>2022-09-14T08:22:59Z</time>
      </trkpt>
      <trkpt lat="43.13283" lon="0.87407">
        <ele>373</ele>
        <time>2022-09-14T08:23:06Z</time>
      </trkpt>
      <trkpt lat="43.1328" lon="0.874">
        <ele>373</ele>
        <time>2022-09-14T08:23:10Z</time>
      </trkpt>
      <trkpt lat="43.13278" lon="0.87388">
        <ele>374</ele>
        <time>2022-09-14T08:23:18Z</time>
      </trkpt>
      <trkpt lat="43.13277" lon="0.87375">
        <ele>375</ele>
        <time>2022-09-14T08:23:26Z</time>
      </trkpt>
      <trkpt lat="43.13277" lon="0.87369">
        <ele>375</ele>
        <time>2022-09-14T08:23:31Z</time>
      </trkpt>
      <trkpt lat="43.13277" lon="0.87363">
        <ele>376</ele>
        <time>2022-09-14T08:23:35Z</time>
      </trkpt>
      <trkpt lat="43.13272" lon="0.8735">
        <ele>376</ele>
        <time>2022-09-14T08:23:45Z</time>
      </trkpt>
      <trkpt lat="43.13268" lon="0.87344">
        <ele>376</ele>
        <time>2022-09-14T08:23:51Z</time>
      </trkpt>
      <trkpt lat="43.13263" lon="0.87341">
        <ele>377</ele>
        <time>2022-09-14T08:23:57Z</time>
      </trkpt>
      <trkpt lat="43.1325" lon="0.87337">
        <ele>376</ele>
        <time>2022-09-14T08:24:09Z</time>
      </trkpt>
      <trkpt lat="43.13245" lon="0.87337">
        <ele>375</ele>
        <time>2022-09-14T08:24:13Z</time>
      </trkpt>
      <trkpt lat="43.1324" lon="0.87329">
        <ele>375</ele>
        <time>2022-09-14T08:24:43Z</time>
      </trkpt>
      <trkpt lat="43.13233" lon="0.87329">
        <ele>373</ele>
        <time>2022-09-14T08:24:54Z</time>
      </trkpt>
      <trkpt lat="43.13202" lon="0.8733">
        <ele>370</ele>
        <time>2022-09-14T08:25:21Z</time>
      </trkpt>
      <trkpt lat="43.13164" lon="0.87344">
        <ele>365</ele>
        <time>2022-09-14T08:25:55Z</time>
      </trkpt>
      <trkpt lat="43.13125" lon="0.87356">
        <ele>363</ele>
        <time>2022-09-14T08:26:27Z</time>
      </trkpt>
      <trkpt lat="43.13104" lon="0.87353">
        <ele>363</ele>
        <time>2022-09-14T08:26:45Z</time>
      </trkpt>
      <trkpt lat="43.13063" lon="0.87337">
        <ele>364</ele>
        <time>2022-09-14T08:27:20Z</time>
      </trkpt>
      <trkpt lat="43.13044" lon="0.87326">
        <ele>365</ele>
        <time>2022-09-14T08:27:37Z</time>
      </trkpt>
      <trkpt lat="43.13036" lon="0.87319">
        <ele>365</ele>
        <time>2022-09-14T08:27:45Z</time>
      </trkpt>
      <trkpt lat="43.12999" lon="0.87297">
        <ele>366</ele>
        <time>2022-09-14T08:28:17Z</time>
      </trkpt>
      <trkpt lat="43.12964" lon="0.87273">
        <ele>365</ele>
        <time>2022-09-14T08:28:50Z</time>
      </trkpt>
      <trkpt lat="43.12955" lon="0.87267">
        <ele>365</ele>
        <time>2022-09-14T08:28:59Z</time>
      </trkpt>
      <trkpt lat="43.12947" lon="0.8726">
        <ele>364</ele>
        <time>2022-09-14T08:29:06Z</time>
      </trkpt>
      <trkpt lat="43.12942" lon="0.87259">
        <ele>363</ele>
        <time>2022-09-14T08:29:11Z</time>
      </trkpt>
      <trkpt lat="43.12911" lon="0.87237">
        <ele>358</ele>
        <time>2022-09-14T08:29:42Z</time>
      </trkpt>
      <trkpt lat="43.12896" lon="0.87231">
        <ele>356</ele>
        <time>2022-09-14T08:29:56Z</time>
      </trkpt>
      <trkpt lat="43.12892" lon="0.87227">
        <ele>356</ele>
        <time>2022-09-14T08:30:00Z</time>
      </trkpt>
      <trkpt lat="43.12883" lon="0.87224">
        <ele>354</ele>
        <time>2022-09-14T08:30:09Z</time>
      </trkpt>
      <trkpt lat="43.12845" lon="0.87201">
        <ele>350</ele>
        <time>2022-09-14T08:30:43Z</time>
      </trkpt>
      <trkpt lat="43.12813" lon="0.87184">
        <ele>346</ele>
        <time>2022-09-14T08:31:14Z</time>
      </trkpt>
      <trkpt lat="43.12779" lon="0.87167">
        <ele>343</ele>
        <time>2022-09-14T08:31:44Z</time>
      </trkpt>
      <trkpt lat="43.12774" lon="0.87165">
        <ele>342</ele>
        <time>2022-09-14T08:31:48Z</time>
      </trkpt>
      <trkpt lat="43.1277" lon="0.87161">
        <ele>342</ele>
        <time>2022-09-14T08:31:52Z</time>
      </trkpt>
      <trkpt lat="43.12743" lon="0.87147">
        <ele>339</ele>
        <time>2022-09-14T08:32:17Z</time>
      </trkpt>
      <trkpt lat="43.12739" lon="0.87144">
        <ele>339</ele>
        <time>2022-09-14T08:32:21Z</time>
      </trkpt>
      <trkpt lat="43.12729" lon="0.87141">
        <ele>338</ele>
        <time>2022-09-14T08:32:30Z</time>
      </trkpt>
      <trkpt lat="43.1271" lon="0.87129">
        <ele>336</ele>
        <time>2022-09-14T08:32:47Z</time>
      </trkpt>
      <trkpt lat="43.12696" lon="0.87125">
        <ele>335</ele>
        <time>2022-09-14T08:32:59Z</time>
      </trkpt>
      <trkpt lat="43.12677" lon="0.87115">
        <ele>334</ele>
        <time>2022-09-14T08:33:15Z</time>
      </trkpt>
      <trkpt lat="43.12672" lon="0.87114">
        <ele>334</ele>
        <time>2022-09-14T08:33:19Z</time>
      </trkpt>
      <trkpt lat="43.1264" lon="0.8709">
        <ele>334</ele>
        <time>2022-09-14T08:33:47Z</time>
      </trkpt>
      <trkpt lat="43.12636" lon="0.87088">
        <ele>334</ele>
        <time>2022-09-14T08:33:50Z</time>
      </trkpt>
      <trkpt lat="43.1262" lon="0.87073">
        <ele>334</ele>
        <time>2022-09-14T08:34:05Z</time>
      </trkpt>
      <trkpt lat="43.12615" lon="0.87072">
        <ele>334</ele>
        <time>2022-09-14T08:34:10Z</time>
      </trkpt>
      <trkpt lat="43.12593" lon="0.87056">
        <ele>335</ele>
        <time>2022-09-14T08:34:31Z</time>
      </trkpt>
      <trkpt lat="43.12588" lon="0.87055">
        <ele>335</ele>
        <time>2022-09-14T08:34:35Z</time>
      </trkpt>
      <trkpt lat="43.1258" lon="0.87049">
        <ele>335</ele>
        <time>2022-09-14T08:34:42Z</time>
      </trkpt>
      <trkpt lat="43.12539" lon="0.87031">
        <ele>336</ele>
        <time>2022-09-14T08:35:16Z</time>
      </trkpt>
      <trkpt lat="43.12503" lon="0.87017">
        <ele>338</ele>
        <time>2022-09-14T08:35:52Z</time>
      </trkpt>
      <trkpt lat="43.12475" lon="0.87007">
        <ele>338</ele>
        <time>2022-09-14T08:36:15Z</time>
      </trkpt>
      <trkpt lat="43.12469" lon="0.87008">
        <ele>339</ele>
        <time>2022-09-14T08:36:20Z</time>
      </trkpt>
      <trkpt lat="43.12426" lon="0.86996">
        <ele>340</ele>
        <time>2022-09-14T08:36:54Z</time>
      </trkpt>
      <trkpt lat="43.12409" lon="0.8699">
        <ele>341</ele>
        <time>2022-09-14T08:37:11Z</time>
      </trkpt>
      <trkpt lat="43.12375" lon="0.86986">
        <ele>343</ele>
        <time>2022-09-14T08:37:44Z</time>
      </trkpt>
      <trkpt lat="43.12356" lon="0.8699">
        <ele>345</ele>
        <time>2022-09-14T08:38:05Z</time>
      </trkpt>
      <trkpt lat="43.12348" lon="0.86985">
        <ele>346</ele>
        <time>2022-09-14T08:38:18Z</time>
      </trkpt>
      <trkpt lat="43.12333" lon="0.86984">
        <ele>348</ele>
        <time>2022-09-14T08:38:37Z</time>
      </trkpt>
      <trkpt lat="43.12327" lon="0.86981">
        <ele>349</ele>
        <time>2022-09-14T08:38:44Z</time>
      </trkpt>
      <trkpt lat="43.12313" lon="0.86983">
        <ele>350</ele>
        <time>2022-09-14T08:39:00Z</time>
      </trkpt>
      <trkpt lat="43.12285" lon="0.86982">
        <ele>353</ele>
        <time>2022-09-14T08:39:34Z</time>
      </trkpt>
      <trkpt lat="43.12265" lon="0.86985">
        <ele>355</ele>
        <time>2022-09-14T08:39:59Z</time>
      </trkpt>
      <trkpt lat="43.12259" lon="0.86986">
        <ele>356</ele>
        <time>2022-09-14T08:40:05Z</time>
      </trkpt>
      <trkpt lat="43.12242" lon="0.8698">
        <ele>357</ele>
        <time>2022-09-14T08:40:25Z</time>
      </trkpt>
      <trkpt lat="43.12213" lon="0.86979">
        <ele>360</ele>
        <time>2022-09-14T08:40:57Z</time>
      </trkpt>
      <trkpt lat="43.12182" lon="0.86984">
        <ele>362</ele>
        <time>2022-09-14T08:41:30Z</time>
      </trkpt>
      <trkpt lat="43.12156" lon="0.86983">
        <ele>365</ele>
        <time>2022-09-14T08:42:03Z</time>
      </trkpt>
      <trkpt lat="43.1215" lon="0.86983">
        <ele>366</ele>
        <time>2022-09-14T08:42:09Z</time>
      </trkpt>
      <trkpt lat="43.12144" lon="0.86983">
        <ele>366</ele>
        <time>2022-09-14T08:42:14Z</time>
      </trkpt>
      <trkpt lat="43.12128" lon="0.86977">
        <ele>368</ele>
        <time>2022-09-14T08:42:37Z</time>
      </trkpt>
      <trkpt lat="43.12123" lon="0.86979">
        <ele>369</ele>
        <time>2022-09-14T08:42:45Z</time>
      </trkpt>
      <trkpt lat="43.12105" lon="0.86981">
        <ele>370</ele>
        <time>2022-09-14T08:43:03Z</time>
      </trkpt>
      <trkpt lat="43.12098" lon="0.86978">
        <ele>371</ele>
        <time>2022-09-14T08:43:12Z</time>
      </trkpt>
      <trkpt lat="43.1207" lon="0.86976">
        <ele>373</ele>
        <time>2022-09-14T08:43:44Z</time>
      </trkpt>
      <trkpt lat="43.12044" lon="0.86973">
        <ele>376</ele>
        <time>2022-09-14T08:44:16Z</time>
      </trkpt>
      <trkpt lat="43.1204" lon="0.86973">
        <ele>377</ele>
        <time>2022-09-14T08:44:21Z</time>
      </trkpt>
      <trkpt lat="43.1202" lon="0.86972">
        <ele>379</ele>
        <time>2022-09-14T08:44:44Z</time>
      </trkpt>
      <trkpt lat="43.12015" lon="0.86975">
        <ele>380</ele>
        <time>2022-09-14T08:44:52Z</time>
      </trkpt>
      <trkpt lat="43.11992" lon="0.86972">
        <ele>383</ele>
        <time>2022-09-14T08:45:30Z</time>
      </trkpt>
      <trkpt lat="43.11981" lon="0.86975">
        <ele>384</ele>
        <time>2022-09-14T08:45:43Z</time>
      </trkpt>
      <trkpt lat="43.11964" lon="0.86973">
        <ele>385</ele>
        <time>2022-09-14T08:46:02Z</time>
      </trkpt>
      <trkpt lat="43.11949" lon="0.86976">
        <ele>387</ele>
        <time>2022-09-14T08:46:17Z</time>
      </trkpt>
      <trkpt lat="43.11943" lon="0.86977">
        <ele>387</ele>
        <time>2022-09-14T08:46:24Z</time>
      </trkpt>
      <trkpt lat="43.11939" lon="0.86976">
        <ele>388</ele>
        <time>2022-09-14T08:46:34Z</time>
      </trkpt>
      <trkpt lat="43.1193" lon="0.86976">
        <ele>389</ele>
        <time>2022-09-14T08:48:04Z</time>
      </trkpt>
      <trkpt lat="43.11895" lon="0.8698">
        <ele>391</ele>
        <time>2022-09-14T08:48:37Z</time>
      </trkpt>
      <trkpt lat="43.1188" lon="0.8698">
        <ele>392</ele>
        <time>2022-09-14T08:48:49Z</time>
      </trkpt>
      <trkpt lat="43.11875" lon="0.86981">
        <ele>392</ele>
        <time>2022-09-14T08:48:53Z</time>
      </trkpt>
      <trkpt lat="43.11871" lon="0.86981">
        <ele>392</ele>
        <time>2022-09-14T08:48:57Z</time>
      </trkpt>
      <trkpt lat="43.11832" lon="0.86985">
        <ele>393</ele>
        <time>2022-09-14T08:49:31Z</time>
      </trkpt>
      <trkpt lat="43.11806" lon="0.8699">
        <ele>394</ele>
        <time>2022-09-14T08:49:54Z</time>
      </trkpt>
      <trkpt lat="43.11774" lon="0.86992">
        <ele>395</ele>
        <time>2022-09-14T08:50:21Z</time>
      </trkpt>
      <trkpt lat="43.11738" lon="0.87003">
        <ele>393</ele>
        <time>2022-09-14T08:50:56Z</time>
      </trkpt>
      <trkpt lat="43.11728" lon="0.87004">
        <ele>392</ele>
        <time>2022-09-14T08:51:04Z</time>
      </trkpt>
      <trkpt lat="43.11722" lon="0.87004">
        <ele>392</ele>
        <time>2022-09-14T08:51:09Z</time>
      </trkpt>
      <trkpt lat="43.11703" lon="0.8701">
        <ele>391</ele>
        <time>2022-09-14T08:51:26Z</time>
      </trkpt>
      <trkpt lat="43.11665" lon="0.87015">
        <ele>390</ele>
        <time>2022-09-14T08:52:00Z</time>
      </trkpt>
      <trkpt lat="43.11649" lon="0.87015">
        <ele>389</ele>
        <time>2022-09-14T08:52:13Z</time>
      </trkpt>
      <trkpt lat="43.11621" lon="0.87019">
        <ele>387</ele>
        <time>2022-09-14T08:52:43Z</time>
      </trkpt>
      <trkpt lat="43.11586" lon="0.8702">
        <ele>386</ele>
        <time>2022-09-14T08:53:14Z</time>
      </trkpt>
      <trkpt lat="43.11571" lon="0.87024">
        <ele>384</ele>
        <time>2022-09-14T08:53:28Z</time>
      </trkpt>
      <trkpt lat="43.1156" lon="0.87023">
        <ele>384</ele>
        <time>2022-09-14T08:53:37Z</time>
      </trkpt>
      <trkpt lat="43.11524" lon="0.87029">
        <ele>380</ele>
        <time>2022-09-14T08:54:09Z</time>
      </trkpt>
      <trkpt lat="43.11519" lon="0.87028">
        <ele>380</ele>
        <time>2022-09-14T08:54:13Z</time>
      </trkpt>
      <trkpt lat="43.1148" lon="0.8703">
        <ele>377</ele>
        <time>2022-09-14T08:54:47Z</time>
      </trkpt>
      <trkpt lat="43.11454" lon="0.87031">
        <ele>376</ele>
        <time>2022-09-14T08:55:11Z</time>
      </trkpt>
      <trkpt lat="43.11439" lon="0.87027">
        <ele>375</ele>
        <time>2022-09-14T08:55:24Z</time>
      </trkpt>
      <trkpt lat="43.11431" lon="0.8702">
        <ele>374</ele>
        <time>2022-09-14T08:55:32Z</time>
      </trkpt>
      <trkpt lat="43.11428" lon="0.87015">
        <ele>374</ele>
        <time>2022-09-14T08:55:36Z</time>
      </trkpt>
      <trkpt lat="43.11423" lon="0.87012">
        <ele>373</ele>
        <time>2022-09-14T08:55:40Z</time>
      </trkpt>
      <trkpt lat="43.11421" lon="0.87007">
        <ele>373</ele>
        <time>2022-09-14T08:55:43Z</time>
      </trkpt>
      <trkpt lat="43.11414" lon="0.87">
        <ele>372</ele>
        <time>2022-09-14T08:55:51Z</time>
      </trkpt>
      <trkpt lat="43.11405" lon="0.86995">
        <ele>371</ele>
        <time>2022-09-14T08:56:00Z</time>
      </trkpt>
      <trkpt lat="43.1139" lon="0.86973">
        <ele>369</ele>
        <time>2022-09-14T08:56:19Z</time>
      </trkpt>
      <trkpt lat="43.11369" lon="0.86928">
        <ele>366</ele>
        <time>2022-09-14T08:56:51Z</time>
      </trkpt>
      <trkpt lat="43.11359" lon="0.86904">
        <ele>364</ele>
        <time>2022-09-14T08:57:08Z</time>
      </trkpt>
      <trkpt lat="43.11358" lon="0.86897">
        <ele>364</ele>
        <time>2022-09-14T08:57:12Z</time>
      </trkpt>
      <trkpt lat="43.11354" lon="0.86888">
        <ele>363</ele>
        <time>2022-09-14T08:57:20Z</time>
      </trkpt>
      <trkpt lat="43.11353" lon="0.86882">
        <ele>362</ele>
        <time>2022-09-14T08:57:24Z</time>
      </trkpt>
      <trkpt lat="43.11345" lon="0.86854">
        <ele>360</ele>
        <time>2022-09-14T08:57:42Z</time>
      </trkpt>
      <trkpt lat="43.11342" lon="0.86849">
        <ele>360</ele>
        <time>2022-09-14T08:57:45Z</time>
      </trkpt>
      <trkpt lat="43.11333" lon="0.86819">
        <ele>358</ele>
        <time>2022-09-14T08:58:05Z</time>
      </trkpt>
      <trkpt lat="43.1131" lon="0.86786">
        <ele>355</ele>
        <time>2022-09-14T08:58:38Z</time>
      </trkpt>
      <trkpt lat="43.113" lon="0.86775">
        <ele>353</ele>
        <time>2022-09-14T08:58:48Z</time>
      </trkpt>
      <trkpt lat="43.11288" lon="0.86754">
        <ele>351</ele>
        <time>2022-09-14T08:59:05Z</time>
      </trkpt>
      <trkpt lat="43.11265" lon="0.86722">
        <ele>347</ele>
        <time>2022-09-14T08:59:34Z</time>
      </trkpt>
      <trkpt lat="43.11246" lon="0.86709">
        <ele>346</ele>
        <time>2022-09-14T08:59:48Z</time>
      </trkpt>
      <trkpt lat="43.11229" lon="0.867">
        <ele>344</ele>
        <time>2022-09-14T09:00:01Z</time>
      </trkpt>
      <trkpt lat="43.11219" lon="0.86689">
        <ele>343</ele>
        <time>2022-09-14T09:00:10Z</time>
      </trkpt>
      <trkpt lat="43.11186" lon="0.86665">
        <ele>339</ele>
        <time>2022-09-14T09:00:41Z</time>
      </trkpt>
      <trkpt lat="43.11175" lon="0.86659">
        <ele>338</ele>
        <time>2022-09-14T09:00:51Z</time>
      </trkpt>
      <trkpt lat="43.11169" lon="0.86658">
        <ele>338</ele>
        <time>2022-09-14T09:00:56Z</time>
      </trkpt>
      <trkpt lat="43.11164" lon="0.86653">
        <ele>337</ele>
        <time>2022-09-14T09:01:01Z</time>
      </trkpt>
      <trkpt lat="43.11151" lon="0.8665">
        <ele>336</ele>
        <time>2022-09-14T09:01:12Z</time>
      </trkpt>
      <trkpt lat="43.11146" lon="0.86647">
        <ele>335</ele>
        <time>2022-09-14T09:01:16Z</time>
      </trkpt>
      <trkpt lat="43.11135" lon="0.86651">
        <ele>334</ele>
        <time>2022-09-14T09:01:28Z</time>
      </trkpt>
      <trkpt lat="43.11129" lon="0.86651">
        <ele>334</ele>
        <time>2022-09-14T09:01:33Z</time>
      </trkpt>
      <trkpt lat="43.11109" lon="0.86659">
        <ele>333</ele>
        <time>2022-09-14T09:01:52Z</time>
      </trkpt>
      <trkpt lat="43.11104" lon="0.86664">
        <ele>333</ele>
        <time>2022-09-14T09:01:58Z</time>
      </trkpt>
      <trkpt lat="43.11099" lon="0.86665">
        <ele>333</ele>
        <time>2022-09-14T09:02:02Z</time>
      </trkpt>
      <trkpt lat="43.11095" lon="0.86667">
        <ele>333</ele>
        <time>2022-09-14T09:02:06Z</time>
      </trkpt>
      <trkpt lat="43.11084" lon="0.86668">
        <ele>332</ele>
        <time>2022-09-14T09:02:14Z</time>
      </trkpt>
      <trkpt lat="43.1105" lon="0.8668">
        <ele>330</ele>
        <time>2022-09-14T09:02:49Z</time>
      </trkpt>
      <trkpt lat="43.11041" lon="0.86684">
        <ele>329</ele>
        <time>2022-09-14T09:02:59Z</time>
      </trkpt>
      <trkpt lat="43.1104" lon="0.86683">
        <ele>329</ele>
        <time>2022-09-14T09:04:07Z</time>
      </trkpt>
      <trkpt lat="43.11035" lon="0.86686">
        <ele>329</ele>
        <time>2022-09-14T09:04:13Z</time>
      </trkpt>
      <trkpt lat="43.11031" lon="0.86686">
        <ele>328</ele>
        <time>2022-09-14T09:04:18Z</time>
      </trkpt>
      <trkpt lat="43.11024" lon="0.86689">
        <ele>328</ele>
        <time>2022-09-14T09:04:26Z</time>
      </trkpt>
      <trkpt lat="43.11006" lon="0.86688">
        <ele>327</ele>
        <time>2022-09-14T09:04:39Z</time>
      </trkpt>
      <trkpt lat="43.10972" lon="0.86696">
        <ele>326</ele>
        <time>2022-09-14T09:05:08Z</time>
      </trkpt>
      <trkpt lat="43.10968" lon="0.867">
        <ele>326</ele>
        <time>2022-09-14T09:05:11Z</time>
      </trkpt>
      <trkpt lat="43.10926" lon="0.86699">
        <ele>325</ele>
        <time>2022-09-14T09:05:45Z</time>
      </trkpt>
      <trkpt lat="43.10917" lon="0.86698">
        <ele>325</ele>
        <time>2022-09-14T09:05:53Z</time>
      </trkpt>
      <trkpt lat="43.10911" lon="0.867">
        <ele>324</ele>
        <time>2022-09-14T09:05:58Z</time>
      </trkpt>
      <trkpt lat="43.10887" lon="0.86697">
        <ele>324</ele>
        <time>2022-09-14T09:06:19Z</time>
      </trkpt>
      <trkpt lat="43.10885" lon="0.8669">
        <ele>324</ele>
        <time>2022-09-14T09:06:39Z</time>
      </trkpt>
      <trkpt lat="43.10881" lon="0.86688">
        <ele>324</ele>
        <time>2022-09-14T09:06:51Z</time>
      </trkpt>
      <trkpt lat="43.10877" lon="0.86685">
        <ele>323</ele>
        <time>2022-09-14T09:06:56Z</time>
      </trkpt>
      <trkpt lat="43.10871" lon="0.86679">
        <ele>323</ele>
        <time>2022-09-14T09:07:03Z</time>
      </trkpt>
      <trkpt lat="43.10867" lon="0.86678">
        <ele>323</ele>
        <time>2022-09-14T09:07:07Z</time>
      </trkpt>
      <trkpt lat="43.10862" lon="0.86674">
        <ele>323</ele>
        <time>2022-09-14T09:07:11Z</time>
      </trkpt>
      <trkpt lat="43.10854" lon="0.86657">
        <ele>323</ele>
        <time>2022-09-14T09:07:22Z</time>
      </trkpt>
      <trkpt lat="43.10848" lon="0.86649">
        <ele>323</ele>
        <time>2022-09-14T09:07:28Z</time>
      </trkpt>
      <trkpt lat="43.10846" lon="0.86643">
        <ele>323</ele>
        <time>2022-09-14T09:07:32Z</time>
      </trkpt>
      <trkpt lat="43.10836" lon="0.86632">
        <ele>323</ele>
        <time>2022-09-14T09:07:44Z</time>
      </trkpt>
      <trkpt lat="43.10824" lon="0.86624">
        <ele>322</ele>
        <time>2022-09-14T09:07:54Z</time>
      </trkpt>
      <trkpt lat="43.10816" lon="0.86615">
        <ele>322</ele>
        <time>2022-09-14T09:08:02Z</time>
      </trkpt>
      <trkpt lat="43.10808" lon="0.86609">
        <ele>322</ele>
        <time>2022-09-14T09:08:10Z</time>
      </trkpt>
      <trkpt lat="43.10794" lon="0.86592">
        <ele>322</ele>
        <time>2022-09-14T09:08:24Z</time>
      </trkpt>
      <trkpt lat="43.10792" lon="0.86586">
        <ele>321</ele>
        <time>2022-09-14T09:08:27Z</time>
      </trkpt>
      <trkpt lat="43.10785" lon="0.86573">
        <ele>321</ele>
        <time>2022-09-14T09:08:36Z</time>
      </trkpt>
      <trkpt lat="43.10781" lon="0.86564">
        <ele>321</ele>
        <time>2022-09-14T09:08:44Z</time>
      </trkpt>
      <trkpt lat="43.10775" lon="0.86553">
        <ele>320</ele>
        <time>2022-09-14T09:08:51Z</time>
      </trkpt>
      <trkpt lat="43.10769" lon="0.86535">
        <ele>320</ele>
        <time>2022-09-14T09:09:05Z</time>
      </trkpt>
      <trkpt lat="43.10763" lon="0.86523">
        <ele>320</ele>
        <time>2022-09-14T09:09:13Z</time>
      </trkpt>
      <trkpt lat="43.10759" lon="0.86512">
        <ele>320</ele>
        <time>2022-09-14T09:09:20Z</time>
      </trkpt>
      <trkpt lat="43.10749" lon="0.86495">
        <ele>320</ele>
        <time>2022-09-14T09:09:33Z</time>
      </trkpt>
      <trkpt lat="43.10747" lon="0.8649">
        <ele>320</ele>
        <time>2022-09-14T09:09:37Z</time>
      </trkpt>
      <trkpt lat="43.10745" lon="0.86482">
        <ele>319</ele>
        <time>2022-09-14T09:09:43Z</time>
      </trkpt>
      <trkpt lat="43.10737" lon="0.86468">
        <ele>319</ele>
        <time>2022-09-14T09:09:54Z</time>
      </trkpt>
      <trkpt lat="43.10731" lon="0.86459">
        <ele>319</ele>
        <time>2022-09-14T09:10:00Z</time>
      </trkpt>
      <trkpt lat="43.10708" lon="0.8641">
        <ele>319</ele>
        <time>2022-09-14T09:10:33Z</time>
      </trkpt>
      <trkpt lat="43.10699" lon="0.86356">
        <ele>319</ele>
        <time>2022-09-14T09:11:06Z</time>
      </trkpt>
      <trkpt lat="43.10696" lon="0.86319">
        <ele>319</ele>
        <time>2022-09-14T09:11:25Z</time>
      </trkpt>
      <trkpt lat="43.10697" lon="0.86312">
        <ele>319</ele>
        <time>2022-09-14T09:11:29Z</time>
      </trkpt>
      <trkpt lat="43.10693" lon="0.86257">
        <ele>318</ele>
        <time>2022-09-14T09:12:03Z</time>
      </trkpt>
      <trkpt lat="43.10691" lon="0.86203">
        <ele>318</ele>
        <time>2022-09-14T09:12:34Z</time>
      </trkpt>
      <trkpt lat="43.10689" lon="0.86188">
        <ele>318</ele>
        <time>2022-09-14T09:12:42Z</time>
      </trkpt>
      <trkpt lat="43.10689" lon="0.86175">
        <ele>318</ele>
        <time>2022-09-14T09:12:50Z</time>
      </trkpt>
      <trkpt lat="43.10686" lon="0.86149">
        <ele>318</ele>
        <time>2022-09-14T09:13:06Z</time>
      </trkpt>
      <trkpt lat="43.10686" lon="0.86142">
        <ele>318</ele>
        <time>2022-09-14T09:13:10Z</time>
      </trkpt>
      <trkpt lat="43.10685" lon="0.86128">
        <ele>318</ele>
        <time>2022-09-14T09:13:18Z</time>
      </trkpt>
      <trkpt lat="43.10685" lon="0.86122">
        <ele>319</ele>
        <time>2022-09-14T09:13:21Z</time>
      </trkpt>
      <trkpt lat="43.10683" lon="0.86088">
        <ele>319</ele>
        <time>2022-09-14T09:13:43Z</time>
      </trkpt>
      <trkpt lat="43.10683" lon="0.86068">
        <ele>319</ele>
        <time>2022-09-14T09:13:54Z</time>
      </trkpt>
      <trkpt lat="43.1068" lon="0.86049">
        <ele>319</ele>
        <time>2022-09-14T09:14:05Z</time>
      </trkpt>
      <trkpt lat="43.10676" lon="0.85994">
        <ele>320</ele>
        <time>2022-09-14T09:14:39Z</time>
      </trkpt>
      <trkpt lat="43.10679" lon="0.85982">
        <ele>320</ele>
        <time>2022-09-14T09:14:50Z</time>
      </trkpt>
      <trkpt lat="43.10684" lon="0.85981">
        <ele>320</ele>
        <time>2022-09-14T09:15:08Z</time>
      </trkpt>
      <trkpt lat="43.10674" lon="0.85966">
        <ele>321</ele>
        <time>2022-09-14T09:15:39Z</time>
      </trkpt>
      <trkpt lat="43.10671" lon="0.85952">
        <ele>321</ele>
        <time>2022-09-14T09:15:48Z</time>
      </trkpt>
      <trkpt lat="43.10671" lon="0.85942">
        <ele>321</ele>
        <time>2022-09-14T09:15:53Z</time>
      </trkpt>
      <trkpt lat="43.10675" lon="0.85927">
        <ele>321</ele>
        <time>2022-09-14T09:15:59Z</time>
      </trkpt>
      <trkpt lat="43.10688" lon="0.85893">
        <ele>322</ele>
        <time>2022-09-14T09:16:19Z</time>
      </trkpt>
      <trkpt lat="43.10689" lon="0.85886">
        <ele>322</ele>
        <time>2022-09-14T09:16:24Z</time>
      </trkpt>
      <trkpt lat="43.10693" lon="0.85873">
        <ele>322</ele>
        <time>2022-09-14T09:16:35Z</time>
      </trkpt>
      <trkpt lat="43.10695" lon="0.85865">
        <ele>322</ele>
        <time>2022-09-14T09:16:40Z</time>
      </trkpt>
      <trkpt lat="43.10702" lon="0.85846">
        <ele>322</ele>
        <time>2022-09-14T09:16:52Z</time>
      </trkpt>
      <trkpt lat="43.10706" lon="0.85842">
        <ele>322</ele>
        <time>2022-09-14T09:17:09Z</time>
      </trkpt>
      <trkpt lat="43.10707" lon="0.85842">
        <ele>323</ele>
        <time>2022-09-14T09:17:33Z</time>
      </trkpt>
      <trkpt lat="43.10707" lon="0.85831">
        <ele>323</ele>
        <time>2022-09-14T09:17:53Z</time>
      </trkpt>
      <trkpt lat="43.10706" lon="0.85822">
        <ele>322</ele>
        <time>2022-09-14T09:18:29Z</time>
      </trkpt>
      <trkpt lat="43.10709" lon="0.85807">
        <ele>322</ele>
        <time>2022-09-14T09:18:38Z</time>
      </trkpt>
      <trkpt lat="43.10711" lon="0.85801">
        <ele>322</ele>
        <time>2022-09-14T09:18:43Z</time>
      </trkpt>
      <trkpt lat="43.10716" lon="0.85785">
        <ele>322</ele>
        <time>2022-09-14T09:18:53Z</time>
      </trkpt>
      <trkpt lat="43.10716" lon="0.85777">
        <ele>322</ele>
        <time>2022-09-14T09:18:57Z</time>
      </trkpt>
      <trkpt lat="43.10725" lon="0.85718">
        <ele>322</ele>
        <time>2022-09-14T09:19:31Z</time>
      </trkpt>
      <trkpt lat="43.10725" lon="0.8571">
        <ele>322</ele>
        <time>2022-09-14T09:19:35Z</time>
      </trkpt>
      <trkpt lat="43.10729" lon="0.85686">
        <ele>322</ele>
        <time>2022-09-14T09:19:48Z</time>
      </trkpt>
      <trkpt lat="43.10735" lon="0.85634">
        <ele>322</ele>
        <time>2022-09-14T09:20:20Z</time>
      </trkpt>
      <trkpt lat="43.10741" lon="0.85585">
        <ele>322</ele>
        <time>2022-09-14T09:20:48Z</time>
      </trkpt>
      <trkpt lat="43.1074" lon="0.85578">
        <ele>322</ele>
        <time>2022-09-14T09:20:52Z</time>
      </trkpt>
      <trkpt lat="43.10741" lon="0.85571">
        <ele>322</ele>
        <time>2022-09-14T09:20:57Z</time>
      </trkpt>
      <trkpt lat="43.1074" lon="0.85564">
        <ele>322</ele>
        <time>2022-09-14T09:21:01Z</time>
      </trkpt>
      <trkpt lat="43.10742" lon="0.85509">
        <ele>322</ele>
        <time>2022-09-14T09:21:31Z</time>
      </trkpt>
      <trkpt lat="43.10744" lon="0.85461">
        <ele>321</ele>
        <time>2022-09-14T09:21:58Z</time>
      </trkpt>
      <trkpt lat="43.10746" lon="0.85455">
        <ele>321</ele>
        <time>2022-09-14T09:22:02Z</time>
      </trkpt>
      <trkpt lat="43.10747" lon="0.85399">
        <ele>321</ele>
        <time>2022-09-14T09:22:34Z</time>
      </trkpt>
      <trkpt lat="43.10747" lon="0.85393">
        <ele>321</ele>
        <time>2022-09-14T09:22:38Z</time>
      </trkpt>
      <trkpt lat="43.10749" lon="0.85378">
        <ele>321</ele>
        <time>2022-09-14T09:22:47Z</time>
      </trkpt>
      <trkpt lat="43.10748" lon="0.85358">
        <ele>321</ele>
        <time>2022-09-14T09:22:58Z</time>
      </trkpt>
      <trkpt lat="43.10749" lon="0.85352">
        <ele>321</ele>
        <time>2022-09-14T09:23:02Z</time>
      </trkpt>
      <trkpt lat="43.10749" lon="0.85298">
        <ele>321</ele>
        <time>2022-09-14T09:23:34Z</time>
      </trkpt>
      <trkpt lat="43.10755" lon="0.85243">
        <ele>321</ele>
        <time>2022-09-14T09:24:06Z</time>
      </trkpt>
      <trkpt lat="43.10755" lon="0.85223">
        <ele>321</ele>
        <time>2022-09-14T09:24:17Z</time>
      </trkpt>
      <trkpt lat="43.10763" lon="0.85171">
        <ele>321</ele>
        <time>2022-09-14T09:24:50Z</time>
      </trkpt>
      <trkpt lat="43.10767" lon="0.85111">
        <ele>322</ele>
        <time>2022-09-14T09:25:23Z</time>
      </trkpt>
      <trkpt lat="43.10767" lon="0.85105">
        <ele>322</ele>
        <time>2022-09-14T09:25:26Z</time>
      </trkpt>
      <trkpt lat="43.10768" lon="0.85093">
        <ele>322</ele>
        <time>2022-09-14T09:25:33Z</time>
      </trkpt>
      <trkpt lat="43.10768" lon="0.85086">
        <ele>322</ele>
        <time>2022-09-14T09:25:37Z</time>
      </trkpt>
      <trkpt lat="43.1077" lon="0.85079">
        <ele>322</ele>
        <time>2022-09-14T09:25:41Z</time>
      </trkpt>
      <trkpt lat="43.1077" lon="0.85073">
        <ele>322</ele>
        <time>2022-09-14T09:25:44Z</time>
      </trkpt>
      <trkpt lat="43.10772" lon="0.85054">
        <ele>322</ele>
        <time>2022-09-14T09:25:55Z</time>
      </trkpt>
      <trkpt lat="43.10776" lon="0.85">
        <ele>323</ele>
        <time>2022-09-14T09:26:26Z</time>
      </trkpt>
      <trkpt lat="43.10778" lon="0.84966">
        <ele>323</ele>
        <time>2022-09-14T09:26:46Z</time>
      </trkpt>
      <trkpt lat="43.10784" lon="0.84907">
        <ele>323</ele>
        <time>2022-09-14T09:27:20Z</time>
      </trkpt>
      <trkpt lat="43.10786" lon="0.84853">
        <ele>324</ele>
        <time>2022-09-14T09:27:51Z</time>
      </trkpt>
      <trkpt lat="43.10788" lon="0.84795">
        <ele>324</ele>
        <time>2022-09-14T09:28:24Z</time>
      </trkpt>
      <trkpt lat="43.10787" lon="0.84776">
        <ele>324</ele>
        <time>2022-09-14T09:28:35Z</time>
      </trkpt>
      <trkpt lat="43.10785" lon="0.84762">
        <ele>324</ele>
        <time>2022-09-14T09:28:43Z</time>
      </trkpt>
      <trkpt lat="43.10787" lon="0.84738">
        <ele>325</ele>
        <time>2022-09-14T09:28:58Z</time>
      </trkpt>
      <trkpt lat="43.10784" lon="0.84681">
        <ele>325</ele>
        <time>2022-09-14T09:29:32Z</time>
      </trkpt>
      <trkpt lat="43.10782" lon="0.84626">
        <ele>326</ele>
        <time>2022-09-14T09:30:03Z</time>
      </trkpt>
      <trkpt lat="43.10778" lon="0.84601">
        <ele>326</ele>
        <time>2022-09-14T09:30:18Z</time>
      </trkpt>
      <trkpt lat="43.10778" lon="0.84594">
        <ele>326</ele>
        <time>2022-09-14T09:30:22Z</time>
      </trkpt>
      <trkpt lat="43.10776" lon="0.84588">
        <ele>326</ele>
        <time>2022-09-14T09:30:26Z</time>
      </trkpt>
      <trkpt lat="43.10771" lon="0.84548">
        <ele>326</ele>
        <time>2022-09-14T09:30:50Z</time>
      </trkpt>
      <trkpt lat="43.1077" lon="0.8454">
        <ele>325</ele>
        <time>2022-09-14T09:30:58Z</time>
      </trkpt>
      <trkpt lat="43.10766" lon="0.84506">
        <ele>325</ele>
        <time>2022-09-14T09:31:18Z</time>
      </trkpt>
      <trkpt lat="43.10767" lon="0.84499">
        <ele>325</ele>
        <time>2022-09-14T09:31:22Z</time>
      </trkpt>
      <trkpt lat="43.10766" lon="0.84485">
        <ele>325</ele>
        <time>2022-09-14T09:31:30Z</time>
      </trkpt>
      <trkpt lat="43.10767" lon="0.84452">
        <ele>325</ele>
        <time>2022-09-14T09:31:49Z</time>
      </trkpt>
      <trkpt lat="43.10777" lon="0.844">
        <ele>325</ele>
        <time>2022-09-14T09:32:21Z</time>
      </trkpt>
      <trkpt lat="43.10777" lon="0.84367">
        <ele>325</ele>
        <time>2022-09-14T09:32:39Z</time>
      </trkpt>
      <trkpt lat="43.10773" lon="0.84335">
        <ele>326</ele>
        <time>2022-09-14T09:32:57Z</time>
      </trkpt>
      <trkpt lat="43.10774" lon="0.84328">
        <ele>326</ele>
        <time>2022-09-14T09:33:01Z</time>
      </trkpt>
      <trkpt lat="43.10772" lon="0.84322">
        <ele>326</ele>
        <time>2022-09-14T09:33:05Z</time>
      </trkpt>
      <trkpt lat="43.1077" lon="0.84296">
        <ele>326</ele>
        <time>2022-09-14T09:33:22Z</time>
      </trkpt>
      <trkpt lat="43.10771" lon="0.8429">
        <ele>326</ele>
        <time>2022-09-14T09:33:26Z</time>
      </trkpt>
      <trkpt lat="43.10766" lon="0.84232">
        <ele>326</ele>
        <time>2022-09-14T09:33:57Z</time>
      </trkpt>
      <trkpt lat="43.10762" lon="0.84192">
        <ele>326</ele>
        <time>2022-09-14T09:34:21Z</time>
      </trkpt>
      <trkpt lat="43.10766" lon="0.84176">
        <ele>326</ele>
        <time>2022-09-14T09:34:30Z</time>
      </trkpt>
      <trkpt lat="43.10763" lon="0.84153">
        <ele>326</ele>
        <time>2022-09-14T09:34:45Z</time>
      </trkpt>
      <trkpt lat="43.10762" lon="0.84129">
        <ele>326</ele>
        <time>2022-09-14T09:35:07Z</time>
      </trkpt>
      <trkpt lat="43.10764" lon="0.84123">
        <ele>326</ele>
        <time>2022-09-14T09:35:11Z</time>
      </trkpt>
      <trkpt lat="43.10763" lon="0.84092">
        <ele>326</ele>
        <time>2022-09-14T09:35:28Z</time>
      </trkpt>
      <trkpt lat="43.1076" lon="0.84078">
        <ele>326</ele>
        <time>2022-09-14T09:35:37Z</time>
      </trkpt>
      <trkpt lat="43.1076" lon="0.84071">
        <ele>326</ele>
        <time>2022-09-14T09:35:41Z</time>
      </trkpt>
      <trkpt lat="43.10758" lon="0.84056">
        <ele>326</ele>
        <time>2022-09-14T09:35:50Z</time>
      </trkpt>
      <trkpt lat="43.10758" lon="0.84041">
        <ele>326</ele>
        <time>2022-09-14T09:35:58Z</time>
      </trkpt>
      <trkpt lat="43.10759" lon="0.84035">
        <ele>326</ele>
        <time>2022-09-14T09:36:01Z</time>
      </trkpt>
      <trkpt lat="43.10759" lon="0.84021">
        <ele>326</ele>
        <time>2022-09-14T09:36:09Z</time>
      </trkpt>
      <trkpt lat="43.10757" lon="0.84011">
        <ele>326</ele>
        <time>2022-09-14T09:36:16Z</time>
      </trkpt>
      <trkpt lat="43.10758" lon="0.8398">
        <ele>326</ele>
        <time>2022-09-14T09:36:36Z</time>
      </trkpt>
      <trkpt lat="43.10756" lon="0.83965">
        <ele>326</ele>
        <time>2022-09-14T09:36:46Z</time>
      </trkpt>
      <trkpt lat="43.10757" lon="0.83958">
        <ele>326</ele>
        <time>2022-09-14T09:36:52Z</time>
      </trkpt>
      <trkpt lat="43.10754" lon="0.83927">
        <ele>326</ele>
        <time>2022-09-14T09:37:09Z</time>
      </trkpt>
      <trkpt lat="43.10754" lon="0.8392">
        <ele>326</ele>
        <time>2022-09-14T09:37:13Z</time>
      </trkpt>
      <trkpt lat="43.10757" lon="0.839">
        <ele>326</ele>
        <time>2022-09-14T09:37:26Z</time>
      </trkpt>
      <trkpt lat="43.10756" lon="0.83892">
        <ele>326</ele>
        <time>2022-09-14T09:37:31Z</time>
      </trkpt>
      <trkpt lat="43.10758" lon="0.83863">
        <ele>326</ele>
        <time>2022-09-14T09:37:46Z</time>
      </trkpt>
      <trkpt lat="43.10757" lon="0.83857">
        <ele>326</ele>
        <time>2022-09-14T09:37:51Z</time>
      </trkpt>
      <trkpt lat="43.10758" lon="0.8384">
        <ele>326</ele>
        <time>2022-09-14T09:38:00Z</time>
      </trkpt>
      <trkpt lat="43.10757" lon="0.83826">
        <ele>326</ele>
        <time>2022-09-14T09:38:08Z</time>
      </trkpt>
      <trkpt lat="43.10757" lon="0.83818">
        <ele>326</ele>
        <time>2022-09-14T09:38:13Z</time>
      </trkpt>
      <trkpt lat="43.10758" lon="0.83766">
        <ele>325</ele>
        <time>2022-09-14T09:38:43Z</time>
      </trkpt>
      <trkpt lat="43.1075" lon="0.83725">
        <ele>325</ele>
        <time>2022-09-14T09:39:09Z</time>
      </trkpt>
      <trkpt lat="43.10749" lon="0.83719">
        <ele>325</ele>
        <time>2022-09-14T09:39:13Z</time>
      </trkpt>
      <trkpt lat="43.10742" lon="0.83717">
        <ele>325</ele>
        <time>2022-09-14T09:39:24Z</time>
      </trkpt>
      <trkpt lat="43.10731" lon="0.83715">
        <ele>325</ele>
        <time>2022-09-14T09:39:33Z</time>
      </trkpt>
      <trkpt lat="43.10726" lon="0.83716">
        <ele>325</ele>
        <time>2022-09-14T09:39:50Z</time>
      </trkpt>
      <trkpt lat="43.10724" lon="0.83708">
        <ele>323</ele>
        <time>2022-09-14T10:00:25Z</time>
      </trkpt>
      <trkpt lat="43.10719" lon="0.83706">
        <ele>324</ele>
        <time>2022-09-14T10:03:49Z</time>
      </trkpt>
      <trkpt lat="43.10714" lon="0.837">
        <ele>324</ele>
        <time>2022-09-14T10:03:58Z</time>
      </trkpt>
      <trkpt lat="43.10708" lon="0.83692">
        <ele>324</ele>
        <time>2022-09-14T10:04:11Z</time>
      </trkpt>
      <trkpt lat="43.10708" lon="0.83682">
        <ele>324</ele>
        <time>2022-09-14T10:04:19Z</time>
      </trkpt>
      <trkpt lat="43.10704" lon="0.83676">
        <ele>324</ele>
        <time>2022-09-14T10:04:25Z</time>
      </trkpt>
      <trkpt lat="43.10669" lon="0.83657">
        <ele>324</ele>
        <time>2022-09-14T10:04:54Z</time>
      </trkpt>
      <trkpt lat="43.10666" lon="0.83649">
        <ele>324</ele>
        <time>2022-09-14T10:05:04Z</time>
      </trkpt>
      <trkpt lat="43.10666" lon="0.83642">
        <ele>324</ele>
        <time>2022-09-14T10:05:09Z</time>
      </trkpt>
      <trkpt lat="43.1067" lon="0.83637">
        <ele>324</ele>
        <time>2022-09-14T10:05:30Z</time>
      </trkpt>
      <trkpt lat="43.10671" lon="0.83624">
        <ele>325</ele>
        <time>2022-09-14T10:06:06Z</time>
      </trkpt>
      <trkpt lat="43.10666" lon="0.8362">
        <ele>325</ele>
        <time>2022-09-14T10:06:09Z</time>
      </trkpt>
      <trkpt lat="43.10662" lon="0.83585">
        <ele>325</ele>
        <time>2022-09-14T10:06:31Z</time>
      </trkpt>
      <trkpt lat="43.10662" lon="0.83578">
        <ele>325</ele>
        <time>2022-09-14T10:06:34Z</time>
      </trkpt>
      <trkpt lat="43.10664" lon="0.8357">
        <ele>325</ele>
        <time>2022-09-14T10:06:39Z</time>
      </trkpt>
      <trkpt lat="43.10664" lon="0.83562">
        <ele>325</ele>
        <time>2022-09-14T10:06:44Z</time>
      </trkpt>
      <trkpt lat="43.10663" lon="0.83553">
        <ele>325</ele>
        <time>2022-09-14T10:06:59Z</time>
      </trkpt>
      <trkpt lat="43.10662" lon="0.83547">
        <ele>325</ele>
        <time>2022-09-14T10:07:05Z</time>
      </trkpt>
      <trkpt lat="43.10659" lon="0.83542">
        <ele>325</ele>
        <time>2022-09-14T10:07:34Z</time>
      </trkpt>
      <trkpt lat="43.10656" lon="0.83512">
        <ele>325</ele>
        <time>2022-09-14T10:07:54Z</time>
      </trkpt>
      <trkpt lat="43.10662" lon="0.83491">
        <ele>325</ele>
        <time>2022-09-14T10:08:08Z</time>
      </trkpt>
      <trkpt lat="43.1066" lon="0.83475">
        <ele>325</ele>
        <time>2022-09-14T10:08:16Z</time>
      </trkpt>
      <trkpt lat="43.1066" lon="0.83468">
        <ele>325</ele>
        <time>2022-09-14T10:08:20Z</time>
      </trkpt>
      <trkpt lat="43.10661" lon="0.83452">
        <ele>326</ele>
        <time>2022-09-14T10:08:29Z</time>
      </trkpt>
      <trkpt lat="43.10659" lon="0.83445">
        <ele>325</ele>
        <time>2022-09-14T10:08:33Z</time>
      </trkpt>
      <trkpt lat="43.10661" lon="0.83431">
        <ele>325</ele>
        <time>2022-09-14T10:08:40Z</time>
      </trkpt>
      <trkpt lat="43.1067" lon="0.83402">
        <ele>325</ele>
        <time>2022-09-14T10:08:59Z</time>
      </trkpt>
      <trkpt lat="43.10674" lon="0.83398">
        <ele>325</ele>
        <time>2022-09-14T10:09:12Z</time>
      </trkpt>
      <trkpt lat="43.10687" lon="0.83371">
        <ele>325</ele>
        <time>2022-09-14T10:09:30Z</time>
      </trkpt>
      <trkpt lat="43.10713" lon="0.83331">
        <ele>325</ele>
        <time>2022-09-14T10:10:01Z</time>
      </trkpt>
      <trkpt lat="43.10716" lon="0.83325">
        <ele>325</ele>
        <time>2022-09-14T10:10:05Z</time>
      </trkpt>
      <trkpt lat="43.10722" lon="0.83316">
        <ele>325</ele>
        <time>2022-09-14T10:10:13Z</time>
      </trkpt>
      <trkpt lat="43.10724" lon="0.83309">
        <ele>325</ele>
        <time>2022-09-14T10:10:17Z</time>
      </trkpt>
      <trkpt lat="43.1073" lon="0.83297">
        <ele>325</ele>
        <time>2022-09-14T10:10:27Z</time>
      </trkpt>
      <trkpt lat="43.10738" lon="0.83256">
        <ele>325</ele>
        <time>2022-09-14T10:10:50Z</time>
      </trkpt>
      <trkpt lat="43.10746" lon="0.83237">
        <ele>325</ele>
        <time>2022-09-14T10:11:03Z</time>
      </trkpt>
      <trkpt lat="43.1075" lon="0.83217">
        <ele>326</ele>
        <time>2022-09-14T10:11:15Z</time>
      </trkpt>
      <trkpt lat="43.10752" lon="0.83212">
        <ele>326</ele>
        <time>2022-09-14T10:11:19Z</time>
      </trkpt>
      <trkpt lat="43.10758" lon="0.8319">
        <ele>326</ele>
        <time>2022-09-14T10:11:32Z</time>
      </trkpt>
      <trkpt lat="43.10759" lon="0.83184">
        <ele>326</ele>
        <time>2022-09-14T10:11:36Z</time>
      </trkpt>
      <trkpt lat="43.10762" lon="0.83178">
        <ele>326</ele>
        <time>2022-09-14T10:11:40Z</time>
      </trkpt>
      <trkpt lat="43.10763" lon="0.83162">
        <ele>326</ele>
        <time>2022-09-14T10:11:48Z</time>
      </trkpt>
      <trkpt lat="43.10761" lon="0.83155">
        <ele>326</ele>
        <time>2022-09-14T10:11:52Z</time>
      </trkpt>
      <trkpt lat="43.10762" lon="0.83147">
        <ele>326</ele>
        <time>2022-09-14T10:11:57Z</time>
      </trkpt>
      <trkpt lat="43.1076" lon="0.83126">
        <ele>326</ele>
        <time>2022-09-14T10:12:09Z</time>
      </trkpt>
      <trkpt lat="43.10759" lon="0.83119">
        <ele>326</ele>
        <time>2022-09-14T10:12:13Z</time>
      </trkpt>
      <trkpt lat="43.10754" lon="0.83066">
        <ele>326</ele>
        <time>2022-09-14T10:12:44Z</time>
      </trkpt>
      <trkpt lat="43.10743" lon="0.83006">
        <ele>326</ele>
        <time>2022-09-14T10:13:18Z</time>
      </trkpt>
      <trkpt lat="43.1074" lon="0.82993">
        <ele>327</ele>
        <time>2022-09-14T10:13:26Z</time>
      </trkpt>
      <trkpt lat="43.10726" lon="0.82956">
        <ele>327</ele>
        <time>2022-09-14T10:13:52Z</time>
      </trkpt>
      <trkpt lat="43.10699" lon="0.82913">
        <ele>327</ele>
        <time>2022-09-14T10:14:24Z</time>
      </trkpt>
      <trkpt lat="43.10692" lon="0.82904">
        <ele>327</ele>
        <time>2022-09-14T10:14:30Z</time>
      </trkpt>
      <trkpt lat="43.10667" lon="0.82859">
        <ele>327</ele>
        <time>2022-09-14T10:15:04Z</time>
      </trkpt>
      <trkpt lat="43.1066" lon="0.82837">
        <ele>327</ele>
        <time>2022-09-14T10:15:18Z</time>
      </trkpt>
      <trkpt lat="43.10647" lon="0.82783">
        <ele>328</ele>
        <time>2022-09-14T10:15:51Z</time>
      </trkpt>
      <trkpt lat="43.10643" lon="0.82777">
        <ele>328</ele>
        <time>2022-09-14T10:15:55Z</time>
      </trkpt>
      <trkpt lat="43.10639" lon="0.82755">
        <ele>328</ele>
        <time>2022-09-14T10:16:11Z</time>
      </trkpt>
      <trkpt lat="43.10639" lon="0.82747">
        <ele>328</ele>
        <time>2022-09-14T10:16:15Z</time>
      </trkpt>
      <trkpt lat="43.10635" lon="0.82704">
        <ele>330</ele>
        <time>2022-09-14T10:17:04Z</time>
      </trkpt>
      <trkpt lat="43.10639" lon="0.82695">
        <ele>329</ele>
        <time>2022-09-14T10:17:53Z</time>
      </trkpt>
      <trkpt lat="43.10644" lon="0.82691">
        <ele>329</ele>
        <time>2022-09-14T10:17:57Z</time>
      </trkpt>
      <trkpt lat="43.1065" lon="0.82678">
        <ele>330</ele>
        <time>2022-09-14T10:18:06Z</time>
      </trkpt>
      <trkpt lat="43.10654" lon="0.82675">
        <ele>330</ele>
        <time>2022-09-14T10:18:11Z</time>
      </trkpt>
      <trkpt lat="43.10669" lon="0.82655">
        <ele>332</ele>
        <time>2022-09-14T10:18:34Z</time>
      </trkpt>
      <trkpt lat="43.10679" lon="0.82633">
        <ele>334</ele>
        <time>2022-09-14T10:18:57Z</time>
      </trkpt>
      <trkpt lat="43.10679" lon="0.82625">
        <ele>335</ele>
        <time>2022-09-14T10:19:02Z</time>
      </trkpt>
      <trkpt lat="43.10688" lon="0.82592">
        <ele>338</ele>
        <time>2022-09-14T10:19:33Z</time>
      </trkpt>
      <trkpt lat="43.10695" lon="0.82572">
        <ele>340</ele>
        <time>2022-09-14T10:19:54Z</time>
      </trkpt>
      <trkpt lat="43.10698" lon="0.8256">
        <ele>341</ele>
        <time>2022-09-14T10:20:06Z</time>
      </trkpt>
      <trkpt lat="43.10698" lon="0.82548">
        <ele>342</ele>
        <time>2022-09-14T10:20:18Z</time>
      </trkpt>
      <trkpt lat="43.10709" lon="0.82514">
        <ele>345</ele>
        <time>2022-09-14T10:20:49Z</time>
      </trkpt>
      <trkpt lat="43.10715" lon="0.82513">
        <ele>346</ele>
        <time>2022-09-14T10:21:33Z</time>
      </trkpt>
      <trkpt lat="43.10716" lon="0.82504">
        <ele>346</ele>
        <time>2022-09-14T10:21:45Z</time>
      </trkpt>
      <trkpt lat="43.10725" lon="0.82477">
        <ele>348</ele>
        <time>2022-09-14T10:22:08Z</time>
      </trkpt>
      <trkpt lat="43.10732" lon="0.82465">
        <ele>349</ele>
        <time>2022-09-14T10:22:19Z</time>
      </trkpt>
      <trkpt lat="43.10736" lon="0.82452">
        <ele>349</ele>
        <time>2022-09-14T10:22:29Z</time>
      </trkpt>
      <trkpt lat="43.10739" lon="0.82447">
        <ele>350</ele>
        <time>2022-09-14T10:22:34Z</time>
      </trkpt>
      <trkpt lat="43.10744" lon="0.82432">
        <ele>351</ele>
        <time>2022-09-14T10:22:45Z</time>
      </trkpt>
      <trkpt lat="43.10754" lon="0.82415">
        <ele>352</ele>
        <time>2022-09-14T10:23:03Z</time>
      </trkpt>
      <trkpt lat="43.1076" lon="0.82401">
        <ele>352</ele>
        <time>2022-09-14T10:23:12Z</time>
      </trkpt>
      <trkpt lat="43.10766" lon="0.82391">
        <ele>352</ele>
        <time>2022-09-14T10:23:21Z</time>
      </trkpt>
      <trkpt lat="43.10768" lon="0.82385">
        <ele>353</ele>
        <time>2022-09-14T10:23:25Z</time>
      </trkpt>
      <trkpt lat="43.10789" lon="0.82342">
        <ele>354</ele>
        <time>2022-09-14T10:23:59Z</time>
      </trkpt>
      <trkpt lat="43.10801" lon="0.82317">
        <ele>355</ele>
        <time>2022-09-14T10:24:17Z</time>
      </trkpt>
      <trkpt lat="43.10803" lon="0.8231">
        <ele>356</ele>
        <time>2022-09-14T10:24:22Z</time>
      </trkpt>
      <trkpt lat="43.10806" lon="0.82305">
        <ele>356</ele>
        <time>2022-09-14T10:24:26Z</time>
      </trkpt>
      <trkpt lat="43.10822" lon="0.82261">
        <ele>357</ele>
        <time>2022-09-14T10:24:58Z</time>
      </trkpt>
      <trkpt lat="43.10827" lon="0.82249">
        <ele>357</ele>
        <time>2022-09-14T10:25:06Z</time>
      </trkpt>
      <trkpt lat="43.1083" lon="0.82244">
        <ele>357</ele>
        <time>2022-09-14T10:25:10Z</time>
      </trkpt>
      <trkpt lat="43.10836" lon="0.8221">
        <ele>357</ele>
        <time>2022-09-14T10:25:31Z</time>
      </trkpt>
      <trkpt lat="43.10839" lon="0.82204">
        <ele>357</ele>
        <time>2022-09-14T10:25:35Z</time>
      </trkpt>
      <trkpt lat="43.1085" lon="0.82151">
        <ele>356</ele>
        <time>2022-09-14T10:26:08Z</time>
      </trkpt>
      <trkpt lat="43.10851" lon="0.82144">
        <ele>356</ele>
        <time>2022-09-14T10:26:13Z</time>
      </trkpt>
      <trkpt lat="43.10857" lon="0.82131">
        <ele>356</ele>
        <time>2022-09-14T10:26:23Z</time>
      </trkpt>
      <trkpt lat="43.10856" lon="0.82121">
        <ele>356</ele>
        <time>2022-09-14T10:26:31Z</time>
      </trkpt>
      <trkpt lat="43.10847" lon="0.82098">
        <ele>353</ele>
        <time>2022-09-14T10:26:50Z</time>
      </trkpt>
      <trkpt lat="43.10841" lon="0.82038">
        <ele>351</ele>
        <time>2022-09-14T10:27:25Z</time>
      </trkpt>
      <trkpt lat="43.1084" lon="0.82015">
        <ele>350</ele>
        <time>2022-09-14T10:27:38Z</time>
      </trkpt>
      <trkpt lat="43.10841" lon="0.81989">
        <ele>350</ele>
        <time>2022-09-14T10:27:56Z</time>
      </trkpt>
      <trkpt lat="43.10837" lon="0.81959">
        <ele>350</ele>
        <time>2022-09-14T10:28:15Z</time>
      </trkpt>
      <trkpt lat="43.10834" lon="0.81927">
        <ele>351</ele>
        <time>2022-09-14T10:28:38Z</time>
      </trkpt>
      <trkpt lat="43.10824" lon="0.81899">
        <ele>351</ele>
        <time>2022-09-14T10:29:01Z</time>
      </trkpt>
      <trkpt lat="43.10818" lon="0.81876">
        <ele>353</ele>
        <time>2022-09-14T10:29:20Z</time>
      </trkpt>
      <trkpt lat="43.10815" lon="0.81868">
        <ele>353</ele>
        <time>2022-09-14T10:29:26Z</time>
      </trkpt>
      <trkpt lat="43.10809" lon="0.81827">
        <ele>354</ele>
        <time>2022-09-14T10:29:58Z</time>
      </trkpt>
      <trkpt lat="43.10808" lon="0.8182">
        <ele>354</ele>
        <time>2022-09-14T10:30:03Z</time>
      </trkpt>
      <trkpt lat="43.10809" lon="0.81812">
        <ele>355</ele>
        <time>2022-09-14T10:30:09Z</time>
      </trkpt>
      <trkpt lat="43.10807" lon="0.81805">
        <ele>355</ele>
        <time>2022-09-14T10:30:14Z</time>
      </trkpt>
      <trkpt lat="43.10805" lon="0.81789">
        <ele>355</ele>
        <time>2022-09-14T10:30:22Z</time>
      </trkpt>
      <trkpt lat="43.10806" lon="0.8178">
        <ele>355</ele>
        <time>2022-09-14T10:30:28Z</time>
      </trkpt>
      <trkpt lat="43.10805" lon="0.81773">
        <ele>355</ele>
        <time>2022-09-14T10:30:33Z</time>
      </trkpt>
      <trkpt lat="43.10805" lon="0.81764">
        <ele>355</ele>
        <time>2022-09-14T10:30:48Z</time>
      </trkpt>
      <trkpt lat="43.10804" lon="0.81746">
        <ele>355</ele>
        <time>2022-09-14T10:31:08Z</time>
      </trkpt>
      <trkpt lat="43.10805" lon="0.8173">
        <ele>355</ele>
        <time>2022-09-14T10:31:17Z</time>
      </trkpt>
      <trkpt lat="43.10804" lon="0.81723">
        <ele>355</ele>
        <time>2022-09-14T10:31:22Z</time>
      </trkpt>
      <trkpt lat="43.10805" lon="0.81703">
        <ele>355</ele>
        <time>2022-09-14T10:31:37Z</time>
      </trkpt>
      <trkpt lat="43.10803" lon="0.81687">
        <ele>355</ele>
        <time>2022-09-14T10:31:48Z</time>
      </trkpt>
      <trkpt lat="43.10802" lon="0.8163">
        <ele>355</ele>
        <time>2022-09-14T10:32:21Z</time>
      </trkpt>
      <trkpt lat="43.10804" lon="0.81622">
        <ele>355</ele>
        <time>2022-09-14T10:32:26Z</time>
      </trkpt>
      <trkpt lat="43.10805" lon="0.81614">
        <ele>355</ele>
        <time>2022-09-14T10:32:31Z</time>
      </trkpt>
      <trkpt lat="43.10819" lon="0.81568">
        <ele>354</ele>
        <time>2022-09-14T10:33:03Z</time>
      </trkpt>
      <trkpt lat="43.10827" lon="0.81525">
        <ele>354</ele>
        <time>2022-09-14T10:33:29Z</time>
      </trkpt>
      <trkpt lat="43.10827" lon="0.81517">
        <ele>354</ele>
        <time>2022-09-14T10:33:34Z</time>
      </trkpt>
      <trkpt lat="43.10828" lon="0.8151">
        <ele>354</ele>
        <time>2022-09-14T10:33:38Z</time>
      </trkpt>
      <trkpt lat="43.10828" lon="0.81493">
        <ele>354</ele>
        <time>2022-09-14T10:33:49Z</time>
      </trkpt>
      <trkpt lat="43.10832" lon="0.81443">
        <ele>354</ele>
        <time>2022-09-14T10:34:21Z</time>
      </trkpt>
      <trkpt lat="43.10837" lon="0.8139">
        <ele>354</ele>
        <time>2022-09-14T10:34:55Z</time>
      </trkpt>
      <trkpt lat="43.10844" lon="0.81332">
        <ele>354</ele>
        <time>2022-09-14T10:35:30Z</time>
      </trkpt>
      <trkpt lat="43.10846" lon="0.81306">
        <ele>354</ele>
        <time>2022-09-14T10:35:53Z</time>
      </trkpt>
      <trkpt lat="43.10854" lon="0.8125">
        <ele>355</ele>
        <time>2022-09-14T10:36:32Z</time>
      </trkpt>
      <trkpt lat="43.10863" lon="0.81203">
        <ele>355</ele>
        <time>2022-09-14T10:37:03Z</time>
      </trkpt>
      <trkpt lat="43.10865" lon="0.81197">
        <ele>355</ele>
        <time>2022-09-14T10:37:08Z</time>
      </trkpt>
      <trkpt lat="43.10866" lon="0.81175">
        <ele>356</ele>
        <time>2022-09-14T10:37:23Z</time>
      </trkpt>
      <trkpt lat="43.10868" lon="0.81168">
        <ele>356</ele>
        <time>2022-09-14T10:37:28Z</time>
      </trkpt>
      <trkpt lat="43.10866" lon="0.81119">
        <ele>356</ele>
        <time>2022-09-14T10:37:59Z</time>
      </trkpt>
      <trkpt lat="43.10864" lon="0.81069">
        <ele>356</ele>
        <time>2022-09-14T10:38:31Z</time>
      </trkpt>
      <trkpt lat="43.10865" lon="0.8102">
        <ele>357</ele>
        <time>2022-09-14T10:39:04Z</time>
      </trkpt>
      <trkpt lat="43.10866" lon="0.81004">
        <ele>356</ele>
        <time>2022-09-14T10:39:12Z</time>
      </trkpt>
      <trkpt lat="43.10864" lon="0.80997">
        <ele>357</ele>
        <time>2022-09-14T10:39:18Z</time>
      </trkpt>
      <trkpt lat="43.10865" lon="0.80987">
        <ele>357</ele>
        <time>2022-09-14T10:39:28Z</time>
      </trkpt>
      <trkpt lat="43.10866" lon="0.80966">
        <ele>357</ele>
        <time>2022-09-14T10:39:45Z</time>
      </trkpt>
      <trkpt lat="43.10865" lon="0.80938">
        <ele>357</ele>
        <time>2022-09-14T10:40:04Z</time>
      </trkpt>
      <trkpt lat="43.10866" lon="0.809">
        <ele>358</ele>
        <time>2022-09-14T10:40:31Z</time>
      </trkpt>
      <trkpt lat="43.10866" lon="0.80893">
        <ele>360</ele>
        <time>2022-09-14T10:42:40Z</time>
      </trkpt>
      <trkpt lat="43.10865" lon="0.80879">
        <ele>360</ele>
        <time>2022-09-14T10:42:51Z</time>
      </trkpt>
      <trkpt lat="43.10868" lon="0.80863">
        <ele>360</ele>
        <time>2022-09-14T10:43:03Z</time>
      </trkpt>
      <trkpt lat="43.10868" lon="0.80855">
        <ele>360</ele>
        <time>2022-09-14T10:43:07Z</time>
      </trkpt>
      <trkpt lat="43.10869" lon="0.80848">
        <ele>361</ele>
        <time>2022-09-14T10:43:11Z</time>
      </trkpt>
      <trkpt lat="43.10866" lon="0.80819">
        <ele>361</ele>
        <time>2022-09-14T10:43:26Z</time>
      </trkpt>
      <trkpt lat="43.1087" lon="0.8079">
        <ele>361</ele>
        <time>2022-09-14T10:43:43Z</time>
      </trkpt>
      <trkpt lat="43.10869" lon="0.80776">
        <ele>361</ele>
        <time>2022-09-14T10:43:52Z</time>
      </trkpt>
      <trkpt lat="43.10871" lon="0.80761">
        <ele>362</ele>
        <time>2022-09-14T10:44:01Z</time>
      </trkpt>
      <trkpt lat="43.1087" lon="0.80744">
        <ele>362</ele>
        <time>2022-09-14T10:44:10Z</time>
      </trkpt>
      <trkpt lat="43.1087" lon="0.80737">
        <ele>362</ele>
        <time>2022-09-14T10:44:15Z</time>
      </trkpt>
      <trkpt lat="43.10869" lon="0.80731">
        <ele>362</ele>
        <time>2022-09-14T10:44:20Z</time>
      </trkpt>
      <trkpt lat="43.1087" lon="0.80724">
        <ele>362</ele>
        <time>2022-09-14T10:44:24Z</time>
      </trkpt>
      <trkpt lat="43.10869" lon="0.80703">
        <ele>362</ele>
        <time>2022-09-14T10:44:37Z</time>
      </trkpt>
      <trkpt lat="43.1087" lon="0.80696">
        <ele>362</ele>
        <time>2022-09-14T10:44:41Z</time>
      </trkpt>
      <trkpt lat="43.10867" lon="0.80676">
        <ele>362</ele>
        <time>2022-09-14T10:44:53Z</time>
      </trkpt>
      <trkpt lat="43.1087" lon="0.80651">
        <ele>362</ele>
        <time>2022-09-14T10:45:08Z</time>
      </trkpt>
      <trkpt lat="43.1087" lon="0.80643">
        <ele>362</ele>
        <time>2022-09-14T10:45:13Z</time>
      </trkpt>
      <trkpt lat="43.10872" lon="0.80635">
        <ele>362</ele>
        <time>2022-09-14T10:45:17Z</time>
      </trkpt>
      <trkpt lat="43.10871" lon="0.80627">
        <ele>363</ele>
        <time>2022-09-14T10:45:22Z</time>
      </trkpt>
      <trkpt lat="43.10873" lon="0.80619">
        <ele>363</ele>
        <time>2022-09-14T10:45:28Z</time>
      </trkpt>
      <trkpt lat="43.10872" lon="0.80596">
        <ele>363</ele>
        <time>2022-09-14T10:45:39Z</time>
      </trkpt>
      <trkpt lat="43.10873" lon="0.80588">
        <ele>363</ele>
        <time>2022-09-14T10:45:43Z</time>
      </trkpt>
      <trkpt lat="43.10871" lon="0.80582">
        <ele>363</ele>
        <time>2022-09-14T10:45:47Z</time>
      </trkpt>
      <trkpt lat="43.10872" lon="0.80575">
        <ele>363</ele>
        <time>2022-09-14T10:45:52Z</time>
      </trkpt>
      <trkpt lat="43.10875" lon="0.80562">
        <ele>363</ele>
        <time>2022-09-14T10:46:00Z</time>
      </trkpt>
      <trkpt lat="43.10877" lon="0.80518">
        <ele>364</ele>
        <time>2022-09-14T10:46:30Z</time>
      </trkpt>
      <trkpt lat="43.10875" lon="0.80467">
        <ele>363</ele>
        <time>2022-09-14T10:47:00Z</time>
      </trkpt>
      <trkpt lat="43.10876" lon="0.80459">
        <ele>363</ele>
        <time>2022-09-14T10:47:05Z</time>
      </trkpt>
      <trkpt lat="43.10878" lon="0.80463">
        <ele>364</ele>
        <time>2022-09-14T10:47:28Z</time>
      </trkpt>
      <trkpt lat="43.10884" lon="0.8051">
        <ele>363</ele>
        <time>2022-09-14T10:47:57Z</time>
      </trkpt>
      <trkpt lat="43.10881" lon="0.80533">
        <ele>363</ele>
        <time>2022-09-14T10:48:11Z</time>
      </trkpt>
      <trkpt lat="43.10878" lon="0.80538">
        <ele>363</ele>
        <time>2022-09-14T10:48:15Z</time>
      </trkpt>
      <trkpt lat="43.10867" lon="0.80543">
        <ele>363</ele>
        <time>2022-09-14T10:48:24Z</time>
      </trkpt>
      <trkpt lat="43.10861" lon="0.80543">
        <ele>363</ele>
        <time>2022-09-14T10:48:29Z</time>
      </trkpt>
      <trkpt lat="43.10827" lon="0.80563">
        <ele>363</ele>
        <time>2022-09-14T10:49:00Z</time>
      </trkpt>
      <trkpt lat="43.10821" lon="0.80567">
        <ele>363</ele>
        <time>2022-09-14T10:49:06Z</time>
      </trkpt>
      <trkpt lat="43.10815" lon="0.80573">
        <ele>363</ele>
        <time>2022-09-14T10:49:11Z</time>
      </trkpt>
      <trkpt lat="43.10802" lon="0.8058">
        <ele>362</ele>
        <time>2022-09-14T10:49:26Z</time>
      </trkpt>
      <trkpt lat="43.10796" lon="0.8058">
        <ele>361</ele>
        <time>2022-09-14T10:49:33Z</time>
      </trkpt>
      <trkpt lat="43.1079" lon="0.80582">
        <ele>360</ele>
        <time>2022-09-14T10:49:39Z</time>
      </trkpt>
      <trkpt lat="43.10774" lon="0.80578">
        <ele>359</ele>
        <time>2022-09-14T10:49:52Z</time>
      </trkpt>
      <trkpt lat="43.10768" lon="0.80574">
        <ele>357</ele>
        <time>2022-09-14T10:49:58Z</time>
      </trkpt>
      <trkpt lat="43.10762" lon="0.80567">
        <ele>356</ele>
        <time>2022-09-14T10:50:07Z</time>
      </trkpt>
      <trkpt lat="43.10748" lon="0.80538">
        <ele>352</ele>
        <time>2022-09-14T10:50:33Z</time>
      </trkpt>
      <trkpt lat="43.10741" lon="0.80534">
        <ele>351</ele>
        <time>2022-09-14T10:50:42Z</time>
      </trkpt>
      <trkpt lat="43.10714" lon="0.8055">
        <ele>346</ele>
        <time>2022-09-14T10:51:15Z</time>
      </trkpt>
      <trkpt lat="43.10676" lon="0.80564">
        <ele>341</ele>
        <time>2022-09-14T10:51:51Z</time>
      </trkpt>
      <trkpt lat="43.10659" lon="0.8057">
        <ele>338</ele>
        <time>2022-09-14T10:52:14Z</time>
      </trkpt>
      <trkpt lat="43.10647" lon="0.80576">
        <ele>335</ele>
        <time>2022-09-14T10:52:28Z</time>
      </trkpt>
      <trkpt lat="43.10623" lon="0.80597">
        <ele>332</ele>
        <time>2022-09-14T10:52:55Z</time>
      </trkpt>
      <trkpt lat="43.10589" lon="0.80613">
        <ele>331</ele>
        <time>2022-09-14T10:53:24Z</time>
      </trkpt>
      <trkpt lat="43.10583" lon="0.80609">
        <ele>331</ele>
        <time>2022-09-14T10:53:29Z</time>
      </trkpt>
      <trkpt lat="43.1058" lon="0.80603">
        <ele>331</ele>
        <time>2022-09-14T10:53:32Z</time>
      </trkpt>
      <trkpt lat="43.10576" lon="0.80589">
        <ele>331</ele>
        <time>2022-09-14T10:53:39Z</time>
      </trkpt>
      <trkpt lat="43.10574" lon="0.80575">
        <ele>331</ele>
        <time>2022-09-14T10:53:46Z</time>
      </trkpt>
      <trkpt lat="43.10583" lon="0.80519">
        <ele>331</ele>
        <time>2022-09-14T10:54:20Z</time>
      </trkpt>
      <trkpt lat="43.10588" lon="0.80468">
        <ele>331</ele>
        <time>2022-09-14T10:54:52Z</time>
      </trkpt>
      <trkpt lat="43.10587" lon="0.80458">
        <ele>332</ele>
        <time>2022-09-14T10:55:00Z</time>
      </trkpt>
      <trkpt lat="43.10587" lon="0.80451">
        <ele>333</ele>
        <time>2022-09-14T10:55:08Z</time>
      </trkpt>
      <trkpt lat="43.10586" lon="0.80444">
        <ele>333</ele>
        <time>2022-09-14T10:55:12Z</time>
      </trkpt>
      <trkpt lat="43.10591" lon="0.80416">
        <ele>332</ele>
        <time>2022-09-14T10:55:29Z</time>
      </trkpt>
      <trkpt lat="43.10594" lon="0.80402">
        <ele>332</ele>
        <time>2022-09-14T10:55:38Z</time>
      </trkpt>
      <trkpt lat="43.10597" lon="0.8035">
        <ele>332</ele>
        <time>2022-09-14T10:56:10Z</time>
      </trkpt>
      <trkpt lat="43.10597" lon="0.80343">
        <ele>332</ele>
        <time>2022-09-14T10:56:14Z</time>
      </trkpt>
      <trkpt lat="43.10599" lon="0.80328">
        <ele>332</ele>
        <time>2022-09-14T10:56:22Z</time>
      </trkpt>
      <trkpt lat="43.10599" lon="0.80301">
        <ele>332</ele>
        <time>2022-09-14T10:56:39Z</time>
      </trkpt>
      <trkpt lat="43.106" lon="0.80294">
        <ele>332</ele>
        <time>2022-09-14T10:56:43Z</time>
      </trkpt>
      <trkpt lat="43.106" lon="0.80287">
        <ele>332</ele>
        <time>2022-09-14T10:56:47Z</time>
      </trkpt>
      <trkpt lat="43.10602" lon="0.80281">
        <ele>332</ele>
        <time>2022-09-14T10:56:55Z</time>
      </trkpt>
      <trkpt lat="43.10603" lon="0.80273">
        <ele>332</ele>
        <time>2022-09-14T10:57:02Z</time>
      </trkpt>
      <trkpt lat="43.10599" lon="0.80244">
        <ele>332</ele>
        <time>2022-09-14T10:57:19Z</time>
      </trkpt>
      <trkpt lat="43.106" lon="0.80234">
        <ele>332</ele>
        <time>2022-09-14T10:57:28Z</time>
      </trkpt>
      <trkpt lat="43.106" lon="0.80227">
        <ele>333</ele>
        <time>2022-09-14T10:57:32Z</time>
      </trkpt>
      <trkpt lat="43.10601" lon="0.80219">
        <ele>333</ele>
        <time>2022-09-14T10:57:37Z</time>
      </trkpt>
      <trkpt lat="43.10601" lon="0.8018">
        <ele>333</ele>
        <time>2022-09-14T10:58:01Z</time>
      </trkpt>
      <trkpt lat="43.10602" lon="0.80157">
        <ele>334</ele>
        <time>2022-09-14T10:58:25Z</time>
      </trkpt>
      <trkpt lat="43.10602" lon="0.8015">
        <ele>334</ele>
        <time>2022-09-14T10:58:29Z</time>
      </trkpt>
      <trkpt lat="43.10602" lon="0.8014">
        <ele>335</ele>
        <time>2022-09-14T10:59:24Z</time>
      </trkpt>
      <trkpt lat="43.10592" lon="0.80082">
        <ele>335</ele>
        <time>2022-09-14T10:59:58Z</time>
      </trkpt>
      <trkpt lat="43.10593" lon="0.80073">
        <ele>335</ele>
        <time>2022-09-14T11:00:04Z</time>
      </trkpt>
      <trkpt lat="43.10588" lon="0.80021">
        <ele>335</ele>
        <time>2022-09-14T11:00:36Z</time>
      </trkpt>
      <trkpt lat="43.10585" lon="0.79971">
        <ele>334</ele>
        <time>2022-09-14T11:01:08Z</time>
      </trkpt>
      <trkpt lat="43.10579" lon="0.7995">
        <ele>334</ele>
        <time>2022-09-14T11:01:19Z</time>
      </trkpt>
      <trkpt lat="43.10578" lon="0.79931">
        <ele>334</ele>
        <time>2022-09-14T11:01:30Z</time>
      </trkpt>
      <trkpt lat="43.10573" lon="0.7991">
        <ele>334</ele>
        <time>2022-09-14T11:01:45Z</time>
      </trkpt>
      <trkpt lat="43.10572" lon="0.79896">
        <ele>335</ele>
        <time>2022-09-14T11:01:53Z</time>
      </trkpt>
      <trkpt lat="43.10565" lon="0.79861">
        <ele>335</ele>
        <time>2022-09-14T11:02:16Z</time>
      </trkpt>
      <trkpt lat="43.10565" lon="0.79853">
        <ele>335</ele>
        <time>2022-09-14T11:02:20Z</time>
      </trkpt>
      <trkpt lat="43.1055" lon="0.79804">
        <ele>337</ele>
        <time>2022-09-14T11:02:51Z</time>
      </trkpt>
      <trkpt lat="43.10543" lon="0.7978">
        <ele>337</ele>
        <time>2022-09-14T11:03:06Z</time>
      </trkpt>
      <trkpt lat="43.10528" lon="0.79743">
        <ele>337</ele>
        <time>2022-09-14T11:03:31Z</time>
      </trkpt>
      <trkpt lat="43.10526" lon="0.79735">
        <ele>337</ele>
        <time>2022-09-14T11:03:36Z</time>
      </trkpt>
      <trkpt lat="43.10511" lon="0.79681">
        <ele>338</ele>
        <time>2022-09-14T11:04:12Z</time>
      </trkpt>
      <trkpt lat="43.10494" lon="0.79635">
        <ele>337</ele>
        <time>2022-09-14T11:04:43Z</time>
      </trkpt>
      <trkpt lat="43.10473" lon="0.79586">
        <ele>338</ele>
        <time>2022-09-14T11:05:17Z</time>
      </trkpt>
      <trkpt lat="43.10465" lon="0.79575">
        <ele>338</ele>
        <time>2022-09-14T11:05:26Z</time>
      </trkpt>
      <trkpt lat="43.10464" lon="0.79567">
        <ele>339</ele>
        <time>2022-09-14T11:05:31Z</time>
      </trkpt>
      <trkpt lat="43.10441" lon="0.79517">
        <ele>339</ele>
        <time>2022-09-14T11:06:05Z</time>
      </trkpt>
      <trkpt lat="43.10415" lon="0.79474">
        <ele>338</ele>
        <time>2022-09-14T11:06:39Z</time>
      </trkpt>
      <trkpt lat="43.10411" lon="0.79468">
        <ele>338</ele>
        <time>2022-09-14T11:06:44Z</time>
      </trkpt>
      <trkpt lat="43.10403" lon="0.79447">
        <ele>338</ele>
        <time>2022-09-14T11:06:57Z</time>
      </trkpt>
      <trkpt lat="43.10381" lon="0.79406">
        <ele>338</ele>
        <time>2022-09-14T11:07:27Z</time>
      </trkpt>
      <trkpt lat="43.10378" lon="0.79401">
        <ele>338</ele>
        <time>2022-09-14T11:07:31Z</time>
      </trkpt>
      <trkpt lat="43.10373" lon="0.79396">
        <ele>338</ele>
        <time>2022-09-14T11:07:36Z</time>
      </trkpt>
      <trkpt lat="43.1036" lon="0.79369">
        <ele>338</ele>
        <time>2022-09-14T11:07:53Z</time>
      </trkpt>
      <trkpt lat="43.10345" lon="0.79349">
        <ele>338</ele>
        <time>2022-09-14T11:08:11Z</time>
      </trkpt>
      <trkpt lat="43.10344" lon="0.79343">
        <ele>338</ele>
        <time>2022-09-14T11:08:15Z</time>
      </trkpt>
      <trkpt lat="43.10333" lon="0.79327">
        <ele>339</ele>
        <time>2022-09-14T11:08:28Z</time>
      </trkpt>
      <trkpt lat="43.10328" lon="0.79312">
        <ele>339</ele>
        <time>2022-09-14T11:08:40Z</time>
      </trkpt>
      <trkpt lat="43.10322" lon="0.79306">
        <ele>339</ele>
        <time>2022-09-14T11:08:45Z</time>
      </trkpt>
      <trkpt lat="43.1032" lon="0.793">
        <ele>338</ele>
        <time>2022-09-14T11:08:49Z</time>
      </trkpt>
      <trkpt lat="43.10313" lon="0.79296">
        <ele>338</ele>
        <time>2022-09-14T11:08:59Z</time>
      </trkpt>
      <trkpt lat="43.10297" lon="0.79307">
        <ele>338</ele>
        <time>2022-09-14T11:10:14Z</time>
      </trkpt>
      <trkpt lat="43.10292" lon="0.79309">
        <ele>338</ele>
        <time>2022-09-14T11:10:18Z</time>
      </trkpt>
      <trkpt lat="43.10271" lon="0.79271">
        <ele>338</ele>
        <time>2022-09-14T11:10:52Z</time>
      </trkpt>
      <trkpt lat="43.10261" lon="0.79257">
        <ele>338</ele>
        <time>2022-09-14T11:11:03Z</time>
      </trkpt>
      <trkpt lat="43.1025" lon="0.79238">
        <ele>338</ele>
        <time>2022-09-14T11:11:17Z</time>
      </trkpt>
      <trkpt lat="43.10243" lon="0.79228">
        <ele>338</ele>
        <time>2022-09-14T11:11:26Z</time>
      </trkpt>
      <trkpt lat="43.10239" lon="0.79222">
        <ele>338</ele>
        <time>2022-09-14T11:11:30Z</time>
      </trkpt>
      <trkpt lat="43.1021" lon="0.79189">
        <ele>338</ele>
        <time>2022-09-14T11:12:01Z</time>
      </trkpt>
      <trkpt lat="43.10203" lon="0.79179">
        <ele>339</ele>
        <time>2022-09-14T11:12:09Z</time>
      </trkpt>
      <trkpt lat="43.10197" lon="0.79167">
        <ele>338</ele>
        <time>2022-09-14T11:12:18Z</time>
      </trkpt>
      <trkpt lat="43.10186" lon="0.79155">
        <ele>338</ele>
        <time>2022-09-14T11:12:30Z</time>
      </trkpt>
      <trkpt lat="43.10183" lon="0.79149">
        <ele>338</ele>
        <time>2022-09-14T11:12:34Z</time>
      </trkpt>
      <trkpt lat="43.10178" lon="0.79134">
        <ele>338</ele>
        <time>2022-09-14T11:12:43Z</time>
      </trkpt>
      <trkpt lat="43.10162" lon="0.79114">
        <ele>339</ele>
        <time>2022-09-14T11:13:01Z</time>
      </trkpt>
      <trkpt lat="43.10144" lon="0.7908">
        <ele>338</ele>
        <time>2022-09-14T11:13:28Z</time>
      </trkpt>
      <trkpt lat="43.10141" lon="0.79074">
        <ele>338</ele>
        <time>2022-09-14T11:13:33Z</time>
      </trkpt>
      <trkpt lat="43.10128" lon="0.79043">
        <ele>338</ele>
        <time>2022-09-14T11:13:53Z</time>
      </trkpt>
      <trkpt lat="43.10127" lon="0.79037">
        <ele>338</ele>
        <time>2022-09-14T11:13:57Z</time>
      </trkpt>
      <trkpt lat="43.10123" lon="0.79024">
        <ele>338</ele>
        <time>2022-09-14T11:14:03Z</time>
      </trkpt>
      <trkpt lat="43.10121" lon="0.78991">
        <ele>338</ele>
        <time>2022-09-14T11:14:25Z</time>
      </trkpt>
      <trkpt lat="43.10111" lon="0.78939">
        <ele>338</ele>
        <time>2022-09-14T11:14:56Z</time>
      </trkpt>
      <trkpt lat="43.10106" lon="0.78908">
        <ele>338</ele>
        <time>2022-09-14T11:15:16Z</time>
      </trkpt>
      <trkpt lat="43.10102" lon="0.78887">
        <ele>338</ele>
        <time>2022-09-14T11:15:29Z</time>
      </trkpt>
      <trkpt lat="43.10102" lon="0.7888">
        <ele>338</ele>
        <time>2022-09-14T11:15:33Z</time>
      </trkpt>
      <trkpt lat="43.10094" lon="0.78829">
        <ele>338</ele>
        <time>2022-09-14T11:16:05Z</time>
      </trkpt>
      <trkpt lat="43.10091" lon="0.78815">
        <ele>338</ele>
        <time>2022-09-14T11:16:14Z</time>
      </trkpt>
      <trkpt lat="43.10086" lon="0.78759">
        <ele>339</ele>
        <time>2022-09-14T11:16:47Z</time>
      </trkpt>
      <trkpt lat="43.10086" lon="0.78753">
        <ele>339</ele>
        <time>2022-09-14T11:16:51Z</time>
      </trkpt>
      <trkpt lat="43.10087" lon="0.78743">
        <ele>339</ele>
        <time>2022-09-14T11:17:06Z</time>
      </trkpt>
      <trkpt lat="43.10087" lon="0.78736">
        <ele>339</ele>
        <time>2022-09-14T11:17:11Z</time>
      </trkpt>
      <trkpt lat="43.10085" lon="0.7873">
        <ele>340</ele>
        <time>2022-09-14T11:17:16Z</time>
      </trkpt>
      <trkpt lat="43.10084" lon="0.7872">
        <ele>339</ele>
        <time>2022-09-14T11:17:25Z</time>
      </trkpt>
      <trkpt lat="43.1008" lon="0.78705">
        <ele>339</ele>
        <time>2022-09-14T11:17:34Z</time>
      </trkpt>
      <trkpt lat="43.10078" lon="0.7869">
        <ele>339</ele>
        <time>2022-09-14T11:17:43Z</time>
      </trkpt>
      <trkpt lat="43.10079" lon="0.78679">
        <ele>339</ele>
        <time>2022-09-14T11:17:53Z</time>
      </trkpt>
      <trkpt lat="43.10078" lon="0.78662">
        <ele>339</ele>
        <time>2022-09-14T11:18:05Z</time>
      </trkpt>
      <trkpt lat="43.10078" lon="0.78654">
        <ele>340</ele>
        <time>2022-09-14T11:19:09Z</time>
      </trkpt>
      <trkpt lat="43.10077" lon="0.78642">
        <ele>339</ele>
        <time>2022-09-14T11:19:38Z</time>
      </trkpt>
      <trkpt lat="43.10077" lon="0.78636">
        <ele>339</ele>
        <time>2022-09-14T11:19:42Z</time>
      </trkpt>
      <trkpt lat="43.10076" lon="0.78608">
        <ele>339</ele>
        <time>2022-09-14T11:20:00Z</time>
      </trkpt>
      <trkpt lat="43.10077" lon="0.78566">
        <ele>340</ele>
        <time>2022-09-14T11:20:24Z</time>
      </trkpt>
      <trkpt lat="43.10077" lon="0.7856">
        <ele>340</ele>
        <time>2022-09-14T11:20:27Z</time>
      </trkpt>
      <trkpt lat="43.10078" lon="0.78502">
        <ele>340</ele>
        <time>2022-09-14T11:21:01Z</time>
      </trkpt>
      <trkpt lat="43.10083" lon="0.78451">
        <ele>340</ele>
        <time>2022-09-14T11:21:31Z</time>
      </trkpt>
      <trkpt lat="43.10088" lon="0.78422">
        <ele>341</ele>
        <time>2022-09-14T11:21:47Z</time>
      </trkpt>
      <trkpt lat="43.10092" lon="0.78405">
        <ele>341</ele>
        <time>2022-09-14T11:21:58Z</time>
      </trkpt>
      <trkpt lat="43.101" lon="0.78346">
        <ele>341</ele>
        <time>2022-09-14T11:22:33Z</time>
      </trkpt>
      <trkpt lat="43.10105" lon="0.78315">
        <ele>342</ele>
        <time>2022-09-14T11:22:55Z</time>
      </trkpt>
      <trkpt lat="43.10108" lon="0.78301">
        <ele>342</ele>
        <time>2022-09-14T11:23:04Z</time>
      </trkpt>
      <trkpt lat="43.10108" lon="0.78285">
        <ele>342</ele>
        <time>2022-09-14T11:23:12Z</time>
      </trkpt>
      <trkpt lat="43.10113" lon="0.78271">
        <ele>342</ele>
        <time>2022-09-14T11:23:21Z</time>
      </trkpt>
      <trkpt lat="43.10123" lon="0.78213">
        <ele>342</ele>
        <time>2022-09-14T11:23:54Z</time>
      </trkpt>
      <trkpt lat="43.10124" lon="0.78205">
        <ele>342</ele>
        <time>2022-09-14T11:23:59Z</time>
      </trkpt>
      <trkpt lat="43.10136" lon="0.78155">
        <ele>342</ele>
        <time>2022-09-14T11:24:31Z</time>
      </trkpt>
      <trkpt lat="43.10143" lon="0.78126">
        <ele>343</ele>
        <time>2022-09-14T11:24:48Z</time>
      </trkpt>
      <trkpt lat="43.10152" lon="0.78102">
        <ele>343</ele>
        <time>2022-09-14T11:25:04Z</time>
      </trkpt>
      <trkpt lat="43.10169" lon="0.78046">
        <ele>343</ele>
        <time>2022-09-14T11:25:39Z</time>
      </trkpt>
      <trkpt lat="43.10186" lon="0.77998">
        <ele>343</ele>
        <time>2022-09-14T11:26:10Z</time>
      </trkpt>
      <trkpt lat="43.10194" lon="0.77981">
        <ele>343</ele>
        <time>2022-09-14T11:26:23Z</time>
      </trkpt>
      <trkpt lat="43.10195" lon="0.77973">
        <ele>343</ele>
        <time>2022-09-14T11:26:27Z</time>
      </trkpt>
      <trkpt lat="43.10199" lon="0.77968">
        <ele>343</ele>
        <time>2022-09-14T11:27:17Z</time>
      </trkpt>
      <trkpt lat="43.102" lon="0.77956">
        <ele>342</ele>
        <time>2022-09-14T11:27:35Z</time>
      </trkpt>
      <trkpt lat="43.102" lon="0.77948">
        <ele>343</ele>
        <time>2022-09-14T11:27:39Z</time>
      </trkpt>
      <trkpt lat="43.10206" lon="0.77928">
        <ele>343</ele>
        <time>2022-09-14T11:27:52Z</time>
      </trkpt>
      <trkpt lat="43.10208" lon="0.77906">
        <ele>343</ele>
        <time>2022-09-14T11:28:03Z</time>
      </trkpt>
      <trkpt lat="43.10221" lon="0.77864">
        <ele>343</ele>
        <time>2022-09-14T11:28:32Z</time>
      </trkpt>
      <trkpt lat="43.10224" lon="0.77859">
        <ele>343</ele>
        <time>2022-09-14T11:28:36Z</time>
      </trkpt>
      <trkpt lat="43.10233" lon="0.77832">
        <ele>344</ele>
        <time>2022-09-14T11:28:54Z</time>
      </trkpt>
      <trkpt lat="43.10242" lon="0.77813">
        <ele>344</ele>
        <time>2022-09-14T11:29:07Z</time>
      </trkpt>
      <trkpt lat="43.1025" lon="0.77804">
        <ele>344</ele>
        <time>2022-09-14T11:29:15Z</time>
      </trkpt>
      <trkpt lat="43.10286" lon="0.77773">
        <ele>343</ele>
        <time>2022-09-14T11:29:50Z</time>
      </trkpt>
      <trkpt lat="43.10294" lon="0.77763">
        <ele>344</ele>
        <time>2022-09-14T11:29:59Z</time>
      </trkpt>
      <trkpt lat="43.10299" lon="0.7776">
        <ele>344</ele>
        <time>2022-09-14T11:30:04Z</time>
      </trkpt>
      <trkpt lat="43.10315" lon="0.77745">
        <ele>344</ele>
        <time>2022-09-14T11:30:22Z</time>
      </trkpt>
      <trkpt lat="43.10318" lon="0.77738">
        <ele>345</ele>
        <time>2022-09-14T11:30:27Z</time>
      </trkpt>
      <trkpt lat="43.10324" lon="0.77733">
        <ele>345</ele>
        <time>2022-09-14T11:30:39Z</time>
      </trkpt>
      <trkpt lat="43.10333" lon="0.77728">
        <ele>346</ele>
        <time>2022-09-14T11:30:52Z</time>
      </trkpt>
      <trkpt lat="43.10338" lon="0.77721">
        <ele>347</ele>
        <time>2022-09-14T11:31:22Z</time>
      </trkpt>
      <trkpt lat="43.10343" lon="0.77717">
        <ele>347</ele>
        <time>2022-09-14T11:32:04Z</time>
      </trkpt>
      <trkpt lat="43.1034" lon="0.7772">
        <ele>347</ele>
        <time>2022-09-14T11:33:28Z</time>
      </trkpt>
      <trkpt lat="43.10341" lon="0.77716">
        <ele>348</ele>
        <time>2022-09-14T11:49:10Z</time>
      </trkpt>
      <trkpt lat="43.10346" lon="0.77705">
        <ele>349</ele>
        <time>2022-09-14T11:49:22Z</time>
      </trkpt>
      <trkpt lat="43.1035" lon="0.777">
        <ele>349</ele>
        <time>2022-09-14T11:49:30Z</time>
      </trkpt>
      <trkpt lat="43.10359" lon="0.77683">
        <ele>351</ele>
        <time>2022-09-14T11:49:55Z</time>
      </trkpt>
      <trkpt lat="43.10371" lon="0.7767">
        <ele>353</ele>
        <time>2022-09-14T11:50:15Z</time>
      </trkpt>
      <trkpt lat="43.10389" lon="0.77663">
        <ele>355</ele>
        <time>2022-09-14T11:50:41Z</time>
      </trkpt>
      <trkpt lat="43.10398" lon="0.77657">
        <ele>356</ele>
        <time>2022-09-14T11:50:52Z</time>
      </trkpt>
      <trkpt lat="43.10403" lon="0.77656">
        <ele>355</ele>
        <time>2022-09-14T11:50:57Z</time>
      </trkpt>
      <trkpt lat="43.10408" lon="0.77655">
        <ele>356</ele>
        <time>2022-09-14T11:51:03Z</time>
      </trkpt>
      <trkpt lat="43.10416" lon="0.77662">
        <ele>356</ele>
        <time>2022-09-14T11:51:14Z</time>
      </trkpt>
      <trkpt lat="43.10424" lon="0.77682">
        <ele>356</ele>
        <time>2022-09-14T11:51:28Z</time>
      </trkpt>
      <trkpt lat="43.10429" lon="0.77689">
        <ele>357</ele>
        <time>2022-09-14T11:51:36Z</time>
      </trkpt>
      <trkpt lat="43.10436" lon="0.77701">
        <ele>357</ele>
        <time>2022-09-14T11:51:47Z</time>
      </trkpt>
      <trkpt lat="43.10442" lon="0.77701">
        <ele>357</ele>
        <time>2022-09-14T11:51:52Z</time>
      </trkpt>
      <trkpt lat="43.10473" lon="0.77679">
        <ele>356</ele>
        <time>2022-09-14T11:52:25Z</time>
      </trkpt>
      <trkpt lat="43.10476" lon="0.77675">
        <ele>356</ele>
        <time>2022-09-14T11:52:29Z</time>
      </trkpt>
      <trkpt lat="43.10481" lon="0.77671">
        <ele>356</ele>
        <time>2022-09-14T11:52:33Z</time>
      </trkpt>
      <trkpt lat="43.10483" lon="0.77666">
        <ele>356</ele>
        <time>2022-09-14T11:52:38Z</time>
      </trkpt>
      <trkpt lat="43.1049" lon="0.77655">
        <ele>356</ele>
        <time>2022-09-14T11:52:48Z</time>
      </trkpt>
      <trkpt lat="43.10496" lon="0.77637">
        <ele>356</ele>
        <time>2022-09-14T11:53:02Z</time>
      </trkpt>
      <trkpt lat="43.105" lon="0.77633">
        <ele>356</ele>
        <time>2022-09-14T11:53:05Z</time>
      </trkpt>
      <trkpt lat="43.10509" lon="0.77611">
        <ele>355</ele>
        <time>2022-09-14T11:53:28Z</time>
      </trkpt>
      <trkpt lat="43.1053" lon="0.77569">
        <ele>356</ele>
        <time>2022-09-14T11:54:00Z</time>
      </trkpt>
      <trkpt lat="43.1055" lon="0.77525">
        <ele>355</ele>
        <time>2022-09-14T11:54:31Z</time>
      </trkpt>
      <trkpt lat="43.10553" lon="0.77519">
        <ele>355</ele>
        <time>2022-09-14T11:54:35Z</time>
      </trkpt>
      <trkpt lat="43.10556" lon="0.7751">
        <ele>355</ele>
        <time>2022-09-14T11:54:43Z</time>
      </trkpt>
      <trkpt lat="43.10559" lon="0.77505">
        <ele>355</ele>
        <time>2022-09-14T11:54:52Z</time>
      </trkpt>
      <trkpt lat="43.10562" lon="0.775">
        <ele>355</ele>
        <time>2022-09-14T11:54:58Z</time>
      </trkpt>
      <trkpt lat="43.10565" lon="0.77494">
        <ele>355</ele>
        <time>2022-09-14T11:55:03Z</time>
      </trkpt>
      <trkpt lat="43.10571" lon="0.77483">
        <ele>354</ele>
        <time>2022-09-14T11:55:11Z</time>
      </trkpt>
      <trkpt lat="43.10585" lon="0.77455">
        <ele>353</ele>
        <time>2022-09-14T11:55:39Z</time>
      </trkpt>
      <trkpt lat="43.1059" lon="0.77451">
        <ele>353</ele>
        <time>2022-09-14T11:55:44Z</time>
      </trkpt>
      <trkpt lat="43.10594" lon="0.77445">
        <ele>352</ele>
        <time>2022-09-14T11:55:48Z</time>
      </trkpt>
      <trkpt lat="43.10603" lon="0.77429">
        <ele>352</ele>
        <time>2022-09-14T11:56:01Z</time>
      </trkpt>
      <trkpt lat="43.1061" lon="0.77419">
        <ele>350</ele>
        <time>2022-09-14T11:56:11Z</time>
      </trkpt>
      <trkpt lat="43.10613" lon="0.77413">
        <ele>350</ele>
        <time>2022-09-14T11:56:15Z</time>
      </trkpt>
      <trkpt lat="43.10623" lon="0.77397">
        <ele>349</ele>
        <time>2022-09-14T11:56:31Z</time>
      </trkpt>
      <trkpt lat="43.10627" lon="0.7739">
        <ele>348</ele>
        <time>2022-09-14T11:56:36Z</time>
      </trkpt>
      <trkpt lat="43.1063" lon="0.77381">
        <ele>348</ele>
        <time>2022-09-14T11:56:44Z</time>
      </trkpt>
      <trkpt lat="43.10644" lon="0.77358">
        <ele>346</ele>
        <time>2022-09-14T11:57:06Z</time>
      </trkpt>
      <trkpt lat="43.10653" lon="0.77329">
        <ele>345</ele>
        <time>2022-09-14T11:57:26Z</time>
      </trkpt>
      <trkpt lat="43.10654" lon="0.77322">
        <ele>345</ele>
        <time>2022-09-14T11:57:30Z</time>
      </trkpt>
      <trkpt lat="43.10658" lon="0.77315">
        <ele>344</ele>
        <time>2022-09-14T11:57:46Z</time>
      </trkpt>
      <trkpt lat="43.1066" lon="0.77301">
        <ele>344</ele>
        <time>2022-09-14T11:57:56Z</time>
      </trkpt>
      <trkpt lat="43.10659" lon="0.77286">
        <ele>343</ele>
        <time>2022-09-14T11:58:07Z</time>
      </trkpt>
      <trkpt lat="43.10655" lon="0.77269">
        <ele>342</ele>
        <time>2022-09-14T11:58:19Z</time>
      </trkpt>
      <trkpt lat="43.10655" lon="0.7726">
        <ele>342</ele>
        <time>2022-09-14T11:58:24Z</time>
      </trkpt>
      <trkpt lat="43.10652" lon="0.77235">
        <ele>342</ele>
        <time>2022-09-14T11:58:38Z</time>
      </trkpt>
      <trkpt lat="43.10656" lon="0.77229">
        <ele>342</ele>
        <time>2022-09-14T11:58:49Z</time>
      </trkpt>
      <trkpt lat="43.10655" lon="0.77206">
        <ele>342</ele>
        <time>2022-09-14T11:59:11Z</time>
      </trkpt>
      <trkpt lat="43.10656" lon="0.77192">
        <ele>343</ele>
        <time>2022-09-14T11:59:20Z</time>
      </trkpt>
      <trkpt lat="43.10661" lon="0.77144">
        <ele>343</ele>
        <time>2022-09-14T11:59:51Z</time>
      </trkpt>
      <trkpt lat="43.10666" lon="0.77115">
        <ele>343</ele>
        <time>2022-09-14T12:00:10Z</time>
      </trkpt>
      <trkpt lat="43.10667" lon="0.77081">
        <ele>343</ele>
        <time>2022-09-14T12:00:32Z</time>
      </trkpt>
      <trkpt lat="43.1067" lon="0.77068">
        <ele>343</ele>
        <time>2022-09-14T12:00:40Z</time>
      </trkpt>
      <trkpt lat="43.10671" lon="0.77061">
        <ele>343</ele>
        <time>2022-09-14T12:00:44Z</time>
      </trkpt>
      <trkpt lat="43.10671" lon="0.77053">
        <ele>343</ele>
        <time>2022-09-14T12:00:55Z</time>
      </trkpt>
      <trkpt lat="43.10678" lon="0.77004">
        <ele>343</ele>
        <time>2022-09-14T12:01:27Z</time>
      </trkpt>
      <trkpt lat="43.10678" lon="0.76998">
        <ele>343</ele>
        <time>2022-09-14T12:01:31Z</time>
      </trkpt>
      <trkpt lat="43.1068" lon="0.76986">
        <ele>343</ele>
        <time>2022-09-14T12:01:39Z</time>
      </trkpt>
      <trkpt lat="43.10684" lon="0.76936">
        <ele>343</ele>
        <time>2022-09-14T12:02:10Z</time>
      </trkpt>
      <trkpt lat="43.10685" lon="0.76928">
        <ele>342</ele>
        <time>2022-09-14T12:02:14Z</time>
      </trkpt>
      <trkpt lat="43.10685" lon="0.76914">
        <ele>342</ele>
        <time>2022-09-14T12:02:23Z</time>
      </trkpt>
      <trkpt lat="43.10689" lon="0.76865">
        <ele>343</ele>
        <time>2022-09-14T12:02:54Z</time>
      </trkpt>
      <trkpt lat="43.1069" lon="0.76858">
        <ele>343</ele>
        <time>2022-09-14T12:02:59Z</time>
      </trkpt>
      <trkpt lat="43.10693" lon="0.76833">
        <ele>343</ele>
        <time>2022-09-14T12:03:17Z</time>
      </trkpt>
      <trkpt lat="43.10698" lon="0.76781">
        <ele>343</ele>
        <time>2022-09-14T12:03:51Z</time>
      </trkpt>
      <trkpt lat="43.10704" lon="0.76734">
        <ele>343</ele>
        <time>2022-09-14T12:04:24Z</time>
      </trkpt>
      <trkpt lat="43.10707" lon="0.76683">
        <ele>343</ele>
        <time>2022-09-14T12:05:01Z</time>
      </trkpt>
      <trkpt lat="43.1071" lon="0.76643">
        <ele>344</ele>
        <time>2022-09-14T12:05:27Z</time>
      </trkpt>
      <trkpt lat="43.10711" lon="0.76637">
        <ele>344</ele>
        <time>2022-09-14T12:05:32Z</time>
      </trkpt>
      <trkpt lat="43.10711" lon="0.76615">
        <ele>344</ele>
        <time>2022-09-14T12:05:44Z</time>
      </trkpt>
      <trkpt lat="43.10714" lon="0.76573">
        <ele>345</ele>
        <time>2022-09-14T12:06:11Z</time>
      </trkpt>
      <trkpt lat="43.10718" lon="0.76562">
        <ele>344</ele>
        <time>2022-09-14T12:06:19Z</time>
      </trkpt>
      <trkpt lat="43.10717" lon="0.76536">
        <ele>344</ele>
        <time>2022-09-14T12:06:37Z</time>
      </trkpt>
      <trkpt lat="43.1072" lon="0.76528">
        <ele>344</ele>
        <time>2022-09-14T12:06:48Z</time>
      </trkpt>
      <trkpt lat="43.10718" lon="0.7652">
        <ele>345</ele>
        <time>2022-09-14T12:06:54Z</time>
      </trkpt>
      <trkpt lat="43.10717" lon="0.76509">
        <ele>345</ele>
        <time>2022-09-14T12:08:25Z</time>
      </trkpt>
      <trkpt lat="43.10713" lon="0.7649">
        <ele>345</ele>
        <time>2022-09-14T12:08:38Z</time>
      </trkpt>
      <trkpt lat="43.10712" lon="0.76477">
        <ele>345</ele>
        <time>2022-09-14T12:08:46Z</time>
      </trkpt>
      <trkpt lat="43.10707" lon="0.76429">
        <ele>345</ele>
        <time>2022-09-14T12:09:14Z</time>
      </trkpt>
      <trkpt lat="43.10707" lon="0.76423">
        <ele>345</ele>
        <time>2022-09-14T12:09:18Z</time>
      </trkpt>
      <trkpt lat="43.10704" lon="0.76411">
        <ele>345</ele>
        <time>2022-09-14T12:09:26Z</time>
      </trkpt>
      <trkpt lat="43.107" lon="0.76363">
        <ele>346</ele>
        <time>2022-09-14T12:09:57Z</time>
      </trkpt>
      <trkpt lat="43.10696" lon="0.76321">
        <ele>345</ele>
        <time>2022-09-14T12:10:23Z</time>
      </trkpt>
      <trkpt lat="43.10696" lon="0.76315">
        <ele>345</ele>
        <time>2022-09-14T12:10:27Z</time>
      </trkpt>
      <trkpt lat="43.10692" lon="0.76276">
        <ele>345</ele>
        <time>2022-09-14T12:10:52Z</time>
      </trkpt>
      <trkpt lat="43.10689" lon="0.76227">
        <ele>345</ele>
        <time>2022-09-14T12:11:23Z</time>
      </trkpt>
      <trkpt lat="43.10688" lon="0.76206">
        <ele>346</ele>
        <time>2022-09-14T12:11:37Z</time>
      </trkpt>
      <trkpt lat="43.10687" lon="0.76197">
        <ele>346</ele>
        <time>2022-09-14T12:11:49Z</time>
      </trkpt>
      <trkpt lat="43.10686" lon="0.76148">
        <ele>346</ele>
        <time>2022-09-14T12:12:20Z</time>
      </trkpt>
      <trkpt lat="43.10685" lon="0.76094">
        <ele>346</ele>
        <time>2022-09-14T12:12:54Z</time>
      </trkpt>
      <trkpt lat="43.10686" lon="0.76081">
        <ele>346</ele>
        <time>2022-09-14T12:13:02Z</time>
      </trkpt>
      <trkpt lat="43.10685" lon="0.76033">
        <ele>348</ele>
        <time>2022-09-14T12:13:34Z</time>
      </trkpt>
      <trkpt lat="43.10685" lon="0.76027">
        <ele>348</ele>
        <time>2022-09-14T12:13:38Z</time>
      </trkpt>
      <trkpt lat="43.10683" lon="0.75976">
        <ele>348</ele>
        <time>2022-09-14T12:14:10Z</time>
      </trkpt>
      <trkpt lat="43.10682" lon="0.75949">
        <ele>348</ele>
        <time>2022-09-14T12:14:28Z</time>
      </trkpt>
      <trkpt lat="43.10683" lon="0.75944">
        <ele>348</ele>
        <time>2022-09-14T12:14:32Z</time>
      </trkpt>
      <trkpt lat="43.10682" lon="0.75937">
        <ele>348</ele>
        <time>2022-09-14T12:14:36Z</time>
      </trkpt>
      <trkpt lat="43.10683" lon="0.75924">
        <ele>348</ele>
        <time>2022-09-14T12:14:45Z</time>
      </trkpt>
      <trkpt lat="43.10682" lon="0.75917">
        <ele>348</ele>
        <time>2022-09-14T12:14:49Z</time>
      </trkpt>
      <trkpt lat="43.10682" lon="0.75883">
        <ele>349</ele>
        <time>2022-09-14T12:15:13Z</time>
      </trkpt>
      <trkpt lat="43.10681" lon="0.7587">
        <ele>349</ele>
        <time>2022-09-14T12:15:21Z</time>
      </trkpt>
      <trkpt lat="43.1068" lon="0.75836">
        <ele>350</ele>
        <time>2022-09-14T12:15:43Z</time>
      </trkpt>
      <trkpt lat="43.10679" lon="0.7583">
        <ele>350</ele>
        <time>2022-09-14T12:15:47Z</time>
      </trkpt>
      <trkpt lat="43.10678" lon="0.75789">
        <ele>351</ele>
        <time>2022-09-14T12:16:20Z</time>
      </trkpt>
      <trkpt lat="43.10679" lon="0.75779">
        <ele>352</ele>
        <time>2022-09-14T12:16:29Z</time>
      </trkpt>
      <trkpt lat="43.10678" lon="0.75772">
        <ele>352</ele>
        <time>2022-09-14T12:16:33Z</time>
      </trkpt>
      <trkpt lat="43.10678" lon="0.75763">
        <ele>353</ele>
        <time>2022-09-14T12:16:42Z</time>
      </trkpt>
      <trkpt lat="43.10679" lon="0.75756">
        <ele>353</ele>
        <time>2022-09-14T12:16:48Z</time>
      </trkpt>
      <trkpt lat="43.1068" lon="0.75748">
        <ele>354</ele>
        <time>2022-09-14T12:16:53Z</time>
      </trkpt>
      <trkpt lat="43.1069" lon="0.75724">
        <ele>356</ele>
        <time>2022-09-14T12:17:20Z</time>
      </trkpt>
      <trkpt lat="43.10707" lon="0.75696">
        <ele>358</ele>
        <time>2022-09-14T12:17:53Z</time>
      </trkpt>
      <trkpt lat="43.10712" lon="0.75695">
        <ele>360</ele>
        <time>2022-09-14T12:18:38Z</time>
      </trkpt>
      <trkpt lat="43.10715" lon="0.75689">
        <ele>360</ele>
        <time>2022-09-14T12:18:46Z</time>
      </trkpt>
      <trkpt lat="43.10718" lon="0.75684">
        <ele>361</ele>
        <time>2022-09-14T12:18:51Z</time>
      </trkpt>
      <trkpt lat="43.10723" lon="0.75679">
        <ele>361</ele>
        <time>2022-09-14T12:18:59Z</time>
      </trkpt>
      <trkpt lat="43.10726" lon="0.75673">
        <ele>362</ele>
        <time>2022-09-14T12:19:05Z</time>
      </trkpt>
      <trkpt lat="43.1073" lon="0.75657">
        <ele>362</ele>
        <time>2022-09-14T12:19:19Z</time>
      </trkpt>
      <trkpt lat="43.10726" lon="0.7561">
        <ele>362</ele>
        <time>2022-09-14T12:19:50Z</time>
      </trkpt>
      <trkpt lat="43.10726" lon="0.75586">
        <ele>362</ele>
        <time>2022-09-14T12:20:05Z</time>
      </trkpt>
      <trkpt lat="43.10732" lon="0.75572">
        <ele>361</ele>
        <time>2022-09-14T12:20:15Z</time>
      </trkpt>
      <trkpt lat="43.10739" lon="0.75559">
        <ele>360</ele>
        <time>2022-09-14T12:20:28Z</time>
      </trkpt>
      <trkpt lat="43.10742" lon="0.75548">
        <ele>358</ele>
        <time>2022-09-14T12:20:39Z</time>
      </trkpt>
      <trkpt lat="43.10746" lon="0.75543">
        <ele>358</ele>
        <time>2022-09-14T12:21:13Z</time>
      </trkpt>
      <trkpt lat="43.10751" lon="0.7552">
        <ele>356</ele>
        <time>2022-09-14T12:21:29Z</time>
      </trkpt>
      <trkpt lat="43.10749" lon="0.75503">
        <ele>354</ele>
        <time>2022-09-14T12:21:40Z</time>
      </trkpt>
      <trkpt lat="43.10745" lon="0.7549">
        <ele>353</ele>
        <time>2022-09-14T12:21:49Z</time>
      </trkpt>
      <trkpt lat="43.10738" lon="0.75476">
        <ele>353</ele>
        <time>2022-09-14T12:21:58Z</time>
      </trkpt>
      <trkpt lat="43.10733" lon="0.7547">
        <ele>353</ele>
        <time>2022-09-14T12:22:03Z</time>
      </trkpt>
      <trkpt lat="43.10727" lon="0.75459">
        <ele>352</ele>
        <time>2022-09-14T12:22:13Z</time>
      </trkpt>
      <trkpt lat="43.10722" lon="0.75453">
        <ele>352</ele>
        <time>2022-09-14T12:22:18Z</time>
      </trkpt>
      <trkpt lat="43.10717" lon="0.75439">
        <ele>351</ele>
        <time>2022-09-14T12:22:28Z</time>
      </trkpt>
      <trkpt lat="43.10712" lon="0.75434">
        <ele>351</ele>
        <time>2022-09-14T12:22:33Z</time>
      </trkpt>
      <trkpt lat="43.10693" lon="0.75387">
        <ele>350</ele>
        <time>2022-09-14T12:23:04Z</time>
      </trkpt>
      <trkpt lat="43.10689" lon="0.75375">
        <ele>349</ele>
        <time>2022-09-14T12:23:13Z</time>
      </trkpt>
      <trkpt lat="43.10687" lon="0.75368">
        <ele>349</ele>
        <time>2022-09-14T12:23:17Z</time>
      </trkpt>
      <trkpt lat="43.10683" lon="0.75355">
        <ele>349</ele>
        <time>2022-09-14T12:23:26Z</time>
      </trkpt>
      <trkpt lat="43.10672" lon="0.75302">
        <ele>348</ele>
        <time>2022-09-14T12:23:59Z</time>
      </trkpt>
      <trkpt lat="43.10668" lon="0.75261">
        <ele>348</ele>
        <time>2022-09-14T12:24:25Z</time>
      </trkpt>
      <trkpt lat="43.10666" lon="0.75232">
        <ele>348</ele>
        <time>2022-09-14T12:24:42Z</time>
      </trkpt>
      <trkpt lat="43.10662" lon="0.75219">
        <ele>348</ele>
        <time>2022-09-14T12:24:50Z</time>
      </trkpt>
      <trkpt lat="43.10659" lon="0.75213">
        <ele>348</ele>
        <time>2022-09-14T12:24:54Z</time>
      </trkpt>
      <trkpt lat="43.10655" lon="0.75208">
        <ele>348</ele>
        <time>2022-09-14T12:24:59Z</time>
      </trkpt>
      <trkpt lat="43.10647" lon="0.75191">
        <ele>348</ele>
        <time>2022-09-14T12:25:12Z</time>
      </trkpt>
      <trkpt lat="43.10642" lon="0.75183">
        <ele>348</ele>
        <time>2022-09-14T12:25:20Z</time>
      </trkpt>
      <trkpt lat="43.10638" lon="0.75176">
        <ele>348</ele>
        <time>2022-09-14T12:25:27Z</time>
      </trkpt>
      <trkpt lat="43.10633" lon="0.75172">
        <ele>348</ele>
        <time>2022-09-14T12:25:32Z</time>
      </trkpt>
      <trkpt lat="43.10628" lon="0.75171">
        <ele>348</ele>
        <time>2022-09-14T12:25:41Z</time>
      </trkpt>
      <trkpt lat="43.10624" lon="0.75166">
        <ele>349</ele>
        <time>2022-09-14T12:25:52Z</time>
      </trkpt>
      <trkpt lat="43.10621" lon="0.75153">
        <ele>348</ele>
        <time>2022-09-14T12:26:40Z</time>
      </trkpt>
      <trkpt lat="43.10618" lon="0.7513">
        <ele>347</ele>
        <time>2022-09-14T12:26:55Z</time>
      </trkpt>
      <trkpt lat="43.10621" lon="0.75108">
        <ele>347</ele>
        <time>2022-09-14T12:27:07Z</time>
      </trkpt>
      <trkpt lat="43.1062" lon="0.75098">
        <ele>347</ele>
        <time>2022-09-14T12:27:14Z</time>
      </trkpt>
      <trkpt lat="43.10624" lon="0.75089">
        <ele>347</ele>
        <time>2022-09-14T12:27:21Z</time>
      </trkpt>
      <trkpt lat="43.10623" lon="0.75082">
        <ele>347</ele>
        <time>2022-09-14T12:27:25Z</time>
      </trkpt>
      <trkpt lat="43.10623" lon="0.75074">
        <ele>347</ele>
        <time>2022-09-14T12:27:29Z</time>
      </trkpt>
      <trkpt lat="43.10621" lon="0.75067">
        <ele>347</ele>
        <time>2022-09-14T12:27:33Z</time>
      </trkpt>
      <trkpt lat="43.10615" lon="0.75026">
        <ele>347</ele>
        <time>2022-09-14T12:28:02Z</time>
      </trkpt>
      <trkpt lat="43.10604" lon="0.74988">
        <ele>347</ele>
        <time>2022-09-14T12:28:24Z</time>
      </trkpt>
      <trkpt lat="43.106" lon="0.7498">
        <ele>347</ele>
        <time>2022-09-14T12:28:31Z</time>
      </trkpt>
      <trkpt lat="43.10582" lon="0.74934">
        <ele>347</ele>
        <time>2022-09-14T12:29:04Z</time>
      </trkpt>
      <trkpt lat="43.10579" lon="0.74928">
        <ele>347</ele>
        <time>2022-09-14T12:29:08Z</time>
      </trkpt>
      <trkpt lat="43.10569" lon="0.7491">
        <ele>347</ele>
        <time>2022-09-14T12:29:22Z</time>
      </trkpt>
      <trkpt lat="43.10567" lon="0.74905">
        <ele>347</ele>
        <time>2022-09-14T12:29:26Z</time>
      </trkpt>
      <trkpt lat="43.10559" lon="0.74894">
        <ele>347</ele>
        <time>2022-09-14T12:29:35Z</time>
      </trkpt>
      <trkpt lat="43.10557" lon="0.74888">
        <ele>347</ele>
        <time>2022-09-14T12:29:39Z</time>
      </trkpt>
      <trkpt lat="43.1055" lon="0.74878">
        <ele>347</ele>
        <time>2022-09-14T12:29:49Z</time>
      </trkpt>
      <trkpt lat="43.10546" lon="0.74871">
        <ele>347</ele>
        <time>2022-09-14T12:29:53Z</time>
      </trkpt>
      <trkpt lat="43.10521" lon="0.74837">
        <ele>346</ele>
        <time>2022-09-14T12:30:24Z</time>
      </trkpt>
      <trkpt lat="43.10498" lon="0.74815">
        <ele>346</ele>
        <time>2022-09-14T12:30:48Z</time>
      </trkpt>
      <trkpt lat="43.10492" lon="0.74813">
        <ele>346</ele>
        <time>2022-09-14T12:30:53Z</time>
      </trkpt>
      <trkpt lat="43.10488" lon="0.74807">
        <ele>346</ele>
        <time>2022-09-14T12:30:58Z</time>
      </trkpt>
      <trkpt lat="43.1048" lon="0.74797">
        <ele>346</ele>
        <time>2022-09-14T12:31:07Z</time>
      </trkpt>
      <trkpt lat="43.10477" lon="0.74791">
        <ele>346</ele>
        <time>2022-09-14T12:31:11Z</time>
      </trkpt>
      <trkpt lat="43.10473" lon="0.74785">
        <ele>346</ele>
        <time>2022-09-14T12:31:16Z</time>
      </trkpt>
      <trkpt lat="43.10468" lon="0.74781">
        <ele>346</ele>
        <time>2022-09-14T12:31:22Z</time>
      </trkpt>
      <trkpt lat="43.10464" lon="0.74776">
        <ele>346</ele>
        <time>2022-09-14T12:31:26Z</time>
      </trkpt>
      <trkpt lat="43.10445" lon="0.7476">
        <ele>346</ele>
        <time>2022-09-14T12:31:42Z</time>
      </trkpt>
      <trkpt lat="43.10441" lon="0.74755">
        <ele>346</ele>
        <time>2022-09-14T12:31:46Z</time>
      </trkpt>
      <trkpt lat="43.10429" lon="0.74742">
        <ele>346</ele>
        <time>2022-09-14T12:32:01Z</time>
      </trkpt>
      <trkpt lat="43.10427" lon="0.74733">
        <ele>346</ele>
        <time>2022-09-14T12:32:33Z</time>
      </trkpt>
      <trkpt lat="43.10409" lon="0.74712">
        <ele>347</ele>
        <time>2022-09-14T12:33:00Z</time>
      </trkpt>
      <trkpt lat="43.10407" lon="0.74707">
        <ele>347</ele>
        <time>2022-09-14T12:33:04Z</time>
      </trkpt>
      <trkpt lat="43.10404" lon="0.74696">
        <ele>347</ele>
        <time>2022-09-14T12:33:19Z</time>
      </trkpt>
      <trkpt lat="43.10409" lon="0.7469">
        <ele>347</ele>
        <time>2022-09-14T12:33:37Z</time>
      </trkpt>
      <trkpt lat="43.10415" lon="0.74691">
        <ele>346</ele>
        <time>2022-09-14T12:33:41Z</time>
      </trkpt>
      <trkpt lat="43.10426" lon="0.74691">
        <ele>346</ele>
        <time>2022-09-14T12:33:51Z</time>
      </trkpt>
      <trkpt lat="43.10437" lon="0.7469">
        <ele>346</ele>
        <time>2022-09-14T12:34:01Z</time>
      </trkpt>
      <trkpt lat="43.10442" lon="0.74687">
        <ele>346</ele>
        <time>2022-09-14T12:34:06Z</time>
      </trkpt>
      <trkpt lat="43.10442" lon="0.74662">
        <ele>347</ele>
        <time>2022-09-14T12:34:25Z</time>
      </trkpt>
      <trkpt lat="43.10438" lon="0.74636">
        <ele>347</ele>
        <time>2022-09-14T12:34:46Z</time>
      </trkpt>
      <trkpt lat="43.10438" lon="0.74621">
        <ele>348</ele>
        <time>2022-09-14T12:34:55Z</time>
      </trkpt>
      <trkpt lat="43.10441" lon="0.74614">
        <ele>348</ele>
        <time>2022-09-14T12:35:00Z</time>
      </trkpt>
      <trkpt lat="43.10442" lon="0.74606">
        <ele>347</ele>
        <time>2022-09-14T12:35:05Z</time>
      </trkpt>
      <trkpt lat="43.10445" lon="0.74599">
        <ele>346</ele>
        <time>2022-09-14T12:35:13Z</time>
      </trkpt>
      <trkpt lat="43.10479" lon="0.74564">
        <ele>345</ele>
        <time>2022-09-14T12:35:47Z</time>
      </trkpt>
      <trkpt lat="43.10485" lon="0.74565">
        <ele>346</ele>
        <time>2022-09-14T12:35:53Z</time>
      </trkpt>
      <trkpt lat="43.10494" lon="0.74564">
        <ele>348</ele>
        <time>2022-09-14T12:36:04Z</time>
      </trkpt>
      <trkpt lat="43.10496" lon="0.7457">
        <ele>348</ele>
        <time>2022-09-14T12:36:22Z</time>
      </trkpt>
      <trkpt lat="43.10491" lon="0.74575">
        <ele>348</ele>
        <time>2022-09-14T12:36:28Z</time>
      </trkpt>
      <trkpt lat="43.10485" lon="0.74579">
        <ele>348</ele>
        <time>2022-09-14T12:36:34Z</time>
      </trkpt>
      <trkpt lat="43.1048" lon="0.74582">
        <ele>349</ele>
        <time>2022-09-14T12:36:38Z</time>
      </trkpt>
      <trkpt lat="43.10474" lon="0.74578">
        <ele>349</ele>
        <time>2022-09-14T12:36:45Z</time>
      </trkpt>
      <trkpt lat="43.10465" lon="0.74562">
        <ele>349</ele>
        <time>2022-09-14T12:36:57Z</time>
      </trkpt>
      <trkpt lat="43.10435" lon="0.74523">
        <ele>349</ele>
        <time>2022-09-14T12:37:29Z</time>
      </trkpt>
      <trkpt lat="43.10423" lon="0.74502">
        <ele>349</ele>
        <time>2022-09-14T12:37:45Z</time>
      </trkpt>
      <trkpt lat="43.1042" lon="0.74489">
        <ele>349</ele>
        <time>2022-09-14T12:37:53Z</time>
      </trkpt>
      <trkpt lat="43.1042" lon="0.74482">
        <ele>348</ele>
        <time>2022-09-14T12:37:57Z</time>
      </trkpt>
      <trkpt lat="43.10419" lon="0.7447">
        <ele>349</ele>
        <time>2022-09-14T12:38:18Z</time>
      </trkpt>
      <trkpt lat="43.10416" lon="0.74455">
        <ele>349</ele>
        <time>2022-09-14T12:38:30Z</time>
      </trkpt>
      <trkpt lat="43.10417" lon="0.74407">
        <ele>349</ele>
        <time>2022-09-14T12:38:59Z</time>
      </trkpt>
      <trkpt lat="43.10422" lon="0.74381">
        <ele>349</ele>
        <time>2022-09-14T12:39:15Z</time>
      </trkpt>
      <trkpt lat="43.10434" lon="0.74349">
        <ele>350</ele>
        <time>2022-09-14T12:39:37Z</time>
      </trkpt>
      <trkpt lat="43.10438" lon="0.74327">
        <ele>351</ele>
        <time>2022-09-14T12:39:50Z</time>
      </trkpt>
      <trkpt lat="43.1044" lon="0.74322">
        <ele>351</ele>
        <time>2022-09-14T12:39:53Z</time>
      </trkpt>
      <trkpt lat="43.10452" lon="0.74319">
        <ele>352</ele>
        <time>2022-09-14T12:40:00Z</time>
      </trkpt>
      <trkpt lat="43.10457" lon="0.7432">
        <ele>352</ele>
        <time>2022-09-14T12:40:04Z</time>
      </trkpt>
      <trkpt lat="43.10462" lon="0.74322">
        <ele>352</ele>
        <time>2022-09-14T12:40:08Z</time>
      </trkpt>
      <trkpt lat="43.10468" lon="0.74321">
        <ele>352</ele>
        <time>2022-09-14T12:40:13Z</time>
      </trkpt>
      <trkpt lat="43.10489" lon="0.74326">
        <ele>352</ele>
        <time>2022-09-14T12:40:32Z</time>
      </trkpt>
      <trkpt lat="43.10495" lon="0.74328">
        <ele>353</ele>
        <time>2022-09-14T12:40:40Z</time>
      </trkpt>
      <trkpt lat="43.10501" lon="0.74326">
        <ele>353</ele>
        <time>2022-09-14T12:40:46Z</time>
      </trkpt>
      <trkpt lat="43.1051" lon="0.74314">
        <ele>354</ele>
        <time>2022-09-14T12:40:58Z</time>
      </trkpt>
      <trkpt lat="43.10514" lon="0.74304">
        <ele>355</ele>
        <time>2022-09-14T12:41:08Z</time>
      </trkpt>
      <trkpt lat="43.10515" lon="0.74296">
        <ele>355</ele>
        <time>2022-09-14T12:41:13Z</time>
      </trkpt>
      <trkpt lat="43.10529" lon="0.74264">
        <ele>358</ele>
        <time>2022-09-14T12:41:36Z</time>
      </trkpt>
      <trkpt lat="43.10533" lon="0.74259">
        <ele>358</ele>
        <time>2022-09-14T12:41:41Z</time>
      </trkpt>
      <trkpt lat="43.10538" lon="0.74255">
        <ele>358</ele>
        <time>2022-09-14T12:41:45Z</time>
      </trkpt>
      <trkpt lat="43.10554" lon="0.7422">
        <ele>362</ele>
        <time>2022-09-14T12:42:16Z</time>
      </trkpt>
      <trkpt lat="43.10563" lon="0.74173">
        <ele>364</ele>
        <time>2022-09-14T12:42:47Z</time>
      </trkpt>
      <trkpt lat="43.10571" lon="0.74123">
        <ele>366</ele>
        <time>2022-09-14T12:43:21Z</time>
      </trkpt>
      <trkpt lat="43.10573" lon="0.74116">
        <ele>366</ele>
        <time>2022-09-14T12:43:25Z</time>
      </trkpt>
      <trkpt lat="43.10573" lon="0.7411">
        <ele>366</ele>
        <time>2022-09-14T12:43:29Z</time>
      </trkpt>
      <trkpt lat="43.10574" lon="0.74104">
        <ele>366</ele>
        <time>2022-09-14T12:43:33Z</time>
      </trkpt>
      <trkpt lat="43.10574" lon="0.74091">
        <ele>366</ele>
        <time>2022-09-14T12:43:42Z</time>
      </trkpt>
      <trkpt lat="43.10576" lon="0.74078">
        <ele>366</ele>
        <time>2022-09-14T12:43:50Z</time>
      </trkpt>
      <trkpt lat="43.10578" lon="0.74063">
        <ele>366</ele>
        <time>2022-09-14T12:43:58Z</time>
      </trkpt>
      <trkpt lat="43.10583" lon="0.74038">
        <ele>366</ele>
        <time>2022-09-14T12:44:14Z</time>
      </trkpt>
      <trkpt lat="43.10585" lon="0.74004">
        <ele>366</ele>
        <time>2022-09-14T12:44:35Z</time>
      </trkpt>
      <trkpt lat="43.10585" lon="0.73998">
        <ele>366</ele>
        <time>2022-09-14T12:44:39Z</time>
      </trkpt>
      <trkpt lat="43.10585" lon="0.73991">
        <ele>366</ele>
        <time>2022-09-14T12:44:43Z</time>
      </trkpt>
      <trkpt lat="43.10586" lon="0.73973">
        <ele>365</ele>
        <time>2022-09-14T12:45:15Z</time>
      </trkpt>
      <trkpt lat="43.10586" lon="0.73929">
        <ele>365</ele>
        <time>2022-09-14T12:45:41Z</time>
      </trkpt>
      <trkpt lat="43.10588" lon="0.73914">
        <ele>365</ele>
        <time>2022-09-14T12:45:49Z</time>
      </trkpt>
      <trkpt lat="43.10586" lon="0.739">
        <ele>365</ele>
        <time>2022-09-14T12:45:57Z</time>
      </trkpt>
      <trkpt lat="43.10588" lon="0.73893">
        <ele>365</ele>
        <time>2022-09-14T12:46:00Z</time>
      </trkpt>
      <trkpt lat="43.10588" lon="0.73887">
        <ele>365</ele>
        <time>2022-09-14T12:46:04Z</time>
      </trkpt>
      <trkpt lat="43.10587" lon="0.73879">
        <ele>365</ele>
        <time>2022-09-14T12:46:08Z</time>
      </trkpt>
      <trkpt lat="43.10584" lon="0.73859">
        <ele>364</ele>
        <time>2022-09-14T12:46:20Z</time>
      </trkpt>
      <trkpt lat="43.10583" lon="0.73851">
        <ele>365</ele>
        <time>2022-09-14T12:46:25Z</time>
      </trkpt>
      <trkpt lat="43.10578" lon="0.73832">
        <ele>364</ele>
        <time>2022-09-14T12:46:38Z</time>
      </trkpt>
      <trkpt lat="43.10568" lon="0.73775">
        <ele>365</ele>
        <time>2022-09-14T12:47:11Z</time>
      </trkpt>
      <trkpt lat="43.10567" lon="0.73768">
        <ele>365</ele>
        <time>2022-09-14T12:47:15Z</time>
      </trkpt>
      <trkpt lat="43.1056" lon="0.73748">
        <ele>365</ele>
        <time>2022-09-14T12:47:29Z</time>
      </trkpt>
      <trkpt lat="43.10559" lon="0.73709">
        <ele>366</ele>
        <time>2022-09-14T12:47:50Z</time>
      </trkpt>
      <trkpt lat="43.1056" lon="0.73702">
        <ele>366</ele>
        <time>2022-09-14T12:47:53Z</time>
      </trkpt>
      <trkpt lat="43.10569" lon="0.7369">
        <ele>366</ele>
        <time>2022-09-14T12:48:03Z</time>
      </trkpt>
      <trkpt lat="43.10574" lon="0.73686">
        <ele>366</ele>
        <time>2022-09-14T12:48:08Z</time>
      </trkpt>
      <trkpt lat="43.10584" lon="0.73681">
        <ele>366</ele>
        <time>2022-09-14T12:48:15Z</time>
      </trkpt>
      <trkpt lat="43.10594" lon="0.73678">
        <ele>367</ele>
        <time>2022-09-14T12:48:24Z</time>
      </trkpt>
      <trkpt lat="43.10608" lon="0.73666">
        <ele>366</ele>
        <time>2022-09-14T12:48:38Z</time>
      </trkpt>
      <trkpt lat="43.10614" lon="0.73664">
        <ele>366</ele>
        <time>2022-09-14T12:48:42Z</time>
      </trkpt>
      <trkpt lat="43.10625" lon="0.73657">
        <ele>367</ele>
        <time>2022-09-14T12:48:52Z</time>
      </trkpt>
      <trkpt lat="43.10629" lon="0.73653">
        <ele>367</ele>
        <time>2022-09-14T12:48:57Z</time>
      </trkpt>
      <trkpt lat="43.10631" lon="0.73646">
        <ele>367</ele>
        <time>2022-09-14T12:49:02Z</time>
      </trkpt>
      <trkpt lat="43.10628" lon="0.73591">
        <ele>368</ele>
        <time>2022-09-14T12:49:33Z</time>
      </trkpt>
      <trkpt lat="43.10621" lon="0.7354">
        <ele>368</ele>
        <time>2022-09-14T12:50:04Z</time>
      </trkpt>
      <trkpt lat="43.10617" lon="0.7351">
        <ele>368</ele>
        <time>2022-09-14T12:50:23Z</time>
      </trkpt>
      <trkpt lat="43.10618" lon="0.73502">
        <ele>368</ele>
        <time>2022-09-14T12:50:29Z</time>
      </trkpt>
      <trkpt lat="43.10608" lon="0.73477">
        <ele>369</ele>
        <time>2022-09-14T12:50:47Z</time>
      </trkpt>
      <trkpt lat="43.10607" lon="0.73461">
        <ele>369</ele>
        <time>2022-09-14T12:50:55Z</time>
      </trkpt>
      <trkpt lat="43.10605" lon="0.7345">
        <ele>369</ele>
        <time>2022-09-14T12:51:22Z</time>
      </trkpt>
      <trkpt lat="43.10603" lon="0.73443">
        <ele>369</ele>
        <time>2022-09-14T12:51:28Z</time>
      </trkpt>
      <trkpt lat="43.106" lon="0.73388">
        <ele>370</ele>
        <time>2022-09-14T12:52:00Z</time>
      </trkpt>
      <trkpt lat="43.10601" lon="0.73351">
        <ele>370</ele>
        <time>2022-09-14T12:52:20Z</time>
      </trkpt>
      <trkpt lat="43.10603" lon="0.73344">
        <ele>370</ele>
        <time>2022-09-14T12:52:24Z</time>
      </trkpt>
      <trkpt lat="43.10608" lon="0.73339">
        <ele>371</ele>
        <time>2022-09-14T12:52:28Z</time>
      </trkpt>
      <trkpt lat="43.10628" lon="0.7333">
        <ele>371</ele>
        <time>2022-09-14T12:52:45Z</time>
      </trkpt>
      <trkpt lat="43.10637" lon="0.73328">
        <ele>372</ele>
        <time>2022-09-14T12:52:53Z</time>
      </trkpt>
      <trkpt lat="43.10644" lon="0.73324">
        <ele>372</ele>
        <time>2022-09-14T12:53:00Z</time>
      </trkpt>
      <trkpt lat="43.10648" lon="0.73321">
        <ele>372</ele>
        <time>2022-09-14T12:53:05Z</time>
      </trkpt>
      <trkpt lat="43.1065" lon="0.73315">
        <ele>372</ele>
        <time>2022-09-14T12:53:09Z</time>
      </trkpt>
      <trkpt lat="43.10651" lon="0.733">
        <ele>371</ele>
        <time>2022-09-14T12:53:18Z</time>
      </trkpt>
      <trkpt lat="43.10648" lon="0.73249">
        <ele>372</ele>
        <time>2022-09-14T12:53:49Z</time>
      </trkpt>
      <trkpt lat="43.10644" lon="0.73235">
        <ele>372</ele>
        <time>2022-09-14T12:53:57Z</time>
      </trkpt>
      <trkpt lat="43.10645" lon="0.73227">
        <ele>372</ele>
        <time>2022-09-14T12:54:01Z</time>
      </trkpt>
      <trkpt lat="43.10638" lon="0.73198">
        <ele>372</ele>
        <time>2022-09-14T12:54:17Z</time>
      </trkpt>
      <trkpt lat="43.10621" lon="0.73146">
        <ele>372</ele>
        <time>2022-09-14T12:54:51Z</time>
      </trkpt>
      <trkpt lat="43.1061" lon="0.73116">
        <ele>372</ele>
        <time>2022-09-14T12:55:10Z</time>
      </trkpt>
      <trkpt lat="43.10606" lon="0.73111">
        <ele>372</ele>
        <time>2022-09-14T12:55:14Z</time>
      </trkpt>
      <trkpt lat="43.10603" lon="0.73097">
        <ele>372</ele>
        <time>2022-09-14T12:55:22Z</time>
      </trkpt>
      <trkpt lat="43.106" lon="0.73092">
        <ele>372</ele>
        <time>2022-09-14T12:55:26Z</time>
      </trkpt>
      <trkpt lat="43.10593" lon="0.73072">
        <ele>372</ele>
        <time>2022-09-14T12:55:38Z</time>
      </trkpt>
      <trkpt lat="43.10577" lon="0.73037">
        <ele>372</ele>
        <time>2022-09-14T12:56:03Z</time>
      </trkpt>
      <trkpt lat="43.10569" lon="0.73029">
        <ele>372</ele>
        <time>2022-09-14T12:56:11Z</time>
      </trkpt>
      <trkpt lat="43.10563" lon="0.73016">
        <ele>372</ele>
        <time>2022-09-14T12:56:20Z</time>
      </trkpt>
      <trkpt lat="43.10555" lon="0.73004">
        <ele>372</ele>
        <time>2022-09-14T12:56:28Z</time>
      </trkpt>
      <trkpt lat="43.10548" lon="0.72984">
        <ele>372</ele>
        <time>2022-09-14T12:56:41Z</time>
      </trkpt>
      <trkpt lat="43.10534" lon="0.72962">
        <ele>372</ele>
        <time>2022-09-14T12:57:00Z</time>
      </trkpt>
      <trkpt lat="43.10532" lon="0.72954">
        <ele>372</ele>
        <time>2022-09-14T12:57:05Z</time>
      </trkpt>
      <trkpt lat="43.10528" lon="0.7295">
        <ele>373</ele>
        <time>2022-09-14T12:57:10Z</time>
      </trkpt>
      <trkpt lat="43.10523" lon="0.72948">
        <ele>372</ele>
        <time>2022-09-14T12:57:14Z</time>
      </trkpt>
      <trkpt lat="43.10519" lon="0.72942">
        <ele>373</ele>
        <time>2022-09-14T12:57:18Z</time>
      </trkpt>
      <trkpt lat="43.10517" lon="0.72935">
        <ele>373</ele>
        <time>2022-09-14T12:57:24Z</time>
      </trkpt>
      <trkpt lat="43.10516" lon="0.72925">
        <ele>373</ele>
        <time>2022-09-14T12:57:31Z</time>
      </trkpt>
      <trkpt lat="43.10512" lon="0.72918">
        <ele>373</ele>
        <time>2022-09-14T12:57:37Z</time>
      </trkpt>
      <trkpt lat="43.10508" lon="0.72923">
        <ele>373</ele>
        <time>2022-09-14T13:01:52Z</time>
      </trkpt>
      <trkpt lat="43.10497" lon="0.72922">
        <ele>373</ele>
        <time>2022-09-14T13:01:59Z</time>
      </trkpt>
      <trkpt lat="43.10494" lon="0.72932">
        <ele>373</ele>
        <time>2022-09-14T13:02:06Z</time>
      </trkpt>
      <trkpt lat="43.10489" lon="0.72927">
        <ele>373</ele>
        <time>2022-09-14T13:02:15Z</time>
      </trkpt>
      <trkpt lat="43.10499" lon="0.72918">
        <ele>373</ele>
        <time>2022-09-14T13:02:44Z</time>
      </trkpt>
      <trkpt lat="43.10505" lon="0.72914">
        <ele>373</ele>
        <time>2022-09-14T13:02:47Z</time>
      </trkpt>
      <trkpt lat="43.1051" lon="0.72912">
        <ele>373</ele>
        <time>2022-09-14T13:02:51Z</time>
      </trkpt>
      <trkpt lat="43.10515" lon="0.72909">
        <ele>373</ele>
        <time>2022-09-14T13:02:59Z</time>
      </trkpt>
      <trkpt lat="43.10519" lon="0.72903">
        <ele>373</ele>
        <time>2022-09-14T13:03:03Z</time>
      </trkpt>
      <trkpt lat="43.10525" lon="0.72901">
        <ele>373</ele>
        <time>2022-09-14T13:03:07Z</time>
      </trkpt>
      <trkpt lat="43.10529" lon="0.72897">
        <ele>373</ele>
        <time>2022-09-14T13:03:11Z</time>
      </trkpt>
      <trkpt lat="43.10537" lon="0.72893">
        <ele>373</ele>
        <time>2022-09-14T13:03:25Z</time>
      </trkpt>
      <trkpt lat="43.10542" lon="0.72888">
        <ele>373</ele>
        <time>2022-09-14T13:05:56Z</time>
      </trkpt>
    </trkseg>
  </trk>
</gpx>